[[{"header":{"parameterUnit":"m.s-1","parameterCategory":1,"la1":30.6,"la2":28.766,"lo1":-90.7593,"lo2":-88.6598,"dy":0.0162,"dx":0.0183,"nx":116,"ny":114,"refTime":"2023-09-02T00:00:00:Z","depth":0,"parameterNumber":2,"parameterNumberName":"U-component_of_WINDS"},"data":[0.0,0.0,0.0,0.0,0.0,0.0,0.0,0.0,0.0,0.0,0.0,0.0,0.0,0.0,0.0,0.0,0.0,0.0,0.0,0.0,0.0,0.0,0.0,0.0,0.0,0.0,0.0,0.0,0.0,0.0,0.0,0.0,0.0,0.0,0.0,0.0,0.0,0.0,0.0,0.0,0.0,0.0,0.0,0.0,0.0,0.0,0.0,0.0,0.0,0.0,0.0,0.0,0.0,0.0,0.0,0.0,0.0,0.0,0.0,0.0,0.0,0.0,0.0,0.0,0.0,0.0,0.0,0.0,0.0,0.0,0.0,0.0,0.0,0.0,0.0,0.0,0.0,0.0,0.0,0.0,0.0,0.0,0.0,0.0,0.0,0.0,0.0,0.0,0.0,0.0,0.0,0.0,0.0,0.0,0.0,0.0,0.0,0.0,0.0,0.0,0.0,0.0,0.0,0.0,0.0,0.0,0.0,0.0,0.0,0.0,0.0,0.0,0.0,0.0,0.0,0.0,0.0,0.0,0.0,0.0,0.0,0.0,0.0,0.0,0.0,0.0,0.0,0.0,0.0,0.0,0.0,0.0,0.0,0.0,0.0,0.0,0.0,0.0,0.0,0.0,0.0,0.0,0.0,0.0,0.0,0.0,0.0,0.0,0.0,0.0,0.0,0.0,0.0,0.0,0.0,0.0,0.0,0.0,0.0,0.0,0.0,0.0,0.0,0.0,0.0,0.0,0.0,0.0,0.0,0.0,0.0,0.0,0.0,0.0,0.0,0.0,0.0,0.0,0.0,0.0,0.0,0.0,0.0,0.0,0.0,0.0,0.0,0.0,0.0,0.0,0.0,0.0,0.0,0.0,0.0,0.0,0.0,0.0,0.0,0.0,0.0,0.0,0.0,0.0,0.0,0.0,0.0,0.0,0.0,0.0,0.0,0.0,0.0,0.0,0.0,0.0,0.0,0.0,0.0,0.0,0.0,0.0,0.0,0.0,0.0,0.0,0.0,0.0,0.0,0.0,0.0,0.0,0.0,0.0,0.0,0.0,0.0,0.0,0.0,0.0,0.0,0.0,0.0,0.0,0.0,0.0,0.0,0.0,0.0,0.0,0.0,0.0,0.0,0.0,0.0,0.0,0.0,0.0,0.0,0.0,0.0,0.0,0.0,0.0,0.0,0.0,0.0,0.0,0.0,0.0,0.0,0.0,0.0,0.0,0.0,0.0,0.0,0.0,0.0,0.0,0.0,0.0,0.0,0.0,0.0,0.0,0.0,0.0,0.0,0.0,0.0,0.0,0.0,0.0,0.0,0.0,0.0,0.0,0.0,0.0,0.0,0.0,0.0,0.0,0.0,0.0,0.0,0.0,0.0,0.0,0.0,0.0,0.0,0.0,0.0,0.0,0.0,0.0,0.0,0.0,0.0,0.0,0.0,0.0,0.0,0.0,0.0,0.0,0.0,0.0,0.0,0.0,0.0,0.0,0.0,0.0,0.0,0.0,0.0,0.0,0.0,0.0,0.0,0.0,0.0,0.0,0.0,0.0,0.0,0.0,0.0,0.0,0.0,0.0,0.0,0.0,0.0,0.0,0.0,0.0,0.0,0.0,0.0,0.0,0.0,0.0,0.0,0.0,0.0,0.0,0.0,0.0,0.0,0.0,0.0,0.0,0.0,0.0,0.0,0.0,0.0,0.0,0.0,0.0,0.0,0.0,0.0,0.0,0.0,0.0,0.0,0.0,0.0,0.0,0.0,0.0,0.0,0.0,0.0,0.0,0.0,0.0,0.0,0.0,0.0,0.0,0.0,0.0,0.0,0.0,0.0,0.0,0.0,0.0,0.0,0.0,0.0,0.0,0.0,0.0,0.0,0.0,0.0,0.0,0.0,0.0,0.0,0.0,0.0,0.0,0.0,0.0,0.0,0.0,0.0,0.0,0.0,0.0,0.0,0.0,0.0,0.0,0.0,0.0,0.0,0.0,0.0,0.0,0.0,0.0,0.0,0.0,0.0,0.0,0.0,0.0,0.0,0.0,0.0,0.0,0.0,0.0,0.0,0.0,0.0,0.0,0.0,0.0,0.0,0.0,0.0,0.0,0.0,0.0,0.0,0.0,0.0,0.0,0.0,0.0,0.0,0.0,0.0,0.0,0.0,0.0,0.0,0.0,0.0,0.0,0.0,0.0,0.0,0.0,0.0,0.0,0.0,0.0,0.0,0.0,0.0,0.0,0.0,0.0,0.0,0.0,0.0,0.0,0.0,0.0,0.0,0.0,0.0,0.0,0.0,0.0,0.0,0.0,0.0,0.0,0.0,0.0,0.0,0.0,0.0,0.0,0.0,0.0,0.0,0.0,0.0,0.0,0.0,0.0,0.0,0.0,0.0,0.0,0.0,0.0,0.0,0.0,0.0,0.0,0.0,0.0,0.0,0.0,0.0,0.0,0.0,0.0,0.0,0.0,0.0,0.0,0.0,0.0,0.0,0.0,0.0,0.0,0.0,0.0,0.0,0.0,0.0,0.0,0.0,0.0,0.0,0.0,0.0,0.0,0.0,0.0,0.0,0.0,0.0,0.0,0.0,0.0,0.0,0.0,0.0,0.0,0.0,0.0,0.0,0.0,0.0,0.0,0.0,0.0,0.0,0.0,0.0,0.0,0.0,0.0,0.0,0.0,0.0,0.0,0.0,0.0,0.0,0.0,0.0,0.0,0.0,0.0,0.0,0.0,0.0,0.0,0.0,0.0,0.0,0.0,0.0,0.0,0.0,0.0,0.0,0.0,0.0,0.0,0.0,0.0,0.0,0.0,0.0,0.0,0.0,0.0,0.0,0.0,0.0,0.0,0.0,0.0,0.0,0.0,0.0,0.0,0.0,0.0,0.0,0.0,0.0,0.0,0.0,0.0,0.0,0.0,0.0,0.0,0.0,0.0,0.0,0.0,0.0,0.0,0.0,0.0,0.0,0.0,0.0,0.0,0.0,0.0,0.0,0.0,0.0,0.0,0.0,0.0,0.0,0.0,0.0,0.0,0.0,0.0,0.0,0.0,0.0,0.0,0.0,0.0,0.0,0.0,0.0,0.0,0.0,0.0,0.0,0.0,0.0,0.0,0.0,0.0,0.0,0.0,0.0,0.0,0.0,0.0,0.0,0.0,0.0,0.0,0.0,0.0,0.0,0.0,0.0,0.0,0.0,0.0,0.0,0.0,0.0,0.0,0.0,0.0,0.0,0.0,0.0,0.0,0.0,0.0,0.0,0.0,0.0,0.0,0.0,0.0,0.0,0.0,0.0,0.0,0.0,0.0,0.0,0.0,0.0,0.0,0.0,0.0,0.0,0.0,0.0,0.0,0.0,0.0,0.0,0.0,0.0,0.0,0.0,0.0,0.0,0.0,0.0,0.0,0.0,0.0,0.0,0.0,0.0,0.0,0.0,0.0,0.0,0.0,0.0,0.0,0.0,0.0,0.0,0.0,0.0,0.0,0.0,0.0,0.0,0.0,0.0,0.0,0.0,0.0,0.0,0.0,0.0,0.0,0.0,0.0,0.0,0.0,0.0,0.0,0.0,0.0,0.0,0.0,0.0,0.0,0.0,0.0,0.0,0.0,0.0,0.0,0.0,0.0,0.0,0.0,0.0,0.0,0.0,0.0,0.0,0.0,0.0,0.0,0.0,0.0,0.0,0.0,0.0,0.0,0.0,0.0,0.0,0.0,0.0,0.0,0.0,0.0,0.0,0.0,0.0,0.0,0.0,0.0,0.0,0.0,0.0,0.0,0.0,0.0,0.0,0.0,0.0,0.0,0.0,0.0,0.0,0.0,0.0,0.0,0.0,0.0,0.0,0.0,0.0,0.0,0.0,0.0,0.0,0.0,0.0,0.0,0.0,0.0,0.0,0.0,0.0,0.0,0.0,0.0,0.0,0.0,0.0,0.0,0.0,0.0,0.0,0.0,0.0,0.0,0.0,0.0,0.0,0.0,0.0,0.0,0.0,0.0,0.0,0.0,0.0,0.0,0.0,0.0,0.0,0.0,0.0,0.0,0.0,0.0,0.0,0.0,0.0,0.0,0.0,0.0,0.0,0.0,0.0,0.0,0.0,0.0,0.0,0.0,0.0,0.0,0.0,0.0,0.0,0.0,0.0,0.0,0.0,0.0,0.0,0.0,0.0,0.0,0.0,0.0,0.0,0.0,0.0,0.0,0.0,0.0,0.0,0.0,0.0,0.0,0.0,0.0,0.0,0.0,0.0,0.0,0.0,0.0,0.0,0.0,0.0,0.0,0.0,0.0,0.0,0.0,0.0,0.0,0.0,0.0,0.0,0.0,0.0,0.0,0.0,0.0,0.0,0.0,0.0,0.0,0.0,0.0,0.0,0.0,0.0,0.0,0.0,0.0,0.0,0.0,0.0,0.0,0.0,0.0,0.0,0.0,0.0,0.0,0.0,0.0,0.0,0.0,0.0,0.0,0.0,0.0,0.0,0.0,0.0,0.0,0.0,0.0,0.0,0.0,0.0,0.0,0.0,0.0,0.0,0.0,0.0,0.0,0.0,0.0,0.0,0.0,0.0,0.0,0.0,0.0,0.0,0.0,0.0,0.0,0.0,0.0,0.0,0.0,0.0,0.0,0.0,0.0,0.0,0.0,0.0,0.0,0.0,0.0,0.0,0.0,0.0,0.0,0.0,0.0,0.0,0.0,0.0,0.0,0.0,0.0,0.0,0.0,0.0,0.0,0.0,0.0,0.0,0.0,0.0,0.0,0.0,0.0,0.0,0.0,0.0,0.0,0.0,0.0,0.0,0.0,0.0,0.0,0.0,0.0,0.0,0.0,0.0,0.0,0.0,0.0,0.0,0.0,0.0,0.0,0.0,0.0,0.0,0.0,0.0,0.0,0.0,0.0,0.0,0.0,0.0,0.0,0.0,0.0,0.0,0.0,0.0,0.0,0.0,0.0,0.0,0.0,0.0,0.0,0.0,0.0,0.0,0.0,0.0,0.0,0.0,0.0,0.0,0.0,0.0,0.0,0.0,0.0,0.0,0.0,0.0,0.0,0.0,0.0,0.0,0.0,0.0,0.0,0.0,0.0,0.0,0.0,0.0,0.0,0.0,0.0,0.0,0.0,0.0,0.0,0.0,0.0,0.0,0.0,0.0,0.0,0.0,0.0,0.0,0.0,0.0,0.0,0.0,0.0,0.0,0.0,0.0,0.0,0.0,0.0,0.0,0.0,0.0,0.0,0.0,0.0,0.0,0.0,0.0,0.0,0.0,0.0,0.0,0.0,0.0,0.0,0.0,0.0,0.0,0.0,0.0,0.0,0.0,0.0,0.0,0.0,0.0,0.0,0.0,0.0,0.0,0.0,0.0,0.0,0.0,0.0,0.0,0.0,0.0,0.0,0.0,0.0,0.0,0.0,0.0,0.0,0.0,0.0,0.0,0.0,0.0,0.0,0.0,0.0,0.0,0.0,0.0,0.0,0.0,0.0,0.0,0.0,0.0,0.0,0.0,0.0,0.0,0.0,0.0,0.0,0.0,0.0,0.0,0.0,0.0,0.0,0.0,0.0,0.0,0.0,0.0,0.0,0.0,0.0,0.0,0.0,0.0,0.0,0.0,0.0,0.0,0.0,0.0,0.0,0.0,0.0,0.0,0.0,0.0,0.0,0.0,0.0,0.0,0.0,0.0,0.0,0.0,0.0,0.0,0.0,0.0,0.0,0.0,0.0,0.0,0.0,0.0,0.0,0.0,0.0,0.0,0.0,0.0,0.0,0.0,0.0,0.0,0.0,0.0,0.0,0.0,0.0,0.0,0.0,0.0,0.0,0.0,0.0,0.0,0.0,0.0,0.0,0.0,0.0,0.0,0.0,0.0,0.0,0.0,0.0,0.0,0.0,0.0,0.0,0.0,0.0,0.0,0.0,0.0,0.0,0.0,0.0,0.0,0.0,0.0,0.0,0.0,0.0,0.0,0.0,0.0,0.0,0.0,0.0,0.0,0.0,0.0,0.0,0.0,0.0,0.0,0.0,0.0,0.0,0.0,0.0,0.0,0.0,0.0,0.0,0.0,0.0,0.0,0.0,0.0,0.0,0.0,0.0,0.0,0.0,0.0,0.0,0.0,0.0,-2.424,-2.3196,0.0,0.0,0.0,0.0,0.0,0.0,0.0,0.0,0.0,0.0,0.0,0.0,0.0,0.0,0.0,0.0,0.0,0.0,0.0,0.0,0.0,0.0,0.0,0.0,0.0,0.0,0.0,0.0,0.0,0.0,0.0,0.0,0.0,0.0,0.0,0.0,0.0,0.0,-1.7812,-1.9142,-2.0323,-1.9224,-1.7943,-1.6526,0.0,0.0,0.0,0.0,0.0,0.0,0.0,0.0,0.0,0.0,0.0,0.0,0.0,0.0,0.0,0.0,0.0,0.0,0.0,0.0,0.0,0.0,0.0,0.0,0.0,0.0,0.0,0.0,0.0,0.0,0.0,0.0,0.0,0.0,0.0,0.0,0.0,0.0,0.0,0.0,0.0,0.0,0.0,0.0,0.0,0.0,0.0,0.0,0.0,0.0,0.0,0.0,0.0,0.0,0.0,0.0,0.0,0.0,0.0,0.0,0.0,0.0,0.0,0.0,0.0,0.0,0.0,0.0,0.0,0.0,-2.5977,-2.4977,0.0,0.0,0.0,0.0,0.0,0.0,0.0,0.0,0.0,0.0,0.0,0.0,0.0,0.0,0.0,0.0,0.0,0.0,0.0,0.0,0.0,0.0,0.0,0.0,0.0,0.0,0.0,0.0,0.0,0.0,0.0,0.0,0.0,0.0,0.0,0.0,0.0,0.0,-1.9754,-2.1451,-2.3071,-2.3328,-2.225,-2.0033,-1.922,0.0,0.0,0.0,0.0,0.0,0.0,0.0,0.0,0.0,0.0,0.0,0.0,0.0,0.0,0.0,0.0,0.0,0.0,0.0,0.0,0.0,0.0,0.0,0.0,0.0,0.0,0.0,0.0,0.0,0.0,0.0,0.0,0.0,0.0,0.0,0.0,0.0,0.0,0.0,0.0,0.0,0.0,0.0,0.0,0.0,0.0,0.0,0.0,0.0,0.0,0.0,0.0,0.0,0.0,0.0,0.0,0.0,0.0,0.0,0.0,0.0,0.0,0.0,-2.7334,-2.7744,-2.8388,-2.8172,-2.8026,-2.7872,-2.7078,-2.6466,-2.5892,-2.4938,0.0,0.0,0.0,0.0,0.0,0.0,0.0,0.0,0.0,0.0,0.0,0.0,0.0,0.0,0.0,0.0,0.0,0.0,0.0,0.0,0.0,0.0,-1.4505,-1.6002,-1.6539,-1.6737,0.0,0.0,0.0,0.0,0.0,0.0,0.0,-1.75,-1.8657,-1.9921,-2.2445,-2.4149,-2.4937,-2.5452,-2.5458,-2.5013,-2.2187,-2.0449,-1.9537,0.0,0.0,0.0,0.0,0.0,0.0,0.0,0.0,0.0,0.0,0.0,0.0,0.0,0.0,0.0,0.0,0.0,0.0,0.0,0.0,0.0,0.0,0.0,0.0,0.0,0.0,0.0,0.0,0.0,0.0,0.0,0.0,0.0,0.0,0.0,0.0,0.0,0.0,0.0,0.0,0.0,-1.6006,-1.6636,0.0,0.0,0.0,0.0,0.0,0.0,0.0,0.0,0.0,0.0,0.0,0.0,0.0,-2.5947,-2.7091,-2.7207,-2.7337,-2.7472,-2.7472,-2.7586,-2.7676,-2.7676,-2.7483,-2.7114,-2.6811,0.0,-2.6541,-2.5769,0.0,0.0,0.0,0.0,0.0,0.0,0.0,0.0,0.0,0.0,0.0,0.0,0.0,0.0,0.0,0.0,0.0,0.0,0.0,0.0,0.0,-1.4521,-1.5949,-1.7366,-1.8096,-1.8404,-1.8187,0.0,0.0,0.0,0.0,0.0,0.0,-1.8711,-2.0154,-2.2071,-2.3661,-2.492,-2.5899,-2.657,-2.7024,-2.7264,-2.5761,-2.4096,-2.2347,-2.0805,0.0,0.0,0.0,0.0,0.0,0.0,0.0,0.0,0.0,0.0,0.0,0.0,0.0,0.0,0.0,0.0,0.0,0.0,0.0,0.0,0.0,0.0,0.0,0.0,0.0,0.0,0.0,0.0,0.0,0.0,0.0,0.0,0.0,0.0,0.0,0.0,0.0,0.0,0.0,-1.6422,-1.7581,-1.8214,-1.7556,-1.7079,0.0,0.0,0.0,0.0,0.0,0.0,0.0,0.0,0.0,-2.5013,-2.5586,-2.6308,-2.6991,-2.6764,-2.6855,-2.7124,-2.6682,-2.6554,-2.6681,-2.6469,-2.6258,-2.5978,-2.5758,-2.5457,-2.4906,-2.487,-2.3948,-2.2425,0.0,0.0,0.0,0.0,-2.028,-2.0576,0.0,0.0,0.0,0.0,0.0,0.0,0.0,0.0,0.0,0.0,0.0,0.0,-1.3891,-1.545,-1.7002,-1.8431,-1.9262,-1.9521,-1.9094,0.0,0.0,0.0,0.0,0.0,0.0,-1.9651,-2.1113,-2.277,-2.3734,-2.4707,-2.5716,-2.6537,-2.7197,-2.7752,-2.7775,-2.6829,-2.4991,-2.352,-2.1811,-1.9887,0.0,0.0,0.0,0.0,0.0,0.0,0.0,0.0,0.0,0.0,0.0,0.0,0.0,0.0,0.0,0.0,0.0,0.0,0.0,0.0,0.0,0.0,0.0,0.0,0.0,0.0,0.0,0.0,0.0,0.0,0.0,0.0,0.0,0.0,0.0,0.0,0.0,-1.8162,-1.9208,-1.9807,-1.9316,-1.878,0.0,0.0,0.0,0.0,0.0,0.0,-2.2084,-2.3207,-2.409,-2.488,-2.557,-2.6045,-2.6533,-2.6151,-2.6099,-2.6368,-2.5758,-2.5503,-2.5419,-2.5086,-2.4686,-2.4371,-2.4246,-2.3705,-2.2889,-2.3702,-2.326,-2.2052,-2.1517,-2.078,-2.0061,-1.9955,-2.0111,-2.032,0.0,0.0,0.0,0.0,0.0,0.0,0.0,0.0,0.0,0.0,0.0,-1.2602,-1.4819,-1.6071,-1.7533,-1.9357,-1.9726,-1.9781,-1.9596,-1.887,-1.8345,-1.8007,-1.8191,0.0,0.0,0.0,-2.1093,-2.1118,-2.2691,-2.3536,-2.3773,-2.4755,-2.5599,-2.6211,-2.6991,-2.7385,-2.7393,-2.541,-2.4019,-2.2913,0.0,0.0,0.0,0.0,0.0,0.0,0.0,0.0,0.0,0.0,0.0,0.0,0.0,0.0,0.0,0.0,0.0,0.0,0.0,0.0,0.0,0.0,0.0,0.0,0.0,0.0,0.0,0.0,0.0,0.0,0.0,0.0,0.0,0.0,0.0,0.0,0.0,0.0,0.0,-2.1402,-2.116,0.0,0.0,0.0,0.0,-2.0207,-2.0955,-2.1861,-2.2881,-2.3304,-2.3877,-2.4922,-2.4979,-2.5406,-2.6131,-2.5774,-2.5473,-2.5234,-2.4874,-2.4367,-2.3685,-2.3456,-2.2925,-2.2387,-2.2037,-2.1496,-2.0989,-2.2881,-2.2803,-2.1578,-2.1215,-2.0798,-2.02,-1.9857,-1.9857,-1.9871,0.0,0.0,0.0,0.0,0.0,0.0,0.0,0.0,0.0,-0.9824,-1.0773,-1.2082,-1.413,-1.5174,-1.6346,-1.7861,-1.8075,-1.7981,-1.7708,-1.7197,-1.6728,-1.6382,-1.7031,0.0,0.0,0.0,-1.9521,-1.994,-2.0963,-2.1494,-2.1755,-2.2953,-2.3804,-2.4348,-2.5805,-2.6765,-2.7309,-2.6972,-2.6238,-2.5216,-2.3602,-2.1599,0.0,0.0,0.0,0.0,0.0,0.0,0.0,0.0,0.0,0.0,0.0,0.0,0.0,0.0,0.0,0.0,0.0,0.0,0.0,0.0,0.0,0.0,0.0,0.0,0.0,0.0,0.0,0.0,0.0,0.0,0.0,0.0,0.0,0.0,0.0,0.0,0.0,-2.1832,-2.1645,0.0,-2.0764,-2.0358,-2.0372,-2.0802,-2.1039,-2.1641,-2.2327,-2.2774,-2.3104,-2.3468,-2.3688,-2.3879,-2.3902,-2.3557,-2.3154,-2.294,-2.2597,-2.2206,-2.1743,-2.1313,-2.0931,-2.0649,-1.9991,-1.9489,-1.9229,-1.9542,-1.9993,-2.0385,-2.027,-1.9963,-1.9638,-1.9516,-1.9516,-1.9516,0.0,0.0,0.0,0.0,0.0,0.0,0.0,0.0,0.0,-0.9378,-1.0129,-1.1199,-1.2906,-1.3737,-1.4624,-1.5869,-1.6015,-1.586,-1.568,-1.5347,-1.5087,-1.4738,-1.5526,0.0,0.0,-1.7459,-1.7687,-1.7993,-1.8718,-1.9111,-1.9225,-2.0598,-2.1554,-2.2145,-2.3754,-2.5032,-2.6036,-2.6821,-2.706,-2.6792,-2.5535,-2.3817,-2.1809,0.0,0.0,0.0,0.0,0.0,0.0,0.0,0.0,0.0,0.0,0.0,0.0,0.0,0.0,0.0,0.0,0.0,0.0,0.0,0.0,0.0,0.0,0.0,0.0,0.0,0.0,0.0,0.0,0.0,0.0,0.0,0.0,0.0,0.0,-2.0179,-2.1313,-2.1828,-2.1727,-2.1486,-2.1137,-2.0809,-2.0593,-2.0913,-2.1025,-2.1299,-2.1746,-2.1944,-2.2044,-2.2044,-2.2274,-2.2231,-2.2025,-2.1591,-2.127,-2.1064,-2.0644,-2.0216,-1.9981,-1.9456,-1.909,-1.8917,-1.8159,-1.7729,-1.7566,-1.7065,-1.7444,-1.8281,-1.8712,-1.8666,-1.8536,-1.8536,-1.8415,-1.8237,0.0,0.0,0.0,0.0,0.0,0.0,0.0,0.0,-0.7307,-0.8479,-0.9111,-0.997,-1.1358,-1.1826,-1.2462,-1.3605,-1.3687,-1.3695,-1.3653,-1.3575,-1.3423,-1.3237,0.0,0.0,-1.5388,-1.5602,-1.5559,-1.5234,-1.6044,-1.6386,-1.6233,-1.7544,-1.8687,-1.961,-2.0839,-2.2269,-2.3728,-2.4957,-2.6297,-2.7426,-2.6515,-2.538,-2.4109,0.0,0.0,0.0,0.0,0.0,0.0,0.0,0.0,0.0,0.0,0.0,0.0,0.0,0.0,0.0,0.0,0.0,0.0,0.0,0.0,0.0,0.0,0.0,0.0,0.0,0.0,0.0,0.0,0.0,0.0,0.0,0.0,0.0,-1.8665,-2.002,-2.1109,-2.1526,-2.1569,-2.1442,-2.1087,-2.0992,-2.0922,-2.0557,-2.0816,-2.0976,-2.0969,-2.0969,-2.0963,-2.1082,-2.0808,-2.0655,-2.0648,-2.006,-1.9766,-1.9746,-1.9172,-1.8671,-1.8444,-1.792,-1.7452,-1.7111,-1.654,-1.6104,-1.5806,-1.5708,-1.5456,-1.5395,-1.647,-1.6903,-1.6903,-1.6903,-1.6583,-1.6224,0.0,0.0,0.0,0.0,0.0,0.0,0.0,-0.5691,-0.6374,-0.7293,-0.7632,-0.8223,-0.9169,-0.9519,-0.9959,-1.0778,-1.0814,-1.083,-1.0923,-1.0935,-1.1332,-1.2052,0.0,0.0,-1.3515,-1.3297,-1.3287,-1.3457,-1.3752,-1.3991,-1.417,-1.5343,-1.6258,-1.6948,-1.8419,-1.9777,-2.0953,-2.2115,-2.3069,-2.3879,-2.5619,-2.5907,-2.5246,0.0,0.0,0.0,0.0,0.0,0.0,0.0,0.0,0.0,0.0,0.0,0.0,0.0,0.0,0.0,0.0,0.0,0.0,0.0,0.0,0.0,0.0,0.0,0.0,0.0,0.0,0.0,0.0,0.0,0.0,0.0,-1.549,-1.6709,-1.8237,-1.9088,-1.9781,-2.0065,-2.0097,-2.0097,-1.9978,-1.9796,-1.9599,-1.9472,-1.954,-1.9618,-1.9406,-1.9393,-1.9312,-1.9119,-1.9038,-1.89,-1.8701,-1.8545,-1.8364,-1.8171,-1.7821,-1.7538,-1.7507,-1.6721,-1.6396,-1.6446,-1.5478,-1.5054,-1.5112,-1.4386,-1.4044,-1.4093,-1.5451,-1.5932,-1.5932,-1.5932,-1.5853,-1.5517,0.0,0.0,0.0,0.0,0.0,0.0,0.0,-0.4659,-0.5114,-0.5789,-0.5924,-0.6218,-0.6843,-0.6985,-0.7297,-0.7957,-0.8122,-0.8327,-0.8546,-0.9002,-0.9555,-1.0245,0.0,-1.0697,-1.1148,-1.0815,-1.0836,-1.1194,-1.1418,-1.1694,-1.1955,-1.2937,-1.3726,-1.4449,-1.5712,-1.6842,-1.7902,-1.9053,-1.9725,-2.0292,-2.2229,-2.358,-2.4443,-2.4216,-2.3811,-2.3391,-2.2583,-2.1793,-2.1013,-2.0253,0.0,0.0,0.0,0.0,0.0,0.0,0.0,0.0,0.0,0.0,0.0,0.0,0.0,0.0,0.0,0.0,0.0,0.0,0.0,0.0,0.0,0.0,0.0,0.0,-1.477,-1.5554,-1.6653,-1.7984,-1.8897,-1.9182,-1.92,-1.92,-1.92,-1.8721,-1.8528,-1.8528,-1.8301,-1.8166,-1.8007,-1.7871,-1.7677,-1.7538,-1.7556,-1.7549,-1.7282,-1.7285,-1.7103,-1.6733,-1.6477,-1.6177,-1.5823,-1.5435,-1.5229,-1.5138,-1.4334,-1.4135,-1.4155,-1.335,-1.3055,-1.3142,0.0,0.0,0.0,0.0,-1.4397,-1.4328,0.0,0.0,0.0,0.0,0.0,0.0,0.0,-0.3398,-0.3727,-0.414,-0.4064,-0.4119,-0.4446,-0.4501,-0.4692,-0.5222,-0.5629,-0.6113,-0.6692,-0.7422,-0.7918,-0.8121,-0.8125,-0.8271,-0.8486,-0.8274,-0.8349,-0.8633,-0.9131,-0.945,-0.966,-1.0405,-1.1195,-1.1974,-1.2731,-1.3611,-1.4587,-1.5713,-1.6343,-1.6667,-1.7452,-1.9618,-2.2475,-2.3317,-2.3427,-2.3075,-2.2951,-2.2587,-2.2077,-2.091,0.0,0.0,0.0,0.0,0.0,0.0,0.0,0.0,0.0,0.0,0.0,0.0,0.0,0.0,0.0,0.0,0.0,0.0,0.0,0.0,0.0,0.0,0.0,0.0,-1.3711,-1.4093,-1.4614,-1.6597,-1.8005,-1.8139,-1.8267,-1.8262,-1.8233,-1.7765,-1.7502,-1.7376,-1.7049,-1.6668,-1.664,-1.6387,0.0,0.0,0.0,-1.6282,-1.6282,-1.6295,-1.606,-1.5588,-1.5232,-1.4762,-1.3966,-1.406,-1.3959,-1.3645,-1.3423,-1.3315,-1.3222,-1.2538,-1.2406,-1.251,-1.2741,-1.2812,-1.2671,-1.2632,-1.2717,-1.2885,0.0,0.0,0.0,0.0,0.0,0.0,0.0,-0.206,-0.2165,-0.2398,-0.2297,-0.2199,-0.2263,-0.247,-0.2708,-0.3089,-0.3811,-0.4617,-0.5446,-0.5786,-0.5958,-0.6043,-0.605,-0.619,-0.655,-0.6309,-0.6478,-0.6988,-0.703,-0.719,-0.7529,-0.7965,-0.8526,-0.922,-0.9762,-1.043,-1.1355,-1.2104,-1.2676,-1.3168,-1.3925,-1.6697,-2.0322,-2.0785,-2.1384,-2.2017,-2.2077,-2.1975,-2.1622,-2.0701,-2.0008,-1.9514,-1.8663,0.0,0.0,0.0,0.0,0.0,0.0,0.0,0.0,0.0,0.0,0.0,0.0,0.0,0.0,0.0,0.0,0.0,0.0,0.0,0.0,-1.146,-1.2099,-1.2568,-1.3181,-1.373,-1.4533,-1.5696,-1.6207,-1.6387,-1.6081,-1.6149,-1.6122,-1.5872,-1.5706,-1.5603,-1.5421,-1.5289,-1.5206,-1.4906,-1.4975,-1.4955,-1.4955,-1.4789,-1.4533,-1.4301,-1.3739,0.0,-1.3073,-1.3083,-1.3207,-1.3315,-1.3098,-1.3098,-1.3212,-1.2379,-1.1939,-1.1949,-1.253,-1.2689,-1.2675,-1.2284,-1.2254,-1.2201,0.0,0.0,0.0,0.0,0.0,0.0,0.0,-0.0884,-0.0845,-0.0734,-0.0523,-0.0385,-0.0257,-0.0375,-0.0683,-0.1152,-0.2278,-0.3209,-0.376,-0.4114,-0.4232,-0.4054,-0.4006,-0.4048,-0.4043,-0.3937,-0.4016,-0.4282,-0.4555,-0.4816,-0.5067,-0.5367,-0.5809,-0.6392,-0.6763,-0.7307,-0.8027,-0.8667,-0.9166,-0.9537,-1.0192,-1.1949,-1.4438,-1.6983,-1.8504,-1.9277,-1.9572,-1.9998,-2.0163,-1.927,-1.8896,-1.8772,-1.8048,-1.7304,-1.6445,0.0,0.0,0.0,0.0,0.0,0.0,0.0,0.0,0.0,0.0,0.0,0.0,0.0,0.0,-1.0133,0.0,0.0,-0.9771,-1.0189,-1.062,-1.0875,-1.1219,-1.1556,-1.2515,-1.4363,-1.5023,-1.5167,-1.5187,-1.5329,-1.5391,-1.5268,-1.4921,-1.4689,-1.4333,-1.4328,-1.4159,-1.3933,-1.4172,-1.4291,-1.4172,-1.4052,-1.3651,-1.2984,-1.2653,-1.2217,-1.1815,-1.2051,-1.2441,-1.2659,-1.2659,-1.2767,-1.3004,-1.233,-1.1855,-1.1492,-1.1856,-1.2063,-1.2069,-1.1902,-1.1858,-1.1733,0.0,0.0,0.0,0.0,0.0,0.0,0.0,0.0,0.053,0.087,0.1105,0.1338,0.1668,0.1491,0.1049,0.0257,-0.0991,-0.1837,-0.211,-0.244,-0.246,-0.2102,-0.1971,-0.1798,-0.1451,-0.1488,-0.1533,-0.1591,-0.207,-0.2429,-0.2557,-0.2867,-0.319,-0.3537,-0.3852,-0.4215,-0.4686,-0.5339,-0.5726,-0.5917,-0.6448,-0.7007,-0.8069,-1.2033,-1.4464,-1.5843,-1.6378,-1.7188,-1.7916,-1.7139,-1.7098,-1.7323,-1.6863,-1.6384,-1.5934,-1.5564,-1.4899,0.0,0.0,0.0,0.0,0.0,0.0,0.0,0.0,0.0,-1.1085,-1.0965,-1.0285,-0.9571,-0.9212,-0.8825,-0.8553,-0.8674,-0.8778,-0.8978,-0.9111,-0.9621,-1.0743,-1.2818,-1.3658,-1.401,-1.4185,-1.4401,-1.4548,-1.4421,-1.4144,-1.3808,-1.3569,-1.3569,-1.3444,-1.3204,-1.3688,-1.3808,-1.3569,-1.3287,-1.2727,-1.1799,-1.1417,-1.0888,-1.0359,-1.1021,-1.1459,-1.1782,-1.2223,-1.2441,-1.2583,-1.2172,-1.1629,-1.097,-1.1051,-1.1074,-1.1028,-1.138,-1.1342,-1.1276,0.0,0.0,0.0,0.0,0.0,0.0,0.0,0.0,0.0,0.24,0.2684,0.2991,0.3396,0.2995,0.2114,0.0576,0.0,-0.048,-0.101,-0.0762,-0.0483,-0.0145,0.0208,0.0538,0.0738,0.0536,0.0396,0.0321,-0.0064,-0.0256,-0.0256,-0.0447,-0.0583,-0.0733,-0.093,-0.1195,-0.1595,-0.1989,-0.232,-0.2652,-0.3051,-0.3566,-0.4242,-0.5474,-0.8519,-1.2245,-1.3017,-1.3767,-1.4435,-1.4441,-1.4673,-1.4781,-1.4865,-1.466,-1.433,-1.4435,0.0,-1.3267,-1.3149,-1.3073,-1.291,-1.2728,-1.2265,-1.1711,0.0,0.0,-0.9764,-0.9402,-0.8513,-0.7709,-0.7173,-0.6549,-0.6062,-0.6283,-0.6305,-0.6713,-0.7646,-0.7703,-0.816,-0.9311,-1.1239,-1.2283,-1.1724,-1.2401,-1.2871,-1.2509,-1.2733,-1.284,-1.284,-1.3084,-1.3204,-1.3204,-1.3324,-1.3204,-1.284,-1.1831,-1.1063,-1.0532,-0.981,-0.9311,-0.914,-0.9702,-1.0363,-1.0911,-1.2005,-1.2114,-1.1695,-1.1582,-1.0988,-1.0213,-1.0055,-0.9799,-0.9557,-1.0252,-1.0543,-1.0603,0.0,0.0,0.0,0.0,0.0,0.0,0.0,0.0,0.0,0.0,0.4134,0.4361,0.4671,0.4015,0.3188,0.2119,0.1675,0.1395,0.1158,0.1281,0.149,0.1958,0.2169,0.2447,0.2808,0.2608,0.2591,0.275,0.2196,0.1922,0.1922,0.1699,0.1586,0.1566,0.1498,0.1378,0.1198,0.0865,0.0671,0.0477,-0.0068,-0.0634,-0.1329,-0.2141,-0.4146,-0.6827,-0.9136,-1.0673,0.0,0.0,-1.2204,-1.2657,-1.2662,-1.2851,-1.309,-1.3164,-1.3109,0.0,-1.2646,-1.239,0.0,0.0,-1.1301,-1.0833,-1.0539,-0.9555,-0.8664,-0.8084,-0.7056,-0.6133,-0.5517,-0.4735,-0.4364,0.0,-0.4839,-0.524,-0.618,-0.6552,-0.7039,-0.7631,-0.8874,-0.9885,-1.0461,-1.1164,-1.174,-1.2005,-1.2238,-1.2479,-1.2719,-1.2964,-1.3204,-1.3204,-1.3204,-1.296,-1.2359,-1.1336,-1.0461,-0.9726,-0.9,-0.8626,-0.8374,-0.9037,-0.9919,-1.1017,-1.1673,-1.1787,-1.1586,-1.1106,-1.0389,-0.9504,-0.9201,-0.8708,-0.8253,-0.9336,-0.972,-0.9913,0.0,0.0,0.0,0.0,0.0,0.0,0.0,0.0,0.0,0.0,0.0,0.0,0.0,0.4906,0.4159,0.3515,0.3171,0.301,0.3112,0.3169,0.3467,0.4028,0.4212,0.4461,0.4922,0.4681,0.4709,0.5001,0.4319,0.4019,0.4081,0.3837,0.3872,0.3977,0.3972,0.4013,0.3954,0.3748,0.3515,0.3371,0.2807,0.2093,0.1279,0.0451,-0.0698,-0.2268,-0.5773,-0.7739,0.0,0.0,-0.9692,-1.0249,-1.0466,-1.0861,-1.1339,-1.1553,-1.1727,-1.186,-1.1625,0.0,0.0,-1.0538,-1.0049,-0.9557,-0.8995,-0.8193,-0.7379,-0.6657,-0.5562,-0.4445,-0.3663,-0.301,-0.2631,-0.2937,-0.3343,-0.3881,-0.4972,-0.5647,-0.6162,-0.663,-0.7146,-0.7854,-0.8919,-0.9867,-1.0652,-1.1115,-1.1586,-1.2051,-1.2242,-1.284,-1.3084,-1.3084,-1.3084,-1.2719,-1.2118,-1.0814,-0.9831,-0.9029,-0.8163,-0.7694,-0.7712,-0.8481,-0.9585,-1.0911,-1.124,-1.135,-1.1139,-1.0377,-0.9532,-0.8646,-0.8181,-0.7592,-0.7177,-0.8079,-0.869,-0.9044,0.0,0.0,0.0,0.0,0.0,0.0,0.0,0.0,0.0,0.0,0.0,0.0,0.0,0.0,0.5084,0.4348,0.4084,0.4044,0.4331,0.4669,0.5277,0.6286,0.6367,0.6706,0.7266,0.6892,0.6713,0.6724,0.6264,0.6063,0.6195,0.609,0.6252,0.6762,0.6762,0.6762,0.6769,0.6769,0.6418,0.5851,0.5412,0.47,0.3768,0.2789,0.1709,0.0243,-0.3062,0.0,0.0,0.0,-0.6982,-0.7414,-0.8185,-0.8566,0.0,-0.9419,-0.9656,-0.9765,-0.9784,0.0,-0.9319,-0.9241,-0.8558,-0.7888,-0.743,-0.6414,-0.5552,-0.4789,-0.3698,-0.2578,-0.1936,-0.1162,-0.0778,-0.1184,-0.1582,-0.2384,-0.4159,-0.4571,-0.5242,-0.6315,-0.6583,-0.6681,0.0,-0.8293,-0.9314,-0.9558,-1.0535,-1.1083,-1.1281,-1.2238,-1.2719,-1.2719,-1.2719,-1.2479,-1.1877,-0.9994,-0.8681,-0.7979,-0.6943,-0.6497,-0.6824,-0.826,-0.9475,-1.0366,-1.0582,-1.0582,-1.0143,-0.9258,-0.8484,-0.7598,-0.6943,-0.6614,-0.6391,-0.6391,-0.7051,-0.8045,0.0,0.0,0.0,0.0,0.0,0.0,0.0,0.0,0.0,0.0,0.0,0.0,0.0,0.0,0.0,0.0,0.0,0.0,0.6129,0.6406,0.6997,0.7785,0.8011,0.8341,0.8699,0.8628,0.8487,0.8485,0.8069,0.7931,0.7931,0.8067,0.8279,0.8554,0.8829,0.8899,0.8759,0.8624,0.837,0.8035,0.743,0.6765,0.6054,0.5087,0.3918,0.2575,0.0,0.0,0.0,0.0,0.0,0.0,-0.6418,-0.7188,-0.7897,-0.8626,-0.8851,-0.8829,-0.8795,0.0,-0.7946,-0.7912,-0.7303,-0.6617,-0.6073,-0.5091,-0.4022,-0.3235,-0.212,-0.1123,-0.0371,0.0124,0.0252,-0.0383,-0.0904,-0.1958,-0.3706,-0.4509,-0.5189,-0.6311,-0.6453,0.0,0.0,0.0,0.0,-0.8943,-0.9434,-1.0124,-1.1087,-1.1444,-1.176,-1.2122,-1.1635,-1.1273,-1.0789,-0.9167,-0.8099,-0.7749,-0.6935,-0.6826,-0.7385,-0.8371,-0.9258,-0.9926,-1.0033,-0.9809,-0.9254,-0.8367,-0.7482,-0.6707,-0.6265,-0.5935,-0.5717,-0.5938,-0.6492,-0.7268,0.0,0.0,0.0,0.0,0.0,0.0,0.0,0.0,0.0,0.0,0.0,0.0,0.0,0.0,0.0,0.0,0.0,0.0,0.7455,0.7937,0.8587,0.9327,0.9767,1.0103,1.045,1.0349,1.0301,1.0243,0.9955,0.993,1.0165,1.0324,1.0629,1.1089,1.1307,1.1301,1.1082,1.0803,1.0404,1.0004,0.9301,0.8591,0.7753,0.6761,0.5601,0.0,0.0,0.0,0.0,0.0,0.0,0.0,-0.5008,-0.604,-0.7079,-0.7746,-0.7875,-0.7829,-0.755,-0.7112,-0.6551,-0.6296,-0.5868,-0.527,-0.4666,-0.3772,-0.27,-0.1824,-0.0725,0.012,0.0599,0.0961,0.0972,0.0374,-0.0253,-0.1409,-0.3282,-0.4214,-0.503,-0.6309,-0.6453,-0.6453,0.0,0.0,0.0,-0.8175,-0.8676,-0.9239,-1.0053,-1.0411,-1.0711,-1.1031,-1.066,-1.0297,-0.9937,-0.8458,-0.7356,-0.6817,-0.6674,-0.6826,-0.7493,-0.8374,-0.9037,-0.9482,-0.9372,-0.9037,-0.8364,-0.7436,-0.6649,-0.6095,-0.5841,-0.5632,-0.5665,-0.5992,-0.6566,-0.7268,0.0,0.0,0.0,0.0,0.0,0.0,0.0,0.0,0.0,0.0,0.0,0.0,0.0,0.0,0.0,0.0,0.0,0.0,0.829,0.9124,1.0002,1.0994,1.1547,1.199,1.2378,1.2155,1.1999,1.1999,1.1786,1.2011,1.2613,1.2818,1.3341,1.4123,1.4123,1.3959,1.3632,1.3259,1.2552,1.1686,1.1036,1.0151,0.9019,0.7879,0.0,0.0,0.0,0.0,0.0,0.0,0.0,0.0,0.0,-0.5277,-0.6331,-0.648,-0.6754,-0.6744,-0.5974,-0.5638,-0.5258,-0.4552,-0.4307,-0.3899,-0.2985,-0.2324,-0.1645,-0.0588,0.0232,0.1038,0.0,0.0,0.1517,0.0978,0.0247,-0.0877,-0.2877,-0.3816,-0.4896,0.0,0.0,0.0,0.0,0.0,0.0,-0.7119,0.0,-0.8307,-0.8446,-0.9299,-0.9721,-0.9687,-0.9684,-0.9559,-0.9188,-0.7735,-0.647,-0.5382,-0.594,-0.6604,-0.7154,-0.8042,-0.8595,-0.8813,-0.8585,-0.8029,-0.7465,-0.6473,-0.5888,-0.5658,-0.5569,-0.581,-0.6115,-0.6436,-0.727,-0.8045,0.0,0.0,0.0,0.0,0.0,0.0,0.0,0.0,0.0,0.0,0.0,0.0,0.0,0.0,0.0,0.0,0.0,0.0,0.9226,0.9849,1.0641,1.1766,1.2287,1.2935,1.3528,1.3526,1.3482,1.3475,1.3331,1.3433,1.3828,1.4201,1.4713,1.535,1.5512,1.5273,1.4647,1.4116,1.338,1.2537,0.0,1.0904,1.0137,0.0,0.0,0.0,0.0,0.0,0.0,0.0,0.0,0.0,0.0,-0.5506,-0.5989,-0.5759,-0.5594,-0.534,-0.4755,-0.4189,-0.3598,-0.3454,-0.3033,-0.2487,-0.1946,-0.1268,-0.0576,0.0342,0.0906,0.1239,0.0,0.0,0.0,0.0356,-0.0361,0.0,-0.335,-0.3888,0.0,-0.5897,0.0,-0.5243,-0.5243,-0.4973,0.0,0.0,-0.6411,-0.7517,-0.7938,-0.8176,-0.8332,-0.8363,-0.8113,-0.7947,-0.7736,-0.6803,-0.5945,-0.5382,-0.5712,-0.627,-0.6824,-0.7265,-0.7712,-0.7931,-0.7497,-0.7021,-0.6471,-0.5929,-0.5567,-0.5245,-0.5649,-0.6127,-0.6544,-0.7513,-0.8356,-0.9144,0.0,0.0,0.0,0.0,0.0,0.0,0.0,0.0,0.0,0.0,0.0,0.0,0.0,0.0,0.0,0.0,0.0,0.0,0.0,1.0581,1.1402,1.2291,1.2975,1.3616,1.4379,1.4536,1.4687,0.0,0.0,0.0,1.5141,1.552,1.5856,1.6286,1.637,1.6057,1.5358,1.4576,0.0,0.0,0.0,0.0,0.0,0.0,0.0,0.0,0.0,0.0,0.0,0.0,0.0,-0.3988,-0.4534,-0.4818,-0.4973,-0.4552,0.0,-0.4105,-0.3431,-0.282,-0.2414,-0.2232,-0.1783,-0.1333,-0.0785,-0.0224,0.0333,0.088,0.1309,0.0,0.1529,0.1433,0.1124,0.0,0.0,0.0,-0.2822,-0.35,-0.4068,0.0,-0.4572,0.0,-0.4168,-0.3899,-0.3764,0.0,-0.5106,-0.5969,-0.6058,-0.6304,-0.6328,-0.6343,-0.6215,-0.603,-0.5892,-0.5677,-0.5469,-0.5156,-0.5601,-0.6044,-0.649,-0.6824,-0.7019,-0.7188,-0.679,-0.63,-0.5819,-0.5505,-0.5385,-0.5527,-0.5905,-0.6613,-0.7516,-0.838,-0.919,-0.9922,0.0,0.0,0.0,0.0,0.0,0.0,0.0,0.0,0.0,0.0,0.0,0.0,0.0,0.0,0.0,0.0,0.0,0.0,0.0,0.0,0.0,0.0,1.3354,1.4139,1.4909,0.0,0.0,0.0,0.0,0.0,0.0,0.0,0.0,0.0,0.0,0.0,0.0,0.0,0.0,0.0,0.0,0.0,0.0,0.0,0.0,0.0,0.0,0.0,0.0,0.0,-0.2434,-0.3578,-0.3704,-0.375,-0.3574,-0.3155,-0.2974,-0.2775,-0.1948,-0.1523,-0.1203,-0.0777,-0.0441,-0.0109,0.0545,0.0754,0.1064,0.1382,0.0,0.1677,0.1729,0.1415,0.1108,0.0815,0.0,-0.0994,-0.2054,-0.2737,-0.3171,-0.3491,-0.3499,-0.3229,-0.2825,-0.2825,-0.2825,-0.2825,-0.3355,-0.3711,-0.4002,-0.4243,-0.4283,-0.4221,-0.4199,-0.4252,-0.4134,-0.4698,-0.5002,-0.4929,-0.5487,-0.5933,-0.6262,-0.649,-0.6543,-0.6436,-0.6098,-0.5817,-0.5501,-0.5197,-0.5424,-0.6032,-0.6357,-0.7293,-0.8487,-0.9137,-0.9892,-1.0646,0.0,0.0,0.0,0.0,0.0,0.0,0.0,0.0,0.0,0.0,0.5754,0.6444,0.0,0.0,0.0,0.0,0.0,0.0,0.0,0.0,0.0,0.0,1.3444,1.4165,0.0,0.0,0.0,0.0,0.0,0.0,0.0,0.0,0.0,0.0,0.0,0.0,0.0,0.0,0.0,0.0,0.0,0.0,0.0,0.0,0.0,0.0,0.0,0.0,0.0,0.0,-0.1503,-0.2608,-0.2871,-0.271,-0.2209,-0.1669,-0.1263,-0.0743,-0.021,0.0317,0.0749,0.0859,0.1072,0.1284,0.1712,0.1708,0.0,0.0,0.1873,0.1665,0.1361,0.1061,0.0654,0.0115,-0.0469,-0.1212,-0.2048,-0.2197,-0.2353,0.0,-0.1884,-0.1346,-0.0942,-0.0673,0.0,0.0,-0.0532,-0.1312,-0.3224,-0.3311,-0.3364,-0.3253,-0.3406,-0.3582,-0.3793,-0.4305,-0.4718,-0.4929,-0.5268,-0.5603,-0.5933,-0.5714,-0.566,-0.5888,-0.5485,0.0,-0.5406,-0.5205,-0.563,-0.6344,-0.7044,-0.7919,-0.8911,-1.0095,-1.0852,-1.1291,0.0,0.0,0.0,0.0,0.0,0.0,0.0,0.3222,0.3602,0.4014,0.4854,0.557,0.5914,0.6648,0.7375,0.0,0.0,0.0,0.0,0.0,0.0,0.0,0.0,0.0,0.0,0.0,0.0,0.0,0.0,0.0,0.0,0.0,0.0,0.0,0.0,0.0,0.0,0.0,0.0,0.0,0.0,0.0,0.0,0.0,0.0,0.0,0.0,0.0,0.0,0.0,0.0203,-0.041,-0.1137,-0.1042,-0.0629,0.0105,0.0529,0.0956,0.1474,0.2009,0.2341,0.2446,0.2642,0.2729,0.2729,0.0,0.0,0.0,0.2148,0.2052,0.1865,0.158,0.0,0.1128,0.0584,0.0,-0.0507,-0.0646,0.0,-0.0805,-0.0538,-0.0135,0.0,0.0669,0.0799,0.0799,0.1044,0.0515,-0.116,-0.1243,-0.1209,-0.119,-0.1731,-0.2156,-0.2496,-0.3375,-0.4033,-0.4484,-0.4933,-0.5266,-0.5601,-0.5493,-0.5414,-0.5382,-0.5233,-0.5135,-0.5309,-0.5562,-0.6209,-0.7135,-0.7747,-0.8598,-0.9538,-1.0282,-1.0753,-1.1092,0.0,0.0,0.0,0.0,0.0,0.0,0.0,0.2412,0.2822,0.3558,0.4159,0.4782,0.5513,0.6387,0.7213,0.0,0.0,0.0,0.0,0.0,0.0,0.0,0.0,0.0,0.0,0.0,0.0,0.0,0.0,0.0,0.0,0.0,0.0,0.0,0.0,0.0,0.0,0.0,0.0,0.0,0.0,0.0,0.0,0.0,0.0,0.0,0.0,0.0,0.0,0.0,0.2036,0.1854,0.1235,0.1035,0.1149,0.2005,0.2432,0.2746,0.3262,0.3575,0.389,0.4096,0.4057,0.4015,0.381,0.3464,0.0,0.0,0.2623,0.2634,0.2674,0.2407,0.2248,0.0,0.1844,0.1321,0.0995,0.0767,0.0655,0.0,0.067,0.0,0.134,0.1592,0.0,0.1706,0.217,0.189,0.0889,0.0727,0.0706,0.0703,-0.0114,-0.0785,-0.1121,-0.2242,-0.3138,-0.3813,-0.4482,-0.5043,-0.5377,-0.547,-0.537,-0.5318,-0.5299,-0.5298,-0.5539,-0.5942,-0.6914,-0.8054,-0.8357,-0.9175,-1.016,-1.016,-1.036,-1.0712,0.0,0.0,0.0,0.0,0.0,0.0,0.0,0.2051,0.249,0.3159,0.3889,0.4616,0.5342,0.6326,0.712,0.0,0.0,0.0,0.0,0.0,0.0,0.0,0.0,0.0,0.0,0.0,0.0,0.0,0.0,0.0,0.0,0.0,0.0,0.0,0.0,0.0,0.0,0.0,0.0,0.0,0.0,0.0,0.0,0.0,0.0,0.0,0.0,0.0,0.0,0.0,0.0,0.3232,0.4039,0.3721,0.3174,0.3959,0.0,0.0,0.5183,0.5361,0.5361,0.5461,0.5454,0.5349,0.505,0.0,0.0,0.3932,0.343,0.3232,0.3436,0.308,0.2721,0.0,0.0,0.1836,0.0,0.0,0.0,0.0,0.0,0.0,0.1981,0.2243,0.2491,0.2459,0.3268,0.3193,0.182,0.1429,0.1287,0.1268,0.0566,0.0,-0.0449,-0.1458,-0.2354,-0.325,-0.4143,-0.4815,-0.5369,-0.5507,-0.5739,-0.5951,-0.5749,-0.5948,0.0,-0.6642,-0.7522,-0.8674,-0.8874,-0.9488,-1.016,-1.016,-1.0257,-1.0408,0.0,0.0,0.0,0.0,0.0,0.0,0.1694,0.2092,0.257,0.3329,0.4053,0.4798,0.5613,0.609,0.6613,0.7335,0.0,0.0,0.0,0.0,0.0,0.0,0.0,0.0,0.0,0.0,0.0,0.0,0.0,0.0,0.0,0.0,0.0,0.0,0.0,0.0,0.0,0.0,0.0,0.0,0.0,0.0,0.0,0.0,0.0,0.0,0.0,0.0,0.0,0.0,0.0,0.0,0.5737,0.5694,0.0,0.0,0.5597,0.5893,0.6253,0.6339,0.6339,0.6537,0.6537,0.6437,0.6037,0.0,0.5434,0.5035,0.4834,0.4634,0.4832,0.4461,0.4101,0.0,0.0,0.0,0.1982,0.0,0.0,0.1281,0.1294,0.0,0.0,0.0,0.267,0.3598,0.3884,0.3928,0.3514,0.291,0.2429,0.2184,0.1357,0.0785,0.0336,-0.0561,-0.1458,-0.2354,-0.3249,-0.4032,-0.4812,-0.506,-0.5299,-0.5741,-0.574,-0.6144,0.0,-0.7437,-0.8368,-0.9222,-0.953,-0.9774,-0.9936,-0.9532,-0.9493,-0.9734,0.0,0.0,0.0,0.0,0.0,0.1582,0.1823,0.2265,0.2923,0.3776,0.4365,0.4932,0.5672,0.5557,0.5634,0.614,0.6959,0.0,0.0,0.0,0.0,0.0,0.0,0.0,0.0,0.0,0.0,0.1953,0.0522,0.0,0.0,0.0,0.0,0.0,0.0,0.0,0.0,0.0,0.0,0.0,0.0,0.0,0.0,0.0,0.0,0.0,0.0,0.0,0.0,0.0,0.0,0.0,0.0,0.0,0.0,0.0,0.6739,0.6936,0.7338,0.7437,0.7437,0.7633,0.7704,0.7572,0.0,0.0,0.697,0.6575,0.6404,0.6431,0.6331,0.5937,0.5361,0.0,0.0,0.3288,0.2145,0.1772,0.0,0.0,0.0,0.1153,0.0,0.2014,0.2832,0.4196,0.4361,0.4417,0.4596,0.3755,0.3178,0.2737,0.1918,0.1346,0.1009,0.0336,-0.0449,-0.1346,-0.2242,-0.3242,-0.4221,-0.4588,-0.5046,-0.5591,-0.5899,-0.6417,0.0,-0.8134,-0.8924,-0.9616,-0.9821,-0.9821,-0.962,-0.8825,-0.8733,-0.8836,0.0,0.0,0.0,0.0,0.0,0.0,0.2235,0.2711,0.3349,0.4478,0.468,0.4926,0.5342,0.4755,0.4128,0.3753,0.5215,0.0,0.0,0.0,0.0,0.0,0.0,0.0,0.0,0.0,-0.0973,-0.2541,-0.3791,-0.4587,0.0,0.0,0.0,0.0,0.0,0.0,0.0,0.0,0.0,0.0,0.0,0.0,0.0,0.0,0.0,0.0,0.0,0.0,0.0,0.0,0.0,0.0,0.0,0.0,0.0,0.0,0.7939,0.8137,0.8627,0.8825,0.8825,0.8825,0.88,0.8779,0.0,0.8675,0.876,0.8571,0.8405,0.8315,0.8021,0.7129,0.6037,0.4935,0.395,0.0,0.1528,0.1028,0.0,0.0,0.0,0.0757,0.1388,0.2333,0.3233,0.424,0.4521,0.0,0.4593,0.3896,0.3306,0.2692,0.2132,0.1683,0.1346,0.1009,0.0449,-0.0449,-0.1346,-0.2446,-0.3495,-0.429,-0.5055,-0.5791,-0.6189,-0.6833,0.0,-0.8428,-0.9126,-0.9628,-0.9628,-0.9422,-0.9118,-0.8333,-0.8038,-0.8038,0.0,0.0,0.0,0.0,0.0,0.0,0.0,0.3263,0.3993,0.4887,0.4975,0.5008,0.4992,0.3941,0.2925,0.2135,0.313,0.0,0.0,0.0,0.0,0.0,0.0,0.0,0.0,0.0,-0.5051,-0.6502,-0.756,-0.8106,-0.8201,-0.8222,-0.7916,0.0,0.0,0.0,0.0,0.0,0.0,0.0,0.0,0.0,0.0,0.0,0.0,0.0,0.0,0.0,0.0,0.0,0.0,0.0,0.0,0.0,0.0,0.0,0.0,0.0,0.8726,0.8928,0.9031,0.9031,0.9389,0.9636,0.9348,0.9823,1.0101,0.9623,0.9672,0.9501,0.8718,0.7624,0.6453,0.481,0.335,0.0,0.0,0.0,0.0,-0.0848,0.0122,0.0857,0.0,0.0,0.313,0.3986,0.426,0.4529,0.4691,0.3886,0.3139,0.2645,0.2095,0.1764,0.1653,0.1115,0.0673,0.0112,-0.0897,-0.2001,-0.295,-0.3649,-0.4637,-0.5588,-0.6189,-0.6936,-0.7935,-0.8931,-0.9525,-0.992,-0.992,-0.9521,-0.8825,-0.8031,-0.7637,-0.7437,0.0,0.0,0.0,0.0,0.0,0.0,0.0,0.3796,0.4519,0.5175,0.5029,0.4699,0.4249,0.2762,0.1379,0.0216,0.0143,0.0,0.0,0.0,0.0,0.0,0.0,0.0,0.0,-0.7208,-0.8639,-0.9888,-1.0552,-1.0781,-1.0557,-1.0186,-0.9494,-0.856,-0.7458,0.0,0.0,0.0,0.0,0.0,0.0,0.0,0.1238,0.0,0.0,0.0,0.0,0.0,0.0,0.0,0.0,0.0,0.0,0.0,0.0,0.0,0.7504,0.8087,0.0,0.9178,0.9425,0.9527,0.991,0.0,0.0,1.0697,1.1125,1.0566,1.0596,1.0297,0.9217,0.7819,0.6261,0.4433,0.2732,0.1184,0.0,0.0,0.0,-0.0962,0.0,0.0,0.0,0.2084,0.2941,0.3553,0.3934,0.4201,0.4365,0.3702,0.2968,0.2466,0.1942,0.1733,0.1624,0.1101,0.0666,0.0222,-0.0666,-0.1541,-0.249,-0.3295,-0.4278,-0.5328,-0.6067,-0.7108,0.0,-0.9131,-0.9579,-0.9812,-0.9711,-0.9127,-0.8358,-0.7632,-0.7162,-0.697,0.0,0.0,0.0,0.0,0.0,0.0,0.0,0.4184,0.4798,0.5284,0.4773,0.4066,0.3177,0.1436,-0.0352,-0.188,0.0,0.0,0.0,0.0,0.0,0.0,0.0,0.0,0.0,-1.0454,-1.1618,-1.2573,-1.2765,-1.2573,-1.195,-1.1142,-1.0009,-0.8619,-0.7476,-0.6145,-0.4442,-0.1848,-0.0307,0.0315,0.0563,0.0493,0.0,0.0,0.0,0.0,0.0,0.0,0.0,0.0,0.0,0.0,0.0,0.0,0.0,0.0,0.0,0.0,0.0,0.9364,0.0,0.0,0.0,0.0,1.0626,1.1323,0.0,1.1303,1.1172,1.0681,0.9312,0.7528,0.5667,0.3718,0.2106,0.0648,0.0,-0.081,0.0,0.0,0.0481,0.0,0.1266,0.2034,0.2664,0.2942,0.3535,0.3817,0.3811,0.3229,0.2682,0.2062,0.1784,0.1485,0.1276,0.0973,0.0546,-0.0109,-0.0764,-0.1406,-0.2231,-0.3028,-0.4,-0.524,-0.6029,-0.7248,-0.8586,-0.9148,-0.9424,-0.9461,-0.9266,-0.8707,-0.7893,-0.7273,-0.6834,-0.6651,0.0,0.0,0.0,0.0,0.0,0.0,0.0,0.0,0.0,0.0,0.3988,0.3171,0.2,0.0203,-0.1481,0.0,0.0,0.0,0.0,0.0,0.0,0.0,0.0,0.0,0.0,-1.1888,-1.2712,-1.3511,-1.326,-1.2765,-1.195,-1.0892,-0.9627,-0.8107,-0.6781,-0.4678,-0.1978,-0.0682,0.0154,0.0471,0.0079,-0.0318,0.0,0.0,0.0,0.0,-0.0432,0.0,0.0,0.0,0.0,0.0,0.0,0.0,0.0,0.0,0.5866,0.6713,0.7732,0.0,0.9622,0.9809,1.0365,1.0806,0.0,1.1115,1.1382,1.0813,0.0,0.0,0.7994,0.6295,0.4543,0.2421,0.0644,-0.0773,-0.185,0.0,0.0,-0.0482,0.0584,0.1252,0.1242,0.2087,0.2678,0.2945,0.341,0.3558,0.3406,0.2751,0.2139,0.146,0.0793,0.0507,0.0627,0.0106,-0.0321,-0.0964,-0.1715,-0.2441,-0.2919,-0.3634,-0.4511,-0.5532,-0.6243,-0.7453,-0.8864,-0.9395,-0.9779,-0.9921,-0.9921,-0.9173,-0.8157,-0.782,-0.7168,-0.6409,0.0,0.0,0.0,0.0,0.0,0.0,0.0,0.0,0.0,0.0,0.0,0.0,0.0,0.0,0.0,0.0,0.0,0.0,0.0,0.0,0.0,0.0,0.0,-1.0758,-1.1476,-1.2097,-1.2712,-1.3199,-1.2757,-1.2066,-1.1044,-0.9857,-0.8388,-0.6658,-0.4792,-0.2679,-0.0625,-0.0232,0.0,0.008,-0.0787,0.0,0.0,0.0,0.0,0.0,-0.2019,-0.1432,0.0,-0.0246,0.0571,0.1307,0.0,0.0,0.0,0.0,0.4886,0.5849,0.6518,0.7887,0.9242,0.9426,1.0002,1.0475,1.021,0.0,0.0,0.0,0.0,0.0,0.0,0.0,0.3121,0.1273,-0.0108,0.0,0.0,0.0,-0.0475,0.0234,0.1026,0.1561,0.0,0.2353,0.2716,0.2667,0.292,0.2965,0.2618,0.1917,0.1238,0.0668,-0.0193,-0.0491,-0.0202,-0.0831,-0.1367,-0.1789,-0.2525,-0.3034,-0.3418,-0.3904,-0.4657,-0.5758,-0.6287,-0.7442,-0.8913,-0.928,-0.9644,-0.9836,-0.9745,-0.9112,-0.8212,-0.7923,-0.7207,-0.647,0.0,0.0,0.0,0.0,0.0,0.0,0.0,0.0,0.0,0.0,0.0,0.0,0.0,0.0,0.0,0.0,0.0,0.0,0.0,0.0,0.0,0.0,0.0,-1.1009,-1.1247,-1.1516,-1.175,-1.1989,-1.1425,-1.0586,-0.9427,-0.8227,-0.665,-0.4733,-0.2499,-0.0976,-0.0157,-0.0394,-0.0638,-0.0891,-0.2068,0.0,0.0,0.0,0.0,0.0,0.0,0.0,0.0,-0.1187,-0.0314,0.0552,0.1046,0.0,0.0,0.0,0.0,0.0,0.5401,0.6943,0.8415,0.8771,0.919,0.9506,0.9248,0.0,0.0,0.0,0.0,0.0,0.0,0.3077,0.0,0.0,0.0,0.0,-0.0575,-0.0117,0.0348,0.1238,0.1563,0.0,0.2129,0.2603,0.276,0.2414,0.2356,0.2211,0.1892,0.0939,0.0187,-0.0187,-0.1128,-0.1427,-0.1162,-0.191,-0.2355,-0.2663,-0.3172,-0.358,-0.3886,-0.4028,-0.4753,-0.5843,-0.6407,0.0,-0.8816,-0.9058,-0.9309,-0.9602,-0.9396,-0.8773,-0.8086,-0.776,-0.7185,-0.6593,0.0,0.0,0.0,0.0,0.0,0.0,0.0,0.0,0.0,0.0,0.0,0.0,0.0,0.0,0.0,0.0,0.0,0.0,0.0,0.0,0.0,0.0,-0.9399,-1.019,-1.0218,-1.0002,-0.985,-0.9686,-0.9053,-0.8073,-0.6832,-0.594,-0.4498,-0.2658,-0.1632,-0.0993,-0.0784,-0.1359,-0.1937,-0.251,-0.3781,0.0,0.0,0.0,0.0,0.0,0.0,0.0,0.0,-0.1583,-0.0786,-0.0079,0.0552,0.0,0.0,0.0,0.0,0.0,0.4704,0.5481,0.6367,0.6989,0.7496,0.7826,0.7562,0.0,0.0,0.0,0.0,0.0,0.0,0.1465,0.0214,0.0,0.0,-0.1518,0.0,0.0,0.0573,0.1237,0.0,0.2024,0.2087,0.2524,0.2668,0.2463,0.2253,0.1909,0.1087,0.035,-0.0514,-0.1286,-0.2131,-0.2628,-0.2818,-0.284,-0.3089,-0.3569,-0.3955,-0.4246,-0.444,-0.4522,-0.4984,-0.5721,0.0,-0.7407,-0.8808,-0.9101,-0.9547,-0.9845,-0.9244,-0.8662,-0.7963,-0.7425,-0.6963,-0.6663,0.0,0.0,0.0,0.0,0.0,0.0,0.0,0.0,0.0,0.0,0.0,0.0,0.0,0.0,0.0,0.0,0.0,0.0,0.0,0.0,0.0,-0.643,-0.6889,-0.756,-0.8463,-0.7916,-0.7514,-0.7242,-0.6456,-0.5545,-0.4632,-0.3581,-0.2584,-0.1674,-0.157,-0.1619,-0.1991,-0.2973,-0.3765,-0.4435,0.0,0.0,0.0,0.0,0.0,0.0,0.0,0.0,0.0,0.0,-0.1099,-0.0236,0.0157,0.0,0.0,0.0,0.0,0.0,0.3621,0.4017,0.441,0.4634,0.5622,0.6349,0.5874,0.0,0.0,0.0,0.0,0.0,0.0,0.0,-0.054,-0.1242,0.0,-0.1047,-0.0349,0.0569,0.1223,0.0,0.0,0.2493,0.2423,0.2676,0.2711,0.2157,0.1823,0.1244,0.0261,-0.068,-0.1429,-0.1934,-0.2828,-0.3378,-0.3464,-0.3575,-0.3783,-0.3998,-0.4284,-0.4476,-0.4573,-0.4573,-0.4922,-0.5611,0.0,-0.7041,-0.8131,-0.8496,-0.8752,-0.891,-0.8568,-0.8046,-0.7297,-0.6814,-0.661,-0.6685,0.0,0.0,0.0,0.0,0.0,0.0,0.0,0.0,0.0,0.0,0.0,0.0,0.0,0.0,0.0,0.0,0.0,0.0,0.0,0.0,-0.4844,-0.4745,-0.4325,-0.4795,-0.6296,-0.5512,-0.4894,-0.4504,-0.3645,-0.2933,-0.229,-0.1463,-0.1147,-0.1249,-0.1808,-0.2561,-0.3443,-0.4766,-0.5715,-0.6408,0.0,0.0,0.0,0.0,0.0,0.0,0.0,0.0,0.0,0.0,0.0,0.0,0.0,0.0,0.0,0.1524,0.2104,0.2624,0.2642,0.2853,0.2967,0.2764,0.0,0.4791,0.4129,0.0,0.0,0.0,0.0,0.0,0.0,-0.0748,0.0,-0.1143,-0.092,-0.0345,0.046,0.1341,0.1956,0.2135,0.2613,0.285,0.2756,0.2919,0.275,0.1982,0.1422,0.0694,-0.0415,-0.149,-0.2229,-0.2546,-0.3318,-0.3752,-0.3752,-0.4008,-0.4154,-0.4168,-0.4374,-0.456,-0.4537,-0.4447,-0.4774,-0.5333,-0.5773,-0.634,-0.7118,-0.7556,-0.7741,-0.762,-0.7582,-0.7047,-0.6443,-0.6379,-0.6446,-0.6636,0.0,0.0,0.0,0.0,0.0,0.0,0.0,0.0,0.0,0.0,0.0,0.0,0.0,0.0,0.0,0.0,0.0,0.0,0.0,0.0,-0.3402,-0.3092,-0.2422,-0.2636,-0.3866,-0.2757,-0.1861,-0.1134,-0.06,-0.0068,0.0349,0.0,-0.0589,-0.1357,-0.2471,-0.3671,-0.4937,-0.6616,-0.7663,-0.83,-0.9068,0.0,0.0,0.0,0.0,0.0,0.0,0.0,0.0,0.0,0.0,0.0,0.0,0.0,0.0943,0.126,0.1839,0.2287,0.2092,0.231,0.2534,0.2321,0.2456,0.0,0.2307,0.1542,0.0,-0.0302,0.0,0.0,0.0,-0.1679,-0.126,-0.0919,-0.023,0.0575,0.115,0.0,0.2282,0.2563,0.2687,0.2809,0.2752,0.2847,0.2667,0.1977,0.1383,0.0496,-0.0948,-0.1734,-0.2497,-0.3208,-0.3663,-0.3908,-0.3908,-0.3999,-0.4055,-0.399,-0.4161,-0.4241,-0.4322,-0.4157,-0.4324,-0.4737,-0.5068,-0.5479,-0.5972,-0.6219,-0.6466,-0.6529,-0.6231,-0.5778,-0.5454,-0.6113,-0.6376,-0.6582,0.0,0.0,0.0,0.0,0.0,0.0,0.0,0.0,0.0,0.0,0.0,0.0,0.0,0.0,0.0,0.0,0.0,0.0,0.0,0.0,-0.2281,-0.1467,-0.0742,-0.0216,-0.0071,0.0136,0.0466,0.087,0.0938,0.1021,0.0981,0.0144,-0.0738,-0.1588,-0.3019,-0.4567,-0.606,-0.7613,-0.8783,-0.9614,-0.9861,-0.9535,0.0,0.0,0.0,0.0,0.0,0.0,0.0,0.0,-0.1995,-0.1152,-0.0691,-0.0155,0.0393,0.0628,0.0948,0.1203,0.1167,0.127,0.1375,0.1245,0.1195,0.0,0.0,0.039,-0.0404,-0.133,-0.157,0.0,0.0,0.0,-0.0345,0.0345,0.092,0.1375,0.1814,0.2311,0.2663,0.2688,0.2922,0.2939,0.2659,0.2677,0.2418,0.1471,0.0911,0.0079,-0.123,-0.1889,-0.2536,-0.318,-0.3541,-0.365,-0.365,-0.3816,-0.3988,-0.4011,-0.4374,-0.4571,-0.4696,-0.4782,-0.4868,-0.5118,-0.5202,-0.5368,-0.5532,-0.5699,-0.5653,-0.549,-0.5283,-0.5126,-0.519,-0.593,-0.628,-0.6485,0.0,0.0,0.0,0.0,0.0,0.0,0.0,0.0,0.0,0.0,0.0,0.0,0.0,0.0,0.0,0.0,0.0,0.0,-0.2266,-0.1965,-0.1419,-0.0536,0.0294,0.1149,0.2008,0.2053,0.2272,0.2681,0.2284,0.1909,0.1541,0.0288,-0.0808,-0.1718,-0.3444,-0.512,-0.6641,-0.8229,-0.9394,-1.0253,-1.0316,-0.9868,0.0,0.0,0.0,0.0,0.0,0.0,0.0,0.0,-0.236,-0.1441,-0.0994,-0.0465,0.0079,0.0236,0.0471,0.0635,0.0666,0.0674,0.0682,0.0,0.0,0.0,0.0288,-0.0299,-0.1133,-0.2086,-0.2015,0.0,0.0,0.0,0.0,0.0,0.2134,0.2573,0.2764,0.3229,0.3448,0.3342,0.3357,0.316,0.2852,0.2699,0.2264,0.1242,0.064,-0.0154,-0.1408,-0.205,-0.2684,-0.3241,-0.3413,-0.3499,-0.357,-0.3852,-0.4073,-0.4297,-0.4756,-0.4981,-0.5058,-0.514,-0.522,-0.522,-0.5143,-0.5063,-0.4983,-0.4983,-0.48,-0.4602,-0.4562,-0.4698,-0.5107,-0.5725,-0.6135,-0.6499,0.0,0.0,0.0,0.0,0.0,0.0,0.0,0.0,0.0,0.0,0.0,0.0,0.0,0.0,0.0,0.0,0.0,0.0,-0.2149,-0.1588,-0.0992,-0.0364,0.0426,0.112,0.1887,0.2719,0.3551,0.4287,0.3558,0.2863,0.2169,0.0575,-0.0728,-0.182,-0.3655,-0.5347,-0.6821,-0.8449,-0.9614,-1.0187,-1.0518,-0.9979,-0.8896,0.0,0.0,0.0,0.0,0.0,0.0,0.0,-0.2469,-0.1598,-0.1092,-0.0471,0.0,0.0236,0.0471,0.0635,0.0666,0.0674,0.0,0.0,0.0,0.0,0.0098,-0.0717,-0.1491,-0.2451,0.0,-0.1305,0.0107,0.0,0.0,0.2451,0.3515,0.4259,0.4259,0.4404,0.453,0.4446,0.4096,0.3658,0.3238,0.299,0.2368,0.1343,0.0628,-0.0304,-0.1549,-0.2224,-0.2875,-0.3365,-0.3448,-0.3566,-0.3779,-0.3926,-0.429,-0.4942,-0.5228,-0.5297,-0.5081,-0.5081,-0.5081,-0.5081,-0.4723,-0.4364,-0.4003,-0.3855,-0.384,-0.3938,-0.4037,-0.4462,-0.5015,-0.5382,-0.591,-0.6515,0.0,0.0,0.0,0.0,0.0,0.0,0.0,0.0,0.0,0.0,0.0,0.0,0.0,0.0,0.0,0.0,0.0,0.0,-0.2937,-0.23,-0.1665,-0.1016,-0.0567,-0.007,0.0418,0.1356,0.2474,0.3754,0.2889,0.2183,0.1541,0.0141,-0.1001,-0.1964,-0.3661,-0.5107,-0.6508,-0.7983,-0.9238,-1.0235,-1.0073,-0.9756,-0.9091,0.0,0.0,0.0,0.0,0.0,0.0,0.0,0.0,0.0,-0.1299,-0.0775,-0.0393,0.0,0.0157,0.0159,0.0166,0.0337,0.0,0.0547,0.0,0.0,0.0,-0.0203,0.0,0.0,-0.0428,0.0428,0.213,0.0,0.0,0.4358,0.4784,0.5059,0.5135,0.5196,0.5092,0.467,0.4451,0.4041,0.3354,0.2899,0.2233,0.1075,0.037,-0.0575,-0.1755,-0.2179,-0.2667,-0.3304,-0.3333,-0.3472,-0.3806,-0.4138,-0.4515,-0.508,-0.5379,-0.5634,-0.5731,-0.5871,-0.5875,-0.5731,-0.53,-0.487,-0.4364,-0.3787,-0.3586,-0.3614,-0.3786,-0.4239,-0.4856,-0.53,-0.5927,-0.6599,0.0,0.0,0.0,0.0,0.0,0.0,0.0,0.0,0.0,0.0,0.0,0.0,0.0,0.0,0.0,0.0,0.0,0.0,0.0,-0.3374,-0.2872,-0.2417,-0.2265,-0.1981,-0.157,-0.1006,-0.0133,0.1066,0.1608,0.1559,0.0965,-0.0418,-0.1534,-0.2427,-0.392,-0.5303,-0.6475,-0.765,-0.8798,-0.973,-0.9374,-0.902,-0.8521,0.0,0.0,0.0,0.0,0.0,0.0,0.0,0.0,0.0,-0.1379,0.0,-0.0628,-0.0236,-0.0157,-0.0079,0.0,0.0,0.0,0.0547,0.0752,0.0959,0.088,0.0,0.0,0.0,0.0,0.1748,0.3468,0.3974,0.0,0.5394,0.5802,0.5957,0.6116,0.6097,0.5984,0.5408,0.5228,0.4724,0.3619,0.2948,0.2147,0.0872,-0.014,-0.1093,-0.2072,-0.2454,-0.2847,-0.3414,-0.3354,-0.3534,-0.3977,-0.429,-0.4709,-0.5243,-0.5461,-0.5698,-0.5993,-0.6056,-0.5989,-0.5727,-0.5105,-0.4648,-0.4171,-0.3699,-0.3516,-0.3589,-0.3695,-0.4217,-0.4818,-0.5116,-0.5773,-0.6486,0.0,0.0,0.0,0.0,0.0,0.0,0.0,0.0,0.0,0.0,0.0,0.0,0.0,0.0,0.0,0.0,0.0,0.0,0.0,0.0,-0.4583,-0.4276,-0.4519,-0.4449,-0.4111,-0.4101,-0.3835,-0.3181,-0.0466,0.067,0.0134,-0.1306,-0.2366,-0.3143,-0.4608,-0.5758,-0.6737,-0.7575,-0.8325,-0.8845,-0.8503,-0.8008,-0.7396,-0.6162,0.0,0.0,0.0,0.0,0.0,0.0,0.0,0.0,-0.133,-0.1102,-0.0786,-0.0394,-0.0315,-0.0238,0.0,0.0,0.0,0.082,0.1127,0.0,0.1655,0.1089,0.0898,0.1962,0.0,0.2811,0.4279,0.4825,0.5197,0.5954,0.6517,0.6889,0.706,0.715,0.6955,0.6495,0.6104,0.5395,0.3927,0.31,0.2008,0.054,-0.0734,-0.176,-0.2473,-0.2887,-0.3308,-0.3671,-0.3661,-0.3843,-0.4336,-0.4585,-0.4897,-0.5404,-0.5562,-0.5675,-0.5864,-0.588,-0.5707,-0.529,-0.443,-0.3911,-0.3608,-0.3461,-0.3466,-0.3615,-0.3768,-0.4237,-0.4893,-0.4893,-0.5538,-0.6354,0.0,0.0,0.0,0.0,0.0,0.0,0.0,0.0,0.0,0.0,0.0,0.0,0.0,0.0,0.0,0.0,0.0,0.0,0.0,0.0,-0.6964,-0.6453,-0.7026,-0.7316,-0.7154,-0.726,-0.7108,-0.6698,-0.3687,-0.2195,-0.2199,-0.3347,-0.4151,-0.4655,-0.5713,-0.6519,-0.7079,-0.7426,-0.7991,-0.8576,-0.8042,-0.7747,-0.744,-0.6194,-0.5217,0.0,0.0,0.0,0.0,0.0,0.0,0.0,-0.1123,-0.0957,-0.0867,-0.0482,-0.0319,-0.0238,0.0166,0.0505,0.0,0.0,0.1785,0.2374,0.2818,0.3099,0.3212,0.3056,0.3591,0.4477,0.5755,0.6221,0.6604,0.7234,0.7417,0.7464,0.7425,0.7236,0.6953,0.6483,0.5866,0.5048,0.3793,0.2564,0.1294,-0.026,-0.1333,-0.2307,-0.3081,-0.3251,-0.3561,-0.4033,-0.3992,-0.4213,-0.4786,-0.4969,-0.521,-0.5574,-0.5557,-0.5556,-0.551,-0.57,-0.54,-0.4793,-0.4271,-0.3853,-0.3489,-0.3342,-0.3403,-0.3593,-0.3663,-0.4145,-0.4826,-0.4826,-0.5418,-0.6213,0.0,0.0,0.0,0.0,0.0,0.0,0.0,0.0,0.0,0.0,0.0,0.0,0.0,0.0,0.0,0.0,0.0,0.0,0.0,0.0,-0.9125,-0.8902,-0.9612,-1.0058,-1.0138,-1.0595,-1.067,-1.0363,-0.8912,-0.718,-0.5123,-0.6047,-0.6612,-0.6936,-0.7598,-0.7985,-0.8176,-0.8062,-0.8127,-0.8328,-0.7756,-0.7428,-0.7106,-0.5919,-0.5056,-0.4382,-0.3088,0.0,0.0,0.0,0.0,0.0,0.0,0.0,-0.1182,-0.0877,-0.0714,-0.0475,0.0082,0.0,0.0,0.1821,0.0,0.3053,0.3513,0.4004,0.4497,0.4811,0.5133,0.5789,0.6789,0.709,0.7323,0.7666,0.7514,0.7349,0.726,0.7167,0.6837,0.6207,0.5647,0.48,0.3313,0.2045,0.0655,-0.0927,-0.194,-0.2866,-0.3592,-0.3708,-0.396,-0.4415,-0.4396,-0.4556,-0.4971,-0.5091,-0.525,-0.5451,-0.5474,-0.5321,-0.5042,-0.5009,-0.4697,-0.4235,-0.3825,-0.3493,-0.3255,-0.3243,-0.3354,-0.3643,-0.3773,-0.4279,-0.4967,-0.503,-0.5501,-0.6165,0.0,0.0,0.0,0.0,0.0,0.0,0.0,0.0,0.0,0.0,0.0,0.0,0.0,0.0,0.0,0.0,0.0,0.0,0.0,0.0,0.0,-1.1263,-1.1978,-1.2506,-1.291,-1.3714,-1.4015,-1.3884,-1.4185,0.0,0.0,0.0,-0.9537,-0.9654,-0.9876,-0.9941,-0.9721,-0.9154,-0.8847,-0.8572,-0.7887,-0.7431,-0.7111,-0.5978,-0.53,-0.4764,-0.3644,-0.3115,-0.2797,-0.2052,0.0,0.0,0.0,0.0,-0.173,-0.1421,-0.1182,-0.079,0.0,0.0,0.1544,0.2529,0.3069,0.0,0.4095,0.4614,0.5256,0.6339,0.6492,0.678,0.7542,0.7697,0.7729,0.77,0.7338,0.7091,0.6859,0.6783,0.6482,0.5708,0.524,0.4306,0.2667,0.1381,0.0064,-0.1478,-0.2512,-0.3337,-0.3971,-0.4135,-0.4411,-0.4743,-0.4743,-0.4908,-0.5128,-0.5128,-0.5183,-0.5297,-0.5297,-0.5077,-0.4688,-0.4304,-0.4024,-0.3691,-0.3397,-0.3147,-0.2978,-0.3118,-0.3401,-0.3716,-0.4002,-0.455,-0.5108,-0.5206,-0.5616,-0.6033,0.0,0.0,0.0,0.0,0.0,0.0,0.0,0.0,0.0,0.0,0.0,0.0,0.0,0.0,0.0,0.0,0.0,0.0,-1.5022,0.0,0.0,-1.327,-1.3513,-1.4096,-1.4993,-1.5726,-1.6285,-1.6648,0.0,0.0,0.0,0.0,0.0,-1.252,0.0,-1.2182,-1.1519,-1.0913,-1.0437,-1.006,-0.9285,-0.8726,-0.8354,-0.7414,-0.6672,-0.6102,-0.5216,-0.4643,-0.4223,-0.3396,-0.3042,0.0,0.0,0.0,-0.2285,-0.1688,-0.1436,-0.1027,0.0,0.0,0.2515,0.0,0.3843,0.4446,0.0,0.0,0.6028,0.0,0.6774,0.7202,0.8048,0.8241,0.813,0.7594,0.7398,0.7021,0.6379,0.6006,0.5542,0.4937,0.4019,0.2996,0.1882,0.0486,-0.0774,-0.1824,-0.2805,-0.354,-0.3968,-0.4298,-0.457,-0.4846,-0.5014,-0.5128,-0.5297,-0.5297,-0.5297,-0.5297,-0.5183,-0.4963,-0.4688,-0.4245,-0.3802,-0.3413,-0.3095,-0.2878,-0.2763,-0.2999,-0.3397,-0.3826,-0.4068,-0.4549,-0.5107,-0.5136,-0.5459,-0.5921,0.0,0.0,0.0,0.0,0.0,0.0,0.0,0.0,0.0,0.0,0.0,0.0,0.0,0.0,0.0,-2.0591,-1.903,-1.7495,-1.6126,-1.5364,-1.4923,-1.4864,-1.525,-1.5725,-1.6301,-1.7024,-1.7633,-1.8093,0.0,0.0,0.0,-1.7693,-1.649,0.0,0.0,0.0,0.0,-1.2905,-1.2203,-1.1631,-1.0826,-1.035,-0.9869,0.0,-0.8396,-0.7895,-0.7056,-0.6616,-0.6288,-0.5414,-0.4938,-0.4603,-0.411,0.0,0.0,0.0,-0.2055,0.0,0.0404,0.1734,0.2772,0.0,0.4257,0.4935,0.5616,0.0,0.6228,0.6965,0.7043,0.7198,0.8027,0.8129,0.7883,0.7298,0.6835,0.6234,0.55,0.502,0.4528,0.3847,0.3134,0.2266,0.1268,0.0178,-0.0817,-0.1832,-0.2597,-0.3246,-0.3855,-0.4187,-0.4467,-0.4794,-0.4904,-0.5014,-0.5069,-0.5069,-0.5069,-0.5069,-0.5014,-0.4849,-0.4574,-0.4187,-0.3802,-0.3357,-0.3026,-0.286,-0.2802,-0.3021,-0.3327,-0.371,-0.399,-0.4396,-0.4893,-0.4986,-0.528,-0.5734,0.0,0.0,0.0,0.0,0.0,0.0,0.0,0.0,0.0,0.0,0.0,0.0,0.0,0.0,0.0,0.0,-2.0404,-1.8787,-1.714,-1.7012,-1.6714,-1.6232,-1.6653,-1.7015,-1.7168,-1.7765,-1.8267,0.0,0.0,0.0,-1.9926,-2.0105,-1.9465,0.0,-1.7535,0.0,0.0,0.0,0.0,0.0,0.0,0.0,0.0,0.0,0.0,0.0,0.0,0.0,0.0,0.0,0.0,0.0,0.0,-0.5146,0.0,0.0,0.0,0.0,0.0,0.0,0.3017,0.3975,0.4736,0.5391,0.0,0.0,0.6431,0.0,0.6918,0.6933,0.7522,0.764,0.7414,0.6882,0.6282,0.5579,0.4753,0.4317,0.3795,0.2924,0.2375,0.1745,0.0875,0.0058,-0.0748,-0.1514,-0.2184,-0.28,-0.3466,-0.3802,-0.4135,-0.4522,-0.4625,-0.4732,-0.4791,-0.4791,-0.4791,-0.4791,-0.4846,-0.4736,-0.4519,-0.419,-0.3858,-0.3413,-0.3084,-0.2916,-0.2916,-0.3021,-0.3299,-0.3638,-0.3858,-0.4187,-0.4522,-0.4625,-0.4949,-0.5381,0.0,0.0,0.0,0.0,0.0,0.0,0.0,0.0,0.0,0.0,0.0,0.0,-2.4437,-2.4118,-2.3642,-2.3046,-2.2165,-2.0734,-1.8636,-1.8289,-1.7952,-1.734,-1.749,0.0,-1.7655,-1.7929,-1.8159,0.0,0.0,0.0,-1.9798,-2.0446,-2.0759,-2.0759,-1.9762,-1.9052,-1.846,0.0,0.0,0.0,0.0,0.0,0.0,0.0,0.0,0.0,0.0,0.0,0.0,0.0,0.0,0.0,0.0,-0.6765,-0.5535,0.0,0.0,0.0,0.0,0.2394,0.0,0.4622,0.0,0.0,0.0,0.0,0.6533,0.6447,0.642,0.6437,0.6506,0.6825,0.6819,0.6246,0.5879,0.5385,0.4556,0.4007,0.3406,0.2545,0.1886,0.1338,0.0733,0.0056,-0.0562,-0.0898,-0.1624,-0.224,-0.2747,-0.319,-0.3635,-0.4024,-0.4181,-0.4346,-0.4515,-0.4515,-0.4515,-0.4515,-0.4632,-0.4632,-0.4519,-0.4301,-0.3971,-0.3583,-0.3084,-0.2916,-0.2916,-0.3021,-0.3299,-0.3638,-0.3744,-0.391,-0.4021,-0.4021,-0.4336,-0.4749,0.0,0.0,0.0,0.0,0.0,0.0,0.0,0.0,0.0,0.0,0.0,0.0,0.0,-2.6185,-2.5614,-2.4543,-2.2738,-2.126,-2.0285,-1.9936,-1.9557,-1.9012,-1.8706,-1.8272,-1.771,-1.7501,0.0,0.0,0.0,-1.8845,-1.9436,-2.0093,-2.0646,-2.1006,-2.0795,-2.0471,-2.0004,-1.9374,0.0,0.0,0.0,0.0,0.0,0.0,0.0,0.0,0.0,0.0,0.0,0.0,0.0,0.0,-0.968,-0.8253,-0.6608,-0.4059,0.0,0.0,0.0,0.0,0.0,0.474,0.5416,0.5997,0.6293,0.6361,0.6447,0.6535,0.6246,0.6062,0.6207,0.6384,0.6348,0.6028,0.5661,0.5112,0.4374,0.383,0.3173,0.2397,0.1826,0.1364,0.0898,0.0393,-0.0056,-0.0449,-0.1065,-0.1681,-0.224,-0.2689,-0.3079,-0.3411,-0.3405,-0.3347,-0.3347,-0.3405,-0.3516,-0.363,-0.3849,-0.3965,-0.3913,-0.3747,-0.3469,-0.3026,-0.2633,-0.2635,-0.2916,-0.297,-0.3079,-0.3299,-0.3352,-0.3466,-0.3635,-0.3635,-0.3887,-0.4263,0.0,0.0,0.0,0.0,0.0,0.0,0.0,0.0,0.0,0.0,0.0,0.0,0.0,0.0,-2.6839,-2.5603,-2.3815,-2.2495,-2.1906,-2.1579,-2.1069,-2.028,-1.9698,-1.8874,-1.782,-1.7234,-1.6899,0.0,0.0,0.0,0.0,-1.9451,-2.0131,-2.0696,-2.1104,-2.1166,0.0,0.0,0.0,-1.9242,0.0,0.0,-1.6978,0.0,0.0,0.0,0.0,0.0,0.0,0.0,0.0,0.0,0.0,-0.9065,-0.6608,-0.3746,0.0,0.0,0.1723,0.0,0.0,0.0,0.0,0.6415,0.6485,0.0,0.6557,0.6507,0.6195,0.5913,0.5988,0.5963,0.587,0.5683,0.5262,0.4833,0.4246,0.3647,0.3021,0.2294,0.185,0.1459,0.101,0.0617,0.0224,-0.0112,-0.0673,-0.1289,-0.1849,-0.2186,-0.2465,-0.2685,-0.2571,-0.2514,-0.2402,-0.2458,-0.2613,-0.2749,-0.3021,-0.3132,-0.3137,-0.3025,-0.2768,-0.2408,-0.2127,-0.224,-0.2577,-0.2635,-0.28,-0.2965,-0.3019,-0.3132,-0.3249,-0.3249,-0.3413,-0.3744,0.0,0.0,0.0,0.0,0.0,0.0,0.0,0.0,0.0,-2.6435,0.0,0.0,0.0,0.0,0.0,-2.6235,-2.5472,-2.4582,-2.3503,-2.3192,-2.2408,-2.1007,-2.028,-1.927,-1.7961,-1.7179,-1.6524,0.0,0.0,0.0,0.0,0.0,-1.9411,-1.9991,-2.0696,-2.1104,-2.1361,0.0,-2.0835,-2.0182,0.0,-1.8804,-1.8118,0.0,0.0,0.0,-1.7436,-1.7232,0.0,-1.62,0.0,0.0,0.0,-0.915,-0.5517,-0.3659,0.0,0.0,0.0,0.0,0.0,0.0,0.0,0.0,0.6961,0.0,0.703,0.6519,0.6284,0.6079,0.5683,0.5484,0.5304,0.5148,0.4882,0.4559,0.4065,0.3483,0.2907,0.2294,0.185,0.1459,0.1122,0.0673,0.028,0.0,-0.0561,-0.1122,-0.1572,-0.1685,-0.1794,-0.1734,-0.1734,-0.1734,-0.1734,-0.1734,-0.1815,-0.1965,-0.2126,-0.2179,-0.2179,-0.2179,-0.2005,-0.1734,-0.1621,-0.1734,-0.1959,-0.2127,-0.2408,-0.2689,-0.2852,-0.291,-0.2916,-0.2916,-0.297,-0.313,0.0,0.0,0.0,0.0,0.0,0.0,-2.4662,-2.5798,-2.6889,0.0,0.0,0.0,-2.9445,-2.876,-2.8005,-2.7458,-2.6188,-2.5247,-2.4796,-2.406,-2.3268,-2.2468,-2.1192,-1.98,-1.837,-1.7202,-1.6343,0.0,0.0,0.0,0.0,0.0,0.0,0.0,-1.9901,-2.0359,-2.0673,-2.0934,0.0,0.0,-1.9901,-1.9564,0.0,0.0,0.0,0.0,0.0,-1.7879,-1.7707,0.0,-1.5652,-1.3902,0.0,0.0,0.0,0.0,0.0,0.0,0.2447,0.0,0.0,0.0,0.0,0.0,0.0,0.0,0.707,0.6688,0.6482,0.6284,0.6079,0.5661,0.5339,0.5181,0.4877,0.4559,0.4185,0.3656,0.3132,0.2633,0.2073,0.1569,0.1122,0.0673,0.0224,0.0,-0.0617,-0.1066,-0.1347,-0.1347,-0.1122,-0.0784,-0.0672,-0.0616,-0.0504,-0.0672,-0.0881,-0.1064,-0.1278,-0.1384,-0.1384,-0.1331,-0.1085,-0.0784,-0.0728,-0.0784,-0.0896,-0.1623,-0.2015,-0.224,-0.2631,-0.2802,-0.2916,-0.2916,-0.297,-0.313,0.0,0.0,0.0,0.0,0.0,-2.3507,-2.4474,-2.5655,-2.6842,0.0,0.0,0.0,-3.009,-2.9513,-2.8909,-2.8474,-2.7434,-2.6621,-2.6185,-2.5307,-2.4411,-2.3573,-2.208,-2.0515,-1.8972,-1.7611,-1.6662,0.0,0.0,0.0,-1.6853,-1.7523,0.0,0.0,0.0,0.0,0.0,0.0,0.0,0.0,-2.0271,0.0,0.0,-1.9502,-1.9332,0.0,0.0,0.0,-1.7858,-1.6983,-1.5257,0.0,0.0,0.0,0.0,0.0,0.0,0.0,0.0,0.0,0.0,0.0,0.0,0.0,0.7574,0.7466,0.7269,0.0,0.6679,0.6457,0.6124,0.577,0.5439,0.521,0.4879,0.4591,0.4161,0.368,0.319,0.2689,0.2071,0.1455,0.0841,0.0393,-0.0056,-0.0561,-0.0898,-0.1122,-0.1234,-0.0954,-0.0617,-0.0224,-0.0056,0.0112,0.0168,-0.0056,-0.022,-0.0266,-0.0524,-0.0577,-0.0532,-0.0472,-0.0321,-0.0168,-0.0224,-0.028,-0.0449,-0.1288,-0.1736,-0.1959,-0.2521,-0.2802,-0.3026,-0.314,-0.319,-0.3244,0.0,0.0,-2.2077,-2.2077,-2.2526,-2.3187,-2.4044,-2.5223,-2.6404,0.0,-2.8476,-2.9306,0.0,-2.995,-2.9713,-2.928,-2.8777,-2.8201,-2.7554,-2.6639,-2.5615,-2.4507,-2.2981,-2.1397,-1.9711,-1.8454,-1.7302,0.0,0.0,0.0,0.0,0.0,0.0,0.0,0.0,0.0,0.0,0.0,0.0,-2.0788,-2.0485,-2.0346,0.0,0.0,-1.992,-1.9489,-1.9264,-1.8445,-1.7396,-1.6421,-1.4213,0.0,0.0,0.0,0.0,0.0,-0.0431,0.0,0.0,0.0,0.0,0.0,0.0,0.0,0.8032,0.7727,0.747,0.0,0.6793,0.653,0.6054,0.5738,0.5489,0.5199,0.4908,0.4562,0.4095,0.3635,0.3132,0.2521,0.1903,0.1231,0.0392,-0.0056,-0.0561,-0.1122,-0.129,-0.1234,-0.1066,-0.0617,-0.028,0.0,0.028,0.0393,0.0393,0.028,0.022,0.0266,0.0103,0.0103,0.0264,0.0205,0.0209,0.0167,0.0056,-0.0167,-0.0502,-0.106,-0.1505,-0.1836,-0.2506,-0.2888,-0.3152,-0.3487,-0.355,-0.345,0.0,0.0,-2.2709,-2.2572,-2.2754,-2.3143,-2.3864,-2.4863,-2.5938,-2.7065,-2.85,0.0,0.0,0.0,0.0,-2.9551,-2.9129,-2.8676,-2.8148,-2.7352,-2.6404,-2.5399,-2.3902,-2.2433,-2.0882,-1.9519,-1.8412,-1.7523,0.0,0.0,0.0,0.0,0.0,0.0,0.0,0.0,0.0,0.0,0.0,-2.0156,-2.0093,0.0,-2.0328,-1.9821,-1.9518,-1.9155,-1.8424,-1.7791,-1.704,-1.536,-1.3582,-1.1659,0.0,0.0,0.0,-0.2443,0.0,0.0,0.0,0.0,0.0,0.0,0.0,0.0,0.7405,0.7204,0.6946,0.0,0.6557,0.6502,0.6215,0.5848,0.5518,0.5397,0.4989,0.4556,0.4196,0.3577,0.2907,0.2352,0.1513,0.0729,0.0,-0.0617,-0.1121,-0.1623,-0.157,-0.1347,-0.0954,-0.0505,-0.0112,0.0168,0.0336,0.0393,0.0393,0.028,0.022,0.0213,0.0053,0.0052,0.0204,0.0202,0.0207,0.0161,-0.0054,-0.0376,-0.0753,-0.1292,-0.1667,-0.1879,-0.2574,-0.3059,-0.3343,-0.3499,-0.3611,-0.3699,0.0,-2.393,-2.342,-2.3098,-2.3098,-2.3319,-2.3837,-2.4721,-2.5737,0.0,0.0,0.0,0.0,0.0,0.0,0.0,0.0,-2.8948,-2.8615,-2.7929,-2.712,-2.6235,-2.4844,-2.3411,-2.1992,-2.065,-1.9544,-1.8596,0.0,0.0,0.0,0.0,0.0,0.0,0.0,0.0,0.0,0.0,-1.9775,-1.9926,-1.9978,0.0,-2.0177,-1.9658,-1.9298,-1.8928,-1.8201,-1.7256,-1.6205,-1.4778,-1.3335,0.0,0.0,-0.7585,-0.5138,0.0,0.0,0.2496,0.0,0.0,0.0,0.7632,0.0,0.0,0.0,0.6671,0.6412,0.6218,0.627,0.6241,0.5964,0.5731,0.5526,0.5389,0.5016,0.4629,0.419,0.3466,0.2683,0.1846,0.1008,0.0112,-0.0784,-0.1288,-0.1681,-0.1959,-0.1793,-0.1513,-0.101,-0.0561,-0.0224,0.0,0.0112,0.0224,0.0224,0.0056,0.0056,0.0109,-0.0054,-0.0053,0.0104,0.0051,0.0,-0.0052,-0.0414,-0.0726,-0.1089,-0.1711,-0.2101,-0.2321,-0.2822,-0.327,-0.367,-0.392,-0.4111,-0.4288,-2.5334,0.0,-2.4302,-2.3779,-2.3623,-2.3666,-2.3964,-2.4792,-2.5746,0.0,0.0,0.0,0.0,0.0,0.0,0.0,0.0,0.0,0.0,0.0,-2.8229,-2.7471,-2.6066,-2.4641,-2.3333,-2.1937,-2.0739,-1.9774,-1.9463,0.0,0.0,0.0,0.0,0.0,0.0,0.0,0.0,0.0,0.0,-1.9862,0.0,-1.985,-1.9703,-1.9404,-1.8965,-1.85,-1.7708,-1.6598,-1.5283,-1.4451,-1.3365,-1.2181,-1.0358,-0.8231,0.0,0.0,0.0,0.0,0.0,0.0,0.0,0.0,0.0,0.6221,0.0,0.0,0.0,0.569,0.5792,0.586,0.0,0.0,0.0,0.5317,0.0,0.0,0.0,0.3128,0.0,0.1241,0.0339,-0.0622,-0.1639,-0.2023,-0.2189,-0.2261,-0.1965,-0.1568,-0.1122,-0.0729,-0.0449,-0.0336,-0.028,-0.0224,-0.0224,-0.0392,-0.0392,-0.028,-0.0436,-0.0427,-0.0211,-0.0358,-0.0452,-0.0499,-0.0848,-0.1197,-0.1497,-0.2093,-0.2582,-0.2929,-0.3137,-0.351,-0.3979,-0.4368,-0.4618,-0.4766,-2.6678,-2.5988,0.0,-2.4808,-2.4436,-2.4261,-2.4508,-2.502,-2.6125,0.0,0.0,0.0,0.0,0.0,0.0,0.0,0.0,0.0,-3.126,0.0,0.0,-2.9757,-2.7998,-2.6477,-2.5378,-2.3437,-2.209,-2.1459,-2.0868,-2.0557,0.0,0.0,0.0,0.0,-2.0604,0.0,0.0,0.0,-2.0169,0.0,-1.9629,-1.9247,0.0,-1.8534,-1.8011,-1.7242,-1.6042,-1.5243,-1.4676,0.0,-1.3514,-1.2761,0.0,-0.8943,-0.6903,-0.4053,0.0,0.0,0.0,0.0,0.0,0.0,0.4429,0.0,0.0,0.0,0.435,0.4691,0.0,0.0,0.0,0.0,0.0,0.0,0.0,0.0,0.3342,0.2232,0.1243,0.064,-0.0467,-0.1461,-0.2222,-0.2622,-0.2723,-0.257,-0.2107,-0.1568,-0.1122,-0.0954,-0.0842,-0.0842,-0.0898,-0.101,-0.1178,-0.1344,-0.1344,-0.1178,-0.1338,-0.1294,-0.1065,-0.1062,-0.1139,-0.1199,-0.1343,-0.1631,-0.1968,-0.2396,-0.2851,-0.3347,-0.3572,-0.383,-0.4122,-0.4466,-0.4625,-0.4716,-2.7403,-2.677,0.0,0.0,-2.5783,-2.5702,-2.6138,-2.6928,0.0,0.0,0.0,0.0,0.0,0.0,0.0,0.0,0.0,-3.0843,0.0,0.0,0.0,-3.035,-2.9041,-2.7881,-2.6961,-2.5441,-2.4192,-2.3198,-2.2552,-2.187,0.0,0.0,0.0,0.0,-2.139,0.0,-2.1118,0.0,-2.0372,0.0,0.0,0.0,0.0,-1.7871,-1.6989,-1.5924,-1.5178,-1.473,-1.4404,0.0,-1.357,0.0,0.0,0.0,0.0,0.0,0.0,0.0,0.0,0.0,0.0,0.0,0.0,0.0,0.246,0.0,0.3203,0.0,0.0,0.0,0.0,0.0,0.0,0.0,0.446,0.0,0.0,0.0,0.0462,-0.0234,0.0,0.0,-0.3073,-0.3164,-0.3075,-0.2821,-0.2206,-0.1714,-0.1404,-0.1234,-0.1233,-0.14,-0.1624,-0.1847,-0.2125,-0.2293,-0.2347,-0.2347,-0.2347,-0.2212,-0.1965,-0.1813,-0.1707,-0.1611,-0.1748,-0.1934,-0.2165,-0.2575,-0.3002,-0.3448,-0.3778,-0.4118,-0.4408,-0.4714,-0.4884,-0.4943,-2.83,0.0,0.0,0.0,-2.723,-2.7192,-2.7616,-2.8577,0.0,0.0,0.0,0.0,-3.1729,-3.0937,0.0,0.0,-3.1385,-3.1196,0.0,0.0,-3.1608,0.0,0.0,0.0,0.0,-2.7174,-2.5918,-2.4672,-2.4036,-2.3115,0.0,0.0,0.0,0.0,0.0,-2.1746,-2.1361,0.0,-2.0472,-1.9939,-1.9396,-1.8637,-1.7679,-1.7157,-1.6164,-1.5017,-1.4645,-1.4385,-1.4185,-1.3902,-1.366,0.0,-1.21,0.0,0.0,0.0,0.0,0.0,-0.2531,0.0,0.0,0.0,0.0,0.0,0.0,0.0,0.0,0.0,0.0,0.0,0.0,0.0,0.0,0.0,0.0,0.3347,0.0,0.1084,0.0,0.0,0.0,0.0,0.0,-0.3604,-0.3355,-0.3038,-0.2422,-0.1915,-0.1687,-0.1515,-0.1626,-0.1959,-0.2294,-0.2629,-0.307,-0.3292,-0.3385,-0.3351,-0.3356,-0.3081,-0.2726,-0.2526,-0.2247,-0.2016,-0.2061,-0.2152,-0.2333,-0.269,-0.3043,-0.3442,-0.3755,-0.41,-0.4355,-0.4757,-0.4901,-0.4868,-2.9759,-2.9047,0.0,0.0,0.0,0.0,0.0,0.0,0.0,0.0,0.0,0.0,0.0,0.0,0.0,0.0,0.0,-3.2195,-3.3632,0.0,-3.3343,0.0,0.0,-3.047,0.0,0.0,-2.6809,-2.5654,-2.504,0.0,0.0,0.0,0.0,0.0,0.0,-2.1664,-2.1375,-2.0809,-2.0372,-1.9939,-1.9396,-1.8041,-1.6362,0.0,-1.5635,-1.4662,-1.4424,0.0,0.0,-1.3739,-1.3799,0.0,0.0,0.0,0.0,0.0,0.0,0.0,0.0,0.0,0.0,-0.3512,0.0,0.0,0.0,0.0,0.0801,0.0,0.0,0.0,0.0,0.0,0.0,0.0,0.0,0.0,0.0,0.0,0.0,0.0,0.0,0.0,0.0,-0.3945,-0.3564,0.0,-0.2753,-0.2206,-0.18,-0.1797,-0.202,-0.2465,-0.2854,-0.3352,-0.3965,-0.4398,-0.4433,-0.4075,-0.4243,-0.3986,-0.3283,-0.3089,-0.2789,-0.246,-0.2324,-0.2368,-0.2504,-0.264,-0.2998,-0.3398,-0.3398,-0.3524,-0.3697,-0.4355,-0.4491,-0.4353,0.0,0.0,0.0,0.0,0.0,0.0,0.0,-3.1805,0.0,0.0,0.0,0.0,0.0,-3.1373,-3.1099,0.0,0.0,-3.1268,-3.2775,-3.2674,0.0,0.0,0.0,-3.1315,0.0,0.0,0.0,0.0,0.0,0.0,0.0,0.0,0.0,0.0,0.0,-2.1131,0.0,0.0,0.0,0.0,0.0,-1.7308,-1.6041,0.0,-1.5264,-1.4196,-1.3945,-1.3703,0.0,-1.341,-1.3402,-1.3342,-1.2857,-1.2351,-1.1751,-1.0821,-0.9987,-0.9144,0.0,0.0,-0.6934,-0.5996,0.0,0.0,0.0,0.0,0.0,0.0,0.0,0.0,0.0,0.0,0.0,0.0,0.0,0.0,0.0,0.0,0.0,0.0,0.0,0.0,0.0,0.0,0.0,-0.3145,-0.2574,-0.2147,-0.1965,-0.1905,-0.2128,-0.2635,-0.3135,-0.3747,-0.4467,-0.4791,-0.4981,-0.502,-0.5028,-0.4692,-0.4077,-0.3792,-0.3527,-0.3211,-0.2898,-0.2768,-0.2812,-0.2901,-0.2951,-0.3087,-0.3129,-0.3081,-0.3081,-0.3605,-0.3781,-0.3817,-3.1852,0.0,0.0,0.0,0.0,0.0,0.0,0.0,0.0,0.0,-3.3034,0.0,-3.1831,0.0,-3.0577,0.0,-3.0399,-3.049,-3.1728,-3.1885,0.0,-3.2193,-3.2057,0.0,0.0,0.0,0.0,0.0,0.0,-2.5626,0.0,0.0,0.0,0.0,0.0,-2.0306,-1.9154,0.0,-1.8804,0.0,0.0,-1.6578,0.0,0.0,-1.4827,-1.3915,0.0,-1.3467,-1.3314,-1.3218,-1.317,-1.3142,-1.291,-1.2666,-1.2353,-1.1841,-1.1425,-1.0956,-1.0383,-0.9805,0.0,-0.8172,-0.7235,0.0,-0.4854,0.0,-0.2348,0.0,0.0,0.0,0.0,0.0,0.0,0.0,0.0,0.0,0.0,-0.0173,0.0,0.0,0.0,0.0,0.0,0.0,-0.3194,-0.2855,-0.2558,-0.2262,-0.2076,-0.2127,-0.2352,-0.2745,-0.3357,-0.4024,-0.4688,-0.5124,-0.5383,-0.5442,-0.5446,-0.5144,-0.4588,-0.4268,-0.4025,-0.3829,-0.3517,-0.3385,-0.3296,-0.3252,-0.3214,-0.3129,-0.3081,-0.2948,-0.2821,-0.312,-0.3385,-0.3694,0.0,0.0,0.0,0.0,-3.3294,0.0,0.0,0.0,-3.3492,0.0,-3.2379,-3.1882,-3.1554,-3.0184,-2.9669,-3.0648,-3.0044,-2.9927,-3.0653,-3.1303,0.0,0.0,-3.169,-3.1718,-3.1176,0.0,0.0,0.0,0.0,0.0,0.0,0.0,0.0,0.0,-2.0049,0.0,-1.8056,-1.8024,-1.7765,-1.7291,-1.6613,-1.586,-1.5122,-1.4721,-1.422,-1.3726,-1.3621,-1.342,-1.317,-1.317,-1.3142,-1.3085,-1.2929,-1.2881,-1.2832,-1.2421,-1.2323,-1.2274,-1.1999,-1.1466,-1.0839,-1.0061,-0.912,0.0,0.0,0.0,-0.43,0.0,0.0,0.0,0.0,0.0,0.0,0.0,0.0,0.0,0.0,0.0,0.0,0.0,0.0,0.0,0.0,0.0,-0.3099,-0.2661,-0.2593,-0.2499,0.0,-0.2417,-0.2637,-0.2914,-0.3466,-0.4076,-0.4688,-0.5395,-0.5637,-0.5403,-0.5541,-0.5325,-0.4801,-0.4539,-0.4408,-0.436,-0.4224,-0.4085,-0.3953,-0.3825,-0.3741,-0.3605,-0.3344,-0.3129,-0.2954,-0.2951,-0.3353,-0.4073,-3.3297,-3.4217,-3.4853,0.0,-3.4579,-3.4491,0.0,0.0,0.0,0.0,-3.2631,-3.148,-3.0442,-2.9453,-2.88,-2.8678,-2.852,0.0,0.0,0.0,0.0,-2.9968,-3.0007,-2.9792,-2.9387,-2.9115,0.0,-2.676,0.0,0.0,-2.3406,0.0,0.0,0.0,0.0,0.0,-1.7306,-1.7279,-1.7011,-1.6528,-1.5846,-1.5229,-1.4663,0.0,-1.3492,-1.3162,-1.3276,-1.318,-1.3045,-1.3007,-1.2978,-1.2929,-1.2774,-1.2725,-1.2725,-1.2627,-1.2686,-1.2609,-1.2092,-1.1808,-1.1408,-1.0611,-0.9805,-0.9062,0.0,0.0,0.0,0.0,0.0,0.0,0.0,0.0,0.0,0.0,0.0,0.0,0.0,0.0,0.0,-0.1871,0.0,0.0,0.0,-0.2839,-0.2936,-0.2917,-0.2743,-0.2608,-0.2589,-0.2593,-0.2673,-0.2958,-0.3398,-0.3968,-0.4519,-0.5014,-0.5271,-0.526,-0.5403,-0.533,-0.5106,-0.4971,-0.5053,-0.5351,-0.5183,-0.5135,-0.5168,-0.4957,-0.4691,-0.4339,-0.4168,-0.4081,-0.4001,-0.3771,-0.405,-0.4659,-3.3832,0.0,0.0,-3.5587,0.0,0.0,-3.4949,-3.4699,0.0,-3.3218,-3.1731,0.0,-2.941,-2.8526,-2.7944,-2.7707,-2.7654,0.0,-2.8207,0.0,0.0,-2.8716,-2.8952,-2.8907,-2.8498,-2.834,0.0,-2.6262,0.0,0.0,-2.3009,0.0,0.0,0.0,0.0,-1.7806,-1.6578,-1.6472,-1.6172,-1.5685,-1.5054,-1.4506,0.0,-1.3449,-1.3086,-1.2881,-1.29,-1.2852,-1.2764,-1.2529,-1.248,-1.2431,-1.2332,-1.2323,-1.2393,-1.2253,-1.2455,-1.2547,-1.2061,-1.1843,-1.1643,-1.1067,-1.0625,-1.0261,-0.9799,-0.9271,-0.856,0.0,-0.6216,-0.4809,0.0,0.0,0.0,0.0,0.0,0.0,0.0,0.0,0.0,0.0,-0.3342,0.0,0.0,-0.347,-0.3198,-0.3193,-0.3126,-0.3144,-0.3199,-0.3168,-0.3173,-0.3346,-0.3642,-0.4024,-0.4519,-0.4904,-0.5156,-0.5242,-0.5349,-0.5382,-0.5286,-0.5276,-0.5529,-0.5916,-0.5922,-0.5996,-0.6112,-0.5984,-0.576,-0.5449,-0.5245,-0.5196,-0.5318,-0.5457,-0.5428,-0.5423,0.0,0.0,0.0,0.0,0.0,0.0,0.0,-3.4088,0.0,-3.2029,0.0,-2.9143,-2.8553,-2.7696,-2.723,-2.7341,0.0,-2.7085,-2.7021,-2.752,-2.7691,-2.7328,-2.7933,-2.8035,-2.7558,-2.7574,-2.6936,0.0,0.0,0.0,0.0,0.0,0.0,0.0,0.0,0.0,0.0,-1.5847,-1.5481,-1.5024,-1.437,-1.3877,-1.3508,-1.3086,-1.292,-1.292,-1.2666,-1.2529,-1.2421,-1.2026,-1.1877,-1.1819,-1.1665,-1.1796,-1.1969,-1.1696,-1.1955,-1.2278,-1.1864,-1.1734,-1.1585,-1.1325,-1.1283,-1.1241,-1.1004,-1.0979,-1.0797,-1.007,-0.9198,-0.8107,-0.6597,0.0,0.0,0.0,0.0,0.0,0.0,0.0,0.0,0.0,0.0,0.0,0.0,-0.4727,-0.3972,-0.3776,-0.3931,-0.4064,-0.4097,0.0,-0.401,-0.401,-0.4097,-0.4294,-0.4625,-0.5014,-0.5205,-0.5297,-0.5353,-0.5394,-0.5375,-0.5468,-0.5793,-0.6221,-0.6477,-0.6725,-0.6959,-0.6959,-0.6868,-0.6729,-0.6361,-0.6416,-0.6728,-0.7295,-0.7034,-0.6493,0.0,0.0,0.0,0.0,0.0,-3.4538,-3.3385,-3.2641,-3.2167,-3.1944,-2.9955,-2.8574,-2.8518,-2.7616,-2.704,-2.7072,-2.6908,0.0,0.0,0.0,0.0,-2.532,-2.5382,-2.5043,-2.4191,-2.4632,-2.4611,0.0,0.0,0.0,0.0,0.0,0.0,0.0,0.0,0.0,-1.6634,-1.6322,0.0,-1.529,-1.4596,-1.4148,-1.3791,-1.3194,-1.3025,-1.3122,-1.2977,-1.2647,-1.2274,-1.1877,-1.1728,-1.1665,-1.1239,-1.1381,-1.1687,-1.1628,-1.1812,-1.1984,-1.1634,-1.148,-1.1326,-1.1118,-1.099,-1.1118,-1.2002,-1.2161,-1.2137,-1.2282,-1.1877,-1.1195,-1.0222,0.0,0.0,0.0,0.0,0.0,0.0,0.0,0.0,0.0,0.0,-0.7465,0.0,0.0,-0.543,-0.5612,-0.5536,-0.5547,-0.5697,0.0,-0.5037,0.0,-0.5042,-0.5003,0.0,0.0,-0.5578,-0.5297,-0.5353,-0.5342,-0.5232,-0.5517,-0.5884,-0.6295,-0.6725,-0.7238,-0.7697,-0.7697,-0.7697,-0.7626,-0.7117,-0.7213,-0.7657,-0.785,-0.7937,-0.8017,0.0,0.0,0.0,0.0,0.0,0.0,0.0,-3.0751,-2.9989,-3.011,-2.9158,-2.8295,-2.7833,-2.7278,-2.6876,-2.6708,-2.6469,-2.6077,-2.5452,-2.5187,-2.4661,-2.3806,-2.3683,-2.3378,-2.29,-2.318,-2.3264,-2.3207,0.0,0.0,0.0,0.0,0.0,0.0,0.0,-1.7733,0.0,0.0,0.0,-1.5277,-1.4869,-1.4369,-1.3823,-1.3549,-1.3552,-1.3695,-1.3589,-1.3351,-1.2977,-1.2157,-1.1635,-1.135,-1.1146,-1.1259,-1.1401,-1.1499,-1.1788,-1.1983,-1.1509,-1.1355,-1.1248,-1.1023,-1.1105,-1.145,-1.2183,-1.2637,-1.2979,-1.3281,-1.3542,-1.3583,-1.3379,-1.2401,0.0,0.0,0.0,0.0,0.0,0.0,0.0,0.0,0.0,0.0,0.0,0.0,0.0,0.0,0.0,0.0,0.0,0.0,-0.6558,0.0,0.0,0.0,-0.5773,0.0,-0.5792,-0.5548,-0.5504,-0.5399,-0.5243,-0.555,-0.5826,-0.6179,-0.6641,-0.7154,-0.7655,-0.7805,-0.7936,-0.8008,-0.7702,-0.7818,-0.8165,-0.8193,-0.8256,-0.831,0.0,-3.4941,0.0,0.0,-3.216,0.0,-3.0286,-2.8805,-2.7811,-2.8142,-2.8068,-2.7624,-2.6708,-2.648,-2.6251,-2.5949,-2.5638,-2.5108,-2.422,-2.3914,-2.337,-2.2493,-2.2373,-2.2238,-2.1988,-2.2127,-2.2355,0.0,0.0,0.0,0.0,0.0,0.0,0.0,0.0,0.0,0.0,0.0,-1.6223,-1.5278,-1.5039,-1.4516,-1.3905,-1.3915,-1.4093,-1.4316,-1.4212,-1.4043,-1.3668,-1.2676,-1.1901,-1.134,-1.1205,-1.1261,-1.1364,-1.1539,-1.1925,-1.2157,-1.1678,-1.1457,-1.1282,-1.0992,-1.1225,-1.1596,-1.2059,-1.2736,-1.3362,-1.3915,-1.4805,-1.5668,-1.609,-1.5743,0.0,0.0,0.0,0.0,0.0,0.0,0.0,0.0,0.0,0.0,-1.2914,0.0,0.0,0.0,0.0,0.0,-0.9336,0.0,0.0,0.0,0.0,-0.7048,-0.6604,0.0,-0.6164,-0.5896,-0.5694,-0.5442,-0.5242,-0.5471,-0.5665,-0.5884,-0.6386,-0.6862,-0.73,-0.7631,-0.7918,-0.8117,-0.7986,-0.8087,-0.8314,-0.8248,-0.8146,-0.8133,0.0,0.0,0.0,0.0,0.0,0.0,-2.7857,-2.6964,-2.664,-2.7058,-2.6622,-2.5918,-2.5086,-2.4849,-2.4616,-2.4345,-2.4017,-2.361,-2.3175,-2.2907,-2.23,-2.1305,-2.1362,-2.107,-2.0334,-2.0931,-2.15,0.0,0.0,-2.2454,0.0,0.0,0.0,0.0,0.0,0.0,0.0,-1.7068,-1.6317,-1.5526,-1.4956,-1.4516,-1.4176,-1.428,-1.4466,-1.4651,-1.4777,-1.4429,-1.3861,-1.3552,-1.2882,-1.2077,-1.1325,-1.145,-1.1887,-1.2139,-1.2376,-1.2556,-1.2437,-1.1982,-1.1457,-1.1094,-1.0899,-1.1033,-1.1923,-1.2536,-1.3291,-1.4457,-1.6032,-1.7425,-1.8261,-1.8254,-1.7834,0.0,0.0,0.0,0.0,0.0,-1.3615,-1.3754,0.0,0.0,-1.5171,-1.5702,-1.5675,-1.4976,-1.2641,0.0,0.0,0.0,0.0,-0.9624,-0.8761,-0.8199,-0.802,-0.7454,-0.6858,-0.6154,-0.5953,-0.5548,-0.5054,-0.5292,-0.5395,-0.5394,-0.6002,-0.6502,-0.699,-0.7423,-0.7718,-0.7833,-0.7833,-0.7921,-0.7987,-0.7685,-0.7688,-0.778,0.0,0.0,0.0,0.0,0.0,0.0,0.0,-2.4942,-2.4493,-2.4281,-2.4688,-2.4876,-2.4526,-2.4351,-2.4176,-2.3984,-2.3652,-2.3116,-2.2299,-2.1983,-2.1347,-2.0328,-2.0298,-2.0177,-1.9869,-2.0125,-2.0557,0.0,0.0,0.0,0.0,0.0,0.0,0.0,0.0,-1.7819,-1.7527,-1.6632,-1.5836,-1.5167,-1.4825,-1.451,-1.4222,-1.4269,-1.4466,-1.4663,-1.4451,-1.4303,-1.4098,-1.3278,-1.2602,-1.2058,-1.1806,-1.1882,-1.2127,-1.2117,-1.2393,-1.2531,-1.1924,-1.1479,-1.1047,-1.0478,-1.02,-1.0255,-1.1009,-1.1581,-1.2283,-1.3579,-1.5378,-1.7055,-1.8076,-1.8282,-1.8135,-1.7617,0.0,0.0,0.0,0.0,0.0,-1.5856,0.0,-1.6426,0.0,-1.6616,-1.6537,-1.6523,0.0,0.0,0.0,0.0,0.0,-1.0537,0.0,-0.9073,-0.8453,-0.7749,-0.7025,-0.6322,-0.6079,-0.5557,-0.4902,-0.5176,-0.5338,-0.5443,-0.5787,-0.6157,-0.6521,-0.6823,-0.7097,-0.7338,-0.7416,-0.7532,-0.7614,-0.7314,-0.7262,-0.7338,-2.896,0.0,-2.6591,0.0,-2.493,-2.366,-2.3453,-2.3044,-2.2556,-2.1904,-2.2573,-2.3241,-2.3481,-2.3433,-2.3306,-2.3161,-2.2882,-2.2353,-2.145,-2.114,-2.062,-1.9777,-1.9797,0.0,-1.9797,-1.9833,-2.0201,-2.0805,-2.0563,0.0,0.0,0.0,0.0,0.0,-1.8179,-1.7369,-1.7128,-1.6058,-1.53,-1.4827,-1.4541,-1.4334,-1.414,-1.414,-1.428,-1.4446,-1.395,-1.3816,-1.371,-1.2707,-1.2151,-1.1903,-1.2125,-1.2201,-1.2256,-1.2251,-1.2393,-1.2363,-1.1668,-1.1095,-1.056,-0.9893,-0.9477,-0.9375,-0.9909,-1.0584,-1.1594,-1.3314,-1.4982,-1.653,-1.774,-1.8051,-1.8099,-1.7989,0.0,0.0,0.0,-1.6641,0.0,0.0,-1.7397,-1.7544,-1.7814,-1.74,-1.7156,-1.7219,0.0,0.0,0.0,0.0,0.0,0.0,0.0,0.0,-0.8788,-0.8021,-0.7246,-0.6549,-0.6161,-0.5575,-0.4755,-0.4851,-0.5075,-0.5361,-0.5529,-0.5739,-0.5969,-0.6231,-0.646,-0.6646,-0.684,-0.697,-0.7034,-0.6725,-0.6726,-0.6755,-2.5224,-2.4374,-2.3593,-2.346,-2.2886,-2.2189,-2.1471,-2.1327,-2.1115,-2.0503,-2.0426,-2.0728,-2.1544,-2.1636,-2.1575,-2.145,-2.123,-2.1022,-2.0742,-2.0457,-2.0166,0.0,0.0,-2.0045,-2.0005,-2.02,-2.0558,-2.1109,0.0,0.0,-2.148,0.0,-1.9574,-1.8957,-1.8012,-1.7253,-1.655,-1.54,-1.4838,-1.4648,-1.4047,-1.3879,-1.402,-1.402,-1.3999,-1.3961,-1.3401,-1.2967,-1.253,-1.198,-1.1668,-1.159,-1.2197,-1.2267,-1.2209,-1.2736,-1.2507,-1.2066,-1.1919,-1.1061,-1.0067,-0.9466,-0.8859,-0.8475,-0.8662,-0.9719,-1.1399,-1.4202,-1.5338,-1.6225,-1.7565,-1.7925,-1.8098,-1.8346,0.0,0.0,0.0,-1.7142,0.0,-1.7813,-1.7841,-1.7987,-1.8535,-1.8288,0.0,0.0,0.0,0.0,0.0,0.0,0.0,-1.1621,-1.0704,0.0,-0.928,-0.8381,-0.7563,-0.6874,-0.6278,-0.5553,-0.4709,-0.4313,-0.4456,-0.5009,-0.5101,-0.5234,-0.5451,-0.5845,-0.5889,-0.574,-0.6145,-0.6252,-0.6179,-0.5922,-0.5965,-0.6083,-2.3033,-2.2125,-2.1377,-2.1255,-2.0631,-2.0079,-1.9834,-1.979,-1.9789,-1.9726,-1.9767,-1.998,-2.0512,-2.0958,-2.123,0.0,-2.1277,-2.1087,0.0,-2.0644,-2.0407,-2.001,-2.015,-2.0185,-2.008,-2.0115,-2.0257,-2.0421,0.0,0.0,0.0,-2.0306,-1.995,-1.9669,-1.7847,-1.6975,-1.6692,-1.5357,-1.4744,-1.4686,-1.4345,-1.4186,-1.414,-1.3915,-1.3705,-1.3307,-1.2273,-1.1719,-1.1396,-1.0684,-1.0508,-1.0723,-1.1287,-1.1687,-1.1907,-1.1564,-1.1479,-1.137,-1.0818,-0.998,-0.9193,-0.8945,-0.8277,-0.7828,-0.8501,-0.9961,-1.1603,-1.3077,-1.4168,-1.5103,-1.6006,-1.6323,-1.6561,-1.691,-1.6853,0.0,-1.7213,0.0,-1.7302,-1.8263,-1.8285,-1.8317,-1.8559,-1.8058,0.0,0.0,0.0,0.0,0.0,0.0,0.0,0.0,-1.042,0.0,-0.901,-0.8292,-0.7588,-0.6895,-0.6406,-0.5626,-0.4578,-0.4341,-0.4408,-0.467,-0.4845,-0.4976,-0.5127,-0.5326,-0.531,-0.5254,-0.5401,-0.5384,-0.5216,-0.5048,-0.5139,-0.5398,-2.0918,-2.0224,-1.9653,-1.9483,-1.9065,-1.876,-1.876,-1.876,-1.8822,-1.9035,-1.9109,-1.9295,-1.9767,-2.0243,0.0,-2.1103,-2.1199,-2.1135,-2.0925,-2.0843,-2.0628,-2.0323,-2.0426,-2.0426,-2.0239,-2.0308,0.0,-2.0239,-2.022,-2.0384,-2.0666,-2.0302,-2.002,-1.9746,-1.799,-1.708,-1.6835,-1.5563,-1.504,-1.5085,-1.4846,-1.4755,-1.4709,-1.4351,-1.3767,-1.2949,-1.1589,-1.0798,-1.0222,-0.9474,-0.9412,-0.969,-1.002,-1.0541,-1.0956,-1.0846,-1.0678,-1.0452,-1.0097,-0.9342,-0.8656,-0.8601,-0.801,-0.7708,-0.887,-1.0231,-1.1575,-1.2775,-1.3733,-1.4547,-1.5134,-1.5433,-1.5725,-1.608,-1.6151,-1.6332,-1.6805,0.0,-1.7076,0.0,0.0,0.0,0.0,-1.7787,-1.6959,0.0,0.0,0.0,0.0,0.0,-1.1715,-1.0488,-1.0014,-0.9372,-0.8519,-0.8087,-0.7553,-0.6872,-0.6192,-0.5351,-0.4438,-0.4236,-0.4188,-0.428,-0.436,-0.4443,-0.457,-0.4482,-0.4434,-0.4391,-0.4339,-0.4252,-0.4132,-0.4021,-0.4178,-0.4569,-1.893,-1.864,-1.8397,0.0,-1.8149,-1.8149,-1.8149,-1.8149,-1.8228,-1.8436,-1.8461,-1.8693,-1.9258,-1.953,-1.9995,-2.0763,0.0,0.0,-2.1103,-2.0974,-2.0844,-2.0726,-2.0761,-2.0695,-2.0494,-2.0695,-2.0695,-2.0527,-2.0613,-2.0648,-2.0649,-2.0364,-2.0004,-1.9447,-1.8464,-1.7639,-1.6972,-1.6077,-1.5752,-1.5784,-1.5608,-1.5608,-1.562,-1.5152,-1.4193,-1.2892,-1.142,-1.0197,-0.9231,-0.846,-0.8431,-0.8698,-0.8723,-0.906,-0.9615,-1.0427,-1.0062,-0.9444,-0.971,-0.9153,-0.851,-0.8472,-0.8082,-0.8101,-0.9602,-1.0418,-1.1315,-1.3035,-1.3861,-1.4447,-1.4921,-1.5195,-1.5477,-1.5842,-1.5998,-1.6123,-1.6274,-1.6234,-1.6673,0.0,0.0,0.0,-1.8503,-1.7504,-1.6473,0.0,0.0,0.0,0.0,0.0,-1.1081,-0.9731,-0.9563,-0.8947,-0.7877,-0.7889,-0.7541,-0.685,-0.5691,-0.4839,-0.432,-0.4056,-0.388,-0.3836,-0.37,-0.3693,-0.3778,-0.347,-0.3293,-0.3249,-0.3031,-0.2904,-0.2881,-0.2853,-0.3163,-0.3695,0.0,0.0,-1.7935,-1.7733,-1.7693,-1.7693,-1.7693,-1.7693,-1.7733,-1.7868,-1.7989,-1.8214,-1.8655,-1.9011,-1.9493,-2.015,-2.0628,-2.0957,-2.1103,-2.107,-2.0974,-2.0844,-2.0877,-2.0745,-2.0527,-2.0644,-2.0711,-2.0644,-2.0778,-2.0926,-2.1135,-2.091,-2.0731,-2.0483,-1.9483,-1.8769,-1.8232,-1.7437,-1.7066,-1.6912,-1.6773,-1.6663,-1.6524,-1.6065,-1.5022,-1.3597,-1.2134,-1.0742,-0.9487,-0.8717,-0.8472,-0.8586,-0.8865,-0.9021,-0.9158,-0.9372,-0.9436,-0.9483,-0.9476,-0.9052,-0.8667,-0.9058,-0.898,-0.8935,-0.9305,-1.0368,-1.1474,-1.2195,-1.3431,-1.4511,-1.4921,-1.5133,-1.5358,-1.561,-1.574,-1.5868,-1.6108,-1.6123,-1.6571,0.0,-1.7602,-1.7664,-1.831,-1.7517,-1.6529,0.0,0.0,-1.3131,-1.2083,-1.1441,-1.061,-0.9434,-0.9207,-0.865,-0.7777,-0.7723,-0.7396,-0.6657,-0.5794,-0.5101,-0.453,-0.4192,-0.384,-0.3486,-0.3258,-0.3034,-0.2812,-0.2635,-0.2408,-0.2184,-0.2097,-0.1958,-0.1831,-0.2034,-0.2477,-0.3039,-1.8383,-1.8002,-1.7666,-1.7502,-1.7365,-1.7282,-1.7282,-1.724,-1.724,-1.7337,-1.7391,-1.757,-1.7894,-1.8266,-1.8731,-1.9332,-2.0154,-2.0728,-2.0974,-2.1006,-2.099,-2.0893,-2.0893,-2.0811,-2.061,-2.0677,-2.0777,-2.0794,-2.0958,-2.1183,-2.145,-2.1355,-2.1245,-2.1087,-2.0283,-1.9677,-1.9207,-1.8493,-1.8118,-1.8027,-1.7907,-1.7866,-1.7825,-1.741,-1.6226,-1.4661,-1.3322,-1.1755,-1.0191,-0.9359,-0.9067,-0.9084,-0.931,-0.9451,-0.9553,-0.9477,-0.934,-0.9262,-0.9471,-0.9266,-0.9115,-0.956,-0.9633,-0.9741,-1.0257,-1.1098,-1.2036,-1.2904,-1.3905,-1.4718,-1.5027,-1.5178,-1.5298,-1.5492,-1.5624,-1.5826,-1.6067,-1.6123,-1.6629,-1.7882,-1.765,-1.7644,-1.831,-1.7435,-1.6399,-1.5395,-1.4244,0.0,-1.2189,-1.1598,-1.0662,-0.9289,-0.9061,-0.8515,-0.7509,-0.7234,-0.6829,-0.636,-0.5797,-0.5231,-0.4666,-0.4276,-0.3792,-0.3214,-0.2768,-0.2413,-0.2059,-0.1789,-0.1609,-0.1475,-0.1343,-0.1287,-0.1335,-0.1602,-0.2076,-0.2713,-1.833,-1.7882,-1.7488,-1.7404,-1.7183,-1.7002,-1.7002,-1.6918,-1.6833,-1.6833,-1.6791,-1.6863,-1.716,-1.7407,-1.7814,-1.8458,-1.9471,-2.0292,-2.0763,-2.0795,-2.0828,-2.0877,-2.0877,-2.0827,-2.0677,-2.0744,-2.0811,-2.0893,-2.1103,-2.131,-2.1559,-2.1634,-2.1587,-2.1417,-2.0926,-2.0449,-2.0004,-1.9361,-1.9066,-1.9043,-1.8945,-1.9043,-1.9148,-1.8858,-1.7653,-1.595,-1.4824,-1.3129,-1.1311,-1.0521,-1.0155,-1.0051,-1.0089,-1.0253,-1.0404,-1.0298,-0.9846,-0.9429,-0.9702,-0.9762,-0.9791,-1.0097,-1.0325,-1.0677,-1.1631,-1.2215,-1.2891,-1.4142,-1.4744,-1.5074,-1.5224,-1.5298,-1.5388,-1.5463,-1.5639,-1.587,-1.6067,0.0,-1.6655,-1.7869,-1.7548,-1.7514,-1.8247,-1.7208,-1.6145,-1.5309,-1.427,-1.3319,-1.2432,-1.2012,-1.106,-0.9528,-0.9192,-0.8507,-0.7287,-0.6612,-0.6181,-0.607,-0.565,-0.5236,-0.4801,-0.4312,-0.3649,-0.2898,-0.2277,-0.1789,-0.1435,-0.0986,-0.0896,-0.0986,-0.0763,-0.0877,-0.1205,-0.1446,-0.1968,-0.2583,-1.8171,-1.7814,-1.7488,-1.7404,-1.7183,-1.696,-1.6918,-1.6693,-1.6509,-1.6411,-1.625,-1.625,-1.6595,-1.6697,-1.705,-1.7706,-1.8277,-1.9118,-2.0243,-2.0429,-2.0545,-2.0711,-2.0711,-2.0677,-2.0527,-2.0644,-2.0777,-2.0893,-2.1038,-2.1183,-2.1356,-2.1542,-2.1634,-2.1648,-2.134,-2.0974,-2.0646,-2.0174,-1.9859,-1.9681,-1.9645,-1.9773,-2.0004,-1.9963,-1.8931,-1.7464,-1.6717,-1.5136,-1.3252,-1.2589,-1.2013,-1.1642,-1.1519,-1.148,-1.1454,-1.1534,-1.1526,-1.132,-1.0439,-1.0469,-1.08,-1.0964,-1.1537,-1.2052,-1.2063,-1.3099,-1.411,-1.4341,-1.5037,-1.5594,-1.5638,-1.5565,-1.558,-1.5726,-1.5711,-1.5826,-1.6123,0.0,-1.6458,-1.7106,-1.6815,-1.6799,-1.7427,-1.6573,-1.5832,-1.5386,-1.437,-1.3435,-1.2664,-1.2072,-1.1362,-1.0637,-0.9796,-0.8635,-0.7241,-0.6453,-0.601,-0.5922,-0.5517,-0.5154,-0.4801,-0.4188,-0.3476,-0.2719,-0.1967,-0.1345,-0.0809,-0.0584,-0.0494,-0.0539,-0.0672,-0.0891,-0.1151,-0.1658,-0.2258,-0.2941,-1.8313,-1.7949,-1.7543,-1.7404,-1.7099,-1.6791,-1.6595,-1.6306,-1.6032,-1.5788,-1.5623,-1.5501,-1.5522,-1.57,-1.5996,-1.6489,-1.6983,-1.7746,-1.8849,-1.9594,-2.0135,-2.0357,-2.0475,-2.0577,-2.0662,-2.0761,-2.0844,-2.0893,-2.0671,-2.0797,-2.1246,-2.1089,-2.1272,-2.1694,-2.1556,-2.1402,-2.115,-2.078,-2.0548,-2.0379,-2.0345,-2.0548,-2.0798,-2.0525,-1.9806,-1.887,-1.7952,-1.6617,-1.515,-1.4463,-1.3884,-1.3415,-1.3141,-1.2942,-1.2842,-1.282,-1.2693,-1.2455,-1.2129,-1.2413,-1.2887,-1.3089,-1.3464,-1.379,-1.3949,-1.4571,-1.5165,-1.5465,-1.591,-1.6223,-1.6184,-1.6117,-1.6077,-1.6024,-1.6009,-1.6093,-1.6289,-1.6316,-1.6509,-1.7085,-1.6728,-1.6561,-1.685,-1.6017,-1.5337,-1.4975,-1.4003,-1.3201,-1.2783,-1.1895,-1.1155,-1.0623,-0.9401,-0.8165,-0.6877,-0.6225,-0.5778,-0.5514,-0.5247,-0.4985,-0.4631,-0.4008,-0.33,-0.2546,-0.1789,-0.1121,-0.0584,-0.036,-0.036,-0.0494,-0.0807,-0.1224,-0.1712,-0.2164,-0.2739,-0.335,-1.8324,-1.8003,-1.7597,-1.7391,-1.6973,-1.6577,-1.6281,-1.5944,-1.5603,-1.522,-1.5006,-1.4823,-1.4617,-1.472,-1.4994,-1.5332,-1.584,-1.6562,-1.745,-1.8612,-1.9479,-1.9925,-2.027,-2.0543,-2.0794,-2.0718,-2.0687,-2.0719,-2.014,-2.0152,-2.0685,-2.0362,-2.0541,-2.1124,-2.1154,-2.1138,-2.1062,-2.0758,-2.0589,-2.0559,-2.0671,-2.0971,-2.1315,-2.1133,-2.0696,-2.0084,-1.9281,-1.8114,-1.6863,-1.6212,-1.5634,-1.5111,-1.4706,-1.4408,-1.4151,-1.4095,-1.3953,-1.3842,-1.3919,-1.428,-1.4697,-1.4965,-1.5197,-1.5456,-1.5746,-1.6021,-1.6297,-1.6692,-1.6888,-1.6963,-1.6887,-1.6802,-1.669,-1.647,0.0,-1.6448,-1.649,-1.6463,-1.6569,-1.7014,-1.6608,-1.6276,-1.6271,-1.5409,-1.4736,-1.4392,-1.3401,-1.268,-1.2415,-1.1415,-1.0561,-0.9881,-0.867,-0.7541,-0.6566,-0.597,-0.545,-0.5058,-0.4893,-0.4631,-0.428,-0.3697,-0.3031,-0.2279,-0.1521,-0.0942,-0.045,-0.0315,-0.036,-0.0584,-0.1031,-0.1646,-0.2265,-0.272,-0.3266,-0.3849,-1.8046,-1.7855,-1.7447,-1.724,-1.6918,-1.6547,-1.6076,-1.5736,-1.5334,-1.4789,-1.4455,-1.4269,-1.4222,-1.4118,-1.4212,-1.4536,-1.5119,-1.5776,-1.6544,-1.745,-1.8419,-1.9479,-2.017,-2.0595,-2.0794,-2.0321,-2.0093,-2.0169,-1.9492,-1.9174,-1.9151,-1.9244,-1.9341,-1.9463,-1.953,-1.9641,-1.9723,-1.958,-1.9525,-1.9551,-2.0192,-2.0697,-2.1218,-2.2186,-2.1908,-2.1026,-2.1056,-1.9845,-1.819,-1.77,-1.7093,-1.6479,-1.6146,-1.569,-1.5257,-1.5197,-1.5675,-1.6088,-1.5443,-1.5293,-1.539,-1.5668,-1.6239,-1.6713,-1.6563,-1.7117,-1.7642,-1.7609,-1.7725,-1.7795,-1.772,-1.7609,-1.7432,-1.7166,0.0,0.0,-1.6789,-1.6607,-1.6463,-1.639,-1.5957,-1.5636,-1.558,-1.473,-1.4013,-1.3691,-1.2743,-1.1884,-1.1261,-1.0498,-0.9505,-0.8312,-0.7754,-0.7141,-0.6435,-0.5627,-0.5033,-0.4661,-0.4447,-0.414,-0.3741,-0.3208,-0.2541,-0.183,-0.1207,-0.0717,-0.0405,-0.0405,-0.0494,-0.0764,-0.1345,-0.1977,-0.262,-0.3224,-0.3844,-0.446,-1.8032,-1.7814,-1.7352,-1.6976,-1.6552,-1.6088,-1.5659,-1.5334,-1.5006,-1.4662,-1.4466,-1.4233,-1.3999,-1.3905,-1.3894,-1.3941,-1.4455,-1.5085,-1.5776,-1.6659,-1.7906,-1.9609,-2.0154,-2.0579,-2.0877,-2.0351,-2.0074,-2.0088,-1.9018,-1.8667,-1.9061,-1.8707,-1.8833,-1.9383,-1.9503,-1.9717,-1.9908,-1.9849,-1.99,-2.0086,-2.0745,-2.125,-2.1659,-2.2281,-2.2093,-2.1425,-2.1117,-2.0113,-1.8899,-1.8556,-1.8031,-1.7446,-1.7116,-1.6626,-1.6169,-1.5978,-1.632,-1.6738,-1.6709,-1.6968,-1.7307,-1.7481,-1.7784,-1.7976,-1.78,-1.8064,-1.8296,-1.8263,-1.8422,-1.8554,-1.8445,-1.8351,-1.8176,-1.7817,0.0,-1.7215,-1.6901,-1.6644,-1.6394,-1.6136,-1.5725,-1.5312,-1.4851,-1.3955,-1.3301,-1.3014,-1.1974,-1.1227,-1.0892,-0.955,-0.8342,-0.7244,-0.6706,-0.6314,-0.6144,-0.5363,-0.4757,-0.4403,-0.3957,-0.3561,-0.3164,-0.2632,-0.2099,-0.152,-0.1164,-0.0895,-0.0717,-0.0897,-0.1032,-0.1211,-0.1791,-0.2359,-0.2871,-0.3395,-0.3897,-0.4341,-1.7863,-1.7611,-1.7144,-1.6637,-1.6163,-1.5724,-1.5244,-1.4925,-1.4631,-1.4417,-1.4238,-1.4059,-1.4019,-1.3903,-1.3811,-1.3765,-1.4098,-1.4485,-1.4888,-1.5932,-1.7484,-1.9594,-2.012,-2.0496,-2.0811,-2.0143,-1.9812,-1.9812,-1.8459,-1.8048,-1.8491,-1.8042,-1.8205,-1.8812,-1.8967,-1.9201,-1.9467,-1.9521,-1.9659,-1.993,-2.0639,-2.1101,-2.1419,-2.194,-2.1826,-2.135,-2.1031,-2.0279,-1.943,-1.9203,-1.8749,-1.8216,-1.7877,-1.7389,-1.6876,-1.6617,-1.6799,-1.7134,-1.7459,-1.7941,-1.8388,-1.8566,-1.8678,-1.8715,-1.8619,-1.8641,-1.8698,-1.8771,-1.8978,-1.9141,-1.9065,-1.9016,-1.8851,-1.8445,-1.8052,-1.7614,-1.7077,-1.668,-1.634,-1.5968,-1.5521,-1.5013,-1.4374,-1.345,-1.271,-1.2283,-1.1225,-1.0386,-0.9813,-0.8494,-0.7364,-0.6562,-0.5959,-0.561,-0.5567,-0.4923,-0.4403,-0.4008,-0.3432,-0.3031,-0.2677,-0.2188,-0.1744,-0.1389,-0.1254,-0.1164,-0.1164,-0.1432,-0.1566,-0.1655,-0.2237,-0.2612,-0.2958,-0.3572,-0.3964,-0.4263,-1.7437,-1.7157,-1.6748,-1.6287,-1.5869,-1.5457,-1.4937,-1.4539,-1.4209,-1.4045,-1.367,-1.367,-1.4321,-1.4164,-1.4045,-1.4111,-1.4177,-1.4101,-1.3923,-1.5158,-1.6945,-1.9259,-1.9914,-2.0361,-2.0677,-1.9634,-1.9135,-1.9192,-1.7876,-1.7216,-1.7216,-1.7272,-1.7368,-1.7509,-1.7572,-1.7783,-1.8111,-1.8249,-1.845,-1.8769,-1.9573,-2.0027,-2.0318,-2.1257,-2.1237,-2.0736,-2.1073,-2.0604,-1.9778,-1.9645,-1.9284,-1.8841,-1.8513,-1.7924,-1.7361,-1.7158,-1.7248,-1.7455,-1.7641,-1.7954,-1.827,-1.8604,-1.8752,-1.8788,-1.8788,-1.8843,-1.8948,-1.9152,-1.9365,-1.9508,-1.9594,-1.9588,-1.9479,-1.9063,-1.8539,-1.7962,-1.7292,-1.6732,-1.6219,-1.5739,-1.527,-1.4752,-1.4149,-1.3247,-1.2378,-1.1542,-1.0544,-0.9328,-0.7795,-0.7238,-0.6768,-0.6221,-0.561,-0.5091,-0.4618,-0.4268,-0.3873,-0.3398,-0.2909,-0.2551,-0.2279,-0.1835,-0.1524,-0.1389,-0.1389,-0.1478,-0.1657,-0.1967,-0.2099,-0.2146,-0.2551,-0.2804,-0.2968,-0.367,-0.406,-0.4362,-1.6985,-1.668,-1.6275,-1.578,-1.5311,-1.4778,-1.4205,-1.4126,-1.4127,-1.4011,-1.4137,-1.4423,-1.4834,-1.4848,-1.481,-1.4654,-1.4612,-1.4469,-1.4332,-1.5019,-1.5915,-1.7048,-1.85,-1.9449,-1.9777,-1.9703,-1.9455,-1.9045,-1.8382,-1.7798,-1.7337,-1.7502,-1.7618,-1.7726,-1.7871,-1.8086,-1.8328,-1.8545,-1.8789,-1.9053,-2.0004,-2.0482,-2.0717,-2.1615,-2.1517,-2.0939,-2.1121,-2.0657,-1.9922,-1.9832,-1.9543,-1.9089,-1.8571,-1.8197,-1.7907,-1.762,-1.7574,-1.7614,-1.767,-1.7883,-1.8138,-1.8426,-1.8582,-1.8658,-1.8659,-1.8771,-1.8964,-1.9206,-1.9521,-1.9771,-1.9931,-1.9993,-1.9886,-1.9494,-1.8935,-1.825,-1.7394,-1.677,-1.6176,-1.5492,-1.4951,-1.4424,-1.3861,-1.3067,-1.2234,-1.1431,-1.0001,-0.8707,-0.7607,-0.716,-0.6653,-0.6062,-0.5491,-0.4923,-0.4403,-0.3877,-0.3435,-0.3126,-0.2598,-0.2286,-0.2144,-0.1971,-0.1927,-0.2057,-0.2233,-0.2453,-0.2716,-0.281,-0.2861,-0.2889,-0.2892,-0.2916,-0.303,-0.3405,-0.373,-0.3993,-1.6323,-1.592,-1.5501,-1.5051,-1.4518,-1.3969,-1.3596,-1.3485,-1.3504,-1.3674,-1.4,-1.4469,-1.5233,-1.5486,-1.5579,-1.553,-1.4959,-1.4482,-1.421,-1.443,-1.4768,-1.5221,-1.6732,-1.81,-1.9157,-1.9248,-1.9308,-1.9329,-1.8643,-1.8186,-1.7959,-1.7884,-1.7905,-1.8014,-1.8146,-1.8328,-1.8483,-1.8715,-1.893,-1.9198,-1.9956,-2.0318,-2.0469,-2.1054,-2.0979,-2.0582,-2.072,-2.0437,-1.9988,-1.9971,-1.9712,-1.9302,-1.8823,-1.8609,-1.846,-1.8188,-1.8042,-1.7971,-1.7936,-1.7992,-1.807,-1.8218,-1.8345,-1.8465,-1.8506,-1.8697,-1.8912,-1.9234,-1.9563,-1.9863,-2.0095,-2.0212,-2.0158,-1.9817,-1.9229,-1.8481,-1.7512,-1.6747,-1.5978,-1.5118,-1.4515,-1.3973,-1.3509,-1.2801,-1.1982,-1.0981,-0.9697,-0.8626,-0.7904,-0.737,-0.6865,-0.6398,-0.5701,-0.5091,-0.4613,-0.4073,-0.3539,-0.299,-0.2595,-0.2417,-0.2455,-0.2457,-0.2632,-0.2851,-0.3117,-0.3382,-0.3649,-0.3677,-0.3619,-0.3516,-0.3375,-0.3248,-0.3182,-0.3458,-0.3714,-0.3996,-1.5487,-1.496,-1.4479,-1.4118,-1.3556,-1.3125,-1.2976,-1.2635,-1.2547,-1.2998,-1.3353,-1.4047,-1.5379,-1.5935,-1.6293,-1.6518,-1.5266,-1.4273,-1.3769,-1.3622,-1.3635,-1.3835,-1.4894,-1.6413,-1.8493,-1.8403,-1.8796,-1.9687,-1.8679,-1.8383,-1.8749,-1.8302,-1.818,-1.829,-1.8385,-1.8483,-1.8598,-1.8752,-1.8964,-1.924,-1.9561,-1.9755,-1.9836,-1.9973,-1.9982,-1.9939,-2.006,-2.006,-2.0031,-2.0069,-1.9836,-1.9508,-1.9246,-1.9104,-1.9022,-1.882,-1.8609,-1.8454,-1.8373,-1.8246,-1.8134,-1.8048,-1.8095,-1.8187,-1.8325,-1.8506,-1.8771,-1.917,-1.9531,-1.9857,-2.0142,-2.0301,-2.032,-2.0052,-1.939,-1.858,-1.7569,-1.6563,-1.5585,-1.4609,-1.3971,-1.3483,-1.3126,-1.2532,-1.1653,-1.0467,-0.9686,-0.9056,-0.8488,-0.787,-0.7363,-0.7063,-0.6252,-0.5653,-0.528,-0.4815,-0.4088,-0.3096,-0.2921,-0.2965,-0.3182,-0.3296,-0.3507,-0.3854,-0.4085,-0.4276,-0.4441,-0.4525,-0.4377,-0.4087,-0.3883,-0.3692,-0.3518,-0.3792,-0.3996,-0.4284,-1.4128,-1.3862,-1.3542,-1.315,-1.2984,-1.2696,-1.2097,-1.216,-1.23,-1.2198,-1.2766,-1.363,-1.4703,-1.561,-1.6277,-1.6633,-1.5788,-1.4918,-1.406,-1.355,-1.3319,-1.3421,-1.4007,-1.5073,-1.6557,-1.7473,-1.8144,-1.864,-1.8243,-1.8176,-1.8401,-1.8195,-1.8138,-1.8229,-1.8463,-1.8559,-1.8598,-1.8807,-1.9031,-1.9286,-1.9587,-1.9836,-2.0041,-2.0122,-2.0148,-2.0159,-2.0219,-2.0211,-2.0142,-1.9983,-1.992,-1.9851,-1.9638,-1.9556,-1.9516,-1.9308,-1.9115,-1.8907,-1.8735,-1.8551,-1.8373,-1.8187,-1.7975,-1.7844,-1.7971,-1.8107,-1.836,-1.8803,-1.9267,-1.9675,-2.0043,-2.0308,-2.039,-2.0121,-1.9078,-1.7963,-1.7018,-1.5515,-1.4373,-1.3864,-1.3325,-1.2993,-1.2963,-1.2318,-1.1627,-1.1067,-1.0321,-0.9609,-0.8973,-0.8504,-0.8054,-0.7626,-0.7133,-0.6772,-0.6588,-0.6016,-0.5153,-0.4018,-0.3926,-0.4057,-0.4413,-0.4325,-0.4522,-0.4952,-0.4918,-0.5061,-0.5308,-0.4945,-0.4803,-0.4758,-0.4278,-0.4098,-0.4041,-0.4293,-0.4522,-0.4907,-1.2619,-1.2455,-1.2267,-1.1913,-1.1547,-1.1204,-1.0973,-1.0918,-1.0975,-1.1067,-1.1759,-1.2608,-1.3507,-1.4532,-1.5538,-1.6485,-1.6115,-1.5488,-1.4628,-1.392,-1.3535,-1.3547,-1.3868,-1.4525,-1.5547,-1.6349,-1.744,-1.8779,-1.8168,-1.8222,-1.8851,-1.8318,-1.8117,-1.8249,-1.8443,-1.8502,-1.8579,-1.877,-1.9031,-1.9328,-1.9663,-1.9943,-2.0148,-2.0255,-2.0289,-2.0296,-2.0334,-2.0328,-2.0258,-2.0105,-2.0069,-2.006,-1.9931,-1.9899,-1.9858,-1.9722,-1.9544,-1.9355,-1.9176,-1.8941,-1.8699,-1.8494,-1.8135,-1.7805,-1.7693,-1.7659,-1.7812,-1.8373,-1.8889,-1.9428,-1.9952,-2.0307,-2.0422,-2.0183,-1.9024,-1.7814,-1.6887,-1.5217,-1.3956,-1.3553,-1.3002,-1.2723,-1.2881,-1.2461,-1.2054,-1.174,-1.11,-1.0584,-1.0309,-0.9772,-0.9407,-0.924,-0.8645,-0.8202,-0.7877,-0.7367,-0.6715,-0.595,-0.5269,-0.513,-0.5489,-0.5277,-0.5412,-0.583,-0.5608,-0.5652,-0.5866,-0.5542,-0.5312,-0.5188,-0.4843,-0.471,-0.4625,-0.4846,-0.5171,-0.5723,-1.1055,-1.0905,-1.0806,-1.044,-0.9947,-0.9598,-0.9748,-0.9427,-0.9364,-0.9787,-1.0404,-1.1078,-1.1779,-1.296,-1.4264,-1.5737,-1.5937,-1.5758,-1.5242,-1.4477,-1.398,-1.3908,-1.4098,-1.4574,-1.54,-1.5758,-1.6955,-1.9149,-1.8208,-1.8317,-1.9454,-1.8552,-1.8173,-1.8208,-1.8287,-1.8365,-1.8428,-1.8661,-1.8978,-1.935,-1.9748,-2.0031,-2.0257,-2.0351,-2.0409,-2.0418,-2.0414,-2.0419,-2.0379,-2.0272,-2.0227,-2.0214,-2.0143,-2.0134,-2.0115,-2.0068,-1.9934,-1.9764,-1.9632,-1.9351,-1.907,-1.8873,-1.8441,-1.795,-1.7535,-1.7278,-1.7276,-1.7803,-1.841,-1.9039,-1.9726,-2.0172,-2.0387,-2.0194,-1.906,-1.7851,-1.6783,-1.5138,-1.3864,-1.3386,-1.2984,-1.2811,-1.3054,-1.2992,-1.2888,-1.2674,-1.2226,-1.1938,-1.1975,-1.1307,-1.0941,-1.0953,-1.0176,-0.9528,-0.905,-0.8497,-0.8156,-0.7904,-0.6571,-0.6126,-0.6504,-0.6113,-0.6113,-0.6407,-0.6083,-0.6029,-0.6061,-0.5891,-0.567,-0.5457,-0.5333,-0.523,-0.5179,-0.534,-0.5778,-0.6381,-0.9665,-0.9588,-0.9445,-0.8824,-0.8871,-0.8846,-0.8431,-0.8399,-0.8446,-0.8366,-0.8608,-0.892,-0.925,-1.093,-1.246,-1.3544,-1.4527,-1.5224,-1.5617,-1.4927,-1.447,-1.4406,-1.4501,-1.5196,-1.6608,-1.6993,-1.7601,-1.8517,-1.8086,-1.8399,-1.94,-1.8984,-1.8449,-1.7861,-1.7927,-1.7997,-1.8107,-1.8401,-1.8872,-1.9425,-1.9755,-2.01,-2.0376,-2.0393,-2.0447,-2.0482,-2.0483,-2.0443,-2.0402,-2.0383,-2.0334,-2.0282,-2.028,-2.0268,-2.0282,-2.0255,-2.0204,-2.0103,-1.9964,-1.976,-1.9531,-1.9276,-1.8783,-1.8218,-1.7757,-1.7188,-1.6853,-1.7107,-1.7679,-1.8363,-1.9088,-1.9772,-2.0186,-2.0055,-1.9002,-1.7696,-1.6233,-1.4658,-1.3534,-1.3164,-1.3489,-1.3743,-1.3855,-1.418,-1.4362,-1.422,-1.4125,-1.3879,-1.342,-1.28,-1.2204,-1.1697,-1.0943,-1.0349,-0.9939,-0.8969,-0.8477,-0.8456,-0.732,-0.6929,-0.7318,-0.6815,-0.6532,-0.647,-0.594,-0.5724,-0.5667,-0.5388,-0.528,-0.532,-0.5289,-0.5297,-0.5297,-0.5626,-0.595,-0.6209,-0.8849,-0.8788,-0.8585,-0.8065,-0.7714,-0.741,-0.7128,-0.69,-0.6699,-0.6651,-0.6594,-0.6524,-0.6429,-0.7478,-0.885,-1.0489,-1.2137,-1.3686,-1.5169,-1.5197,-1.5121,-1.5077,-1.5591,-1.6353,-1.7387,-1.8237,-1.917,-2.0194,-1.9399,-1.9519,-2.0526,-2.0058,-1.9585,-1.9079,-1.8841,-1.8574,-1.8306,-1.8612,-1.8914,-1.9276,-1.9754,-2.014,-2.0402,-2.035,-2.0365,-2.0387,-2.0399,-2.039,-2.0399,-2.0406,-2.0385,-2.0362,-2.0355,-2.036,-2.0357,-2.0395,-2.0355,-2.0295,-2.019,-2.0028,-1.9701,-1.9068,-1.879,-1.8467,-1.7602,-1.7132,-1.6871,-1.6838,-1.7388,-1.8075,-1.8702,-1.9487,-2.0007,-1.989,-1.8815,-1.761,-1.6554,-1.5019,-1.3867,-1.3527,-1.3918,-1.4382,-1.4801,-1.504,-1.5256,-1.5532,-1.5401,-1.5223,-1.507,-1.4281,-1.3617,-1.3118,-1.2088,-1.1037,-1.0027,-0.8922,-0.817,-0.77,-0.6897,-0.6785,-0.7267,-0.6515,-0.6085,-0.5906,-0.5457,-0.5211,-0.5061,-0.4904,-0.4895,-0.4956,-0.4956,-0.512,-0.5289,-0.5289,-0.5445,-0.5492]},{"header":{"parameterUnit":"m.s-1","parameterCategory":1,"la1":30.6,"la2":28.766,"lo1":-90.7593,"lo2":-88.6598,"dy":0.0162,"dx":0.0183,"nx":116,"ny":114,"refTime":"2023-09-02T00:00:00:Z","depth":0,"parameterNumber":3,"parameterNumberName":"V-component_of_WINDS"},"data":[0.0,0.0,0.0,0.0,0.0,0.0,0.0,0.0,0.0,0.0,0.0,0.0,0.0,0.0,0.0,0.0,0.0,0.0,0.0,0.0,0.0,0.0,0.0,0.0,0.0,0.0,0.0,0.0,0.0,0.0,0.0,0.0,0.0,0.0,0.0,0.0,0.0,0.0,0.0,0.0,0.0,0.0,0.0,0.0,0.0,0.0,0.0,0.0,0.0,0.0,0.0,0.0,0.0,0.0,0.0,0.0,0.0,0.0,0.0,0.0,0.0,0.0,0.0,0.0,0.0,0.0,0.0,0.0,0.0,0.0,0.0,0.0,0.0,0.0,0.0,0.0,0.0,0.0,0.0,0.0,0.0,0.0,0.0,0.0,0.0,0.0,0.0,0.0,0.0,0.0,0.0,0.0,0.0,0.0,0.0,0.0,0.0,0.0,0.0,0.0,0.0,0.0,0.0,0.0,0.0,0.0,0.0,0.0,0.0,0.0,0.0,0.0,0.0,0.0,0.0,0.0,0.0,0.0,0.0,0.0,0.0,0.0,0.0,0.0,0.0,0.0,0.0,0.0,0.0,0.0,0.0,0.0,0.0,0.0,0.0,0.0,0.0,0.0,0.0,0.0,0.0,0.0,0.0,0.0,0.0,0.0,0.0,0.0,0.0,0.0,0.0,0.0,0.0,0.0,0.0,0.0,0.0,0.0,0.0,0.0,0.0,0.0,0.0,0.0,0.0,0.0,0.0,0.0,0.0,0.0,0.0,0.0,0.0,0.0,0.0,0.0,0.0,0.0,0.0,0.0,0.0,0.0,0.0,0.0,0.0,0.0,0.0,0.0,0.0,0.0,0.0,0.0,0.0,0.0,0.0,0.0,0.0,0.0,0.0,0.0,0.0,0.0,0.0,0.0,0.0,0.0,0.0,0.0,0.0,0.0,0.0,0.0,0.0,0.0,0.0,0.0,0.0,0.0,0.0,0.0,0.0,0.0,0.0,0.0,0.0,0.0,0.0,0.0,0.0,0.0,0.0,0.0,0.0,0.0,0.0,0.0,0.0,0.0,0.0,0.0,0.0,0.0,0.0,0.0,0.0,0.0,0.0,0.0,0.0,0.0,0.0,0.0,0.0,0.0,0.0,0.0,0.0,0.0,0.0,0.0,0.0,0.0,0.0,0.0,0.0,0.0,0.0,0.0,0.0,0.0,0.0,0.0,0.0,0.0,0.0,0.0,0.0,0.0,0.0,0.0,0.0,0.0,0.0,0.0,0.0,0.0,0.0,0.0,0.0,0.0,0.0,0.0,0.0,0.0,0.0,0.0,0.0,0.0,0.0,0.0,0.0,0.0,0.0,0.0,0.0,0.0,0.0,0.0,0.0,0.0,0.0,0.0,0.0,0.0,0.0,0.0,0.0,0.0,0.0,0.0,0.0,0.0,0.0,0.0,0.0,0.0,0.0,0.0,0.0,0.0,0.0,0.0,0.0,0.0,0.0,0.0,0.0,0.0,0.0,0.0,0.0,0.0,0.0,0.0,0.0,0.0,0.0,0.0,0.0,0.0,0.0,0.0,0.0,0.0,0.0,0.0,0.0,0.0,0.0,0.0,0.0,0.0,0.0,0.0,0.0,0.0,0.0,0.0,0.0,0.0,0.0,0.0,0.0,0.0,0.0,0.0,0.0,0.0,0.0,0.0,0.0,0.0,0.0,0.0,0.0,0.0,0.0,0.0,0.0,0.0,0.0,0.0,0.0,0.0,0.0,0.0,0.0,0.0,0.0,0.0,0.0,0.0,0.0,0.0,0.0,0.0,0.0,0.0,0.0,0.0,0.0,0.0,0.0,0.0,0.0,0.0,0.0,0.0,0.0,0.0,0.0,0.0,0.0,0.0,0.0,0.0,0.0,0.0,0.0,0.0,0.0,0.0,0.0,0.0,0.0,0.0,0.0,0.0,0.0,0.0,0.0,0.0,0.0,0.0,0.0,0.0,0.0,0.0,0.0,0.0,0.0,0.0,0.0,0.0,0.0,0.0,0.0,0.0,0.0,0.0,0.0,0.0,0.0,0.0,0.0,0.0,0.0,0.0,0.0,0.0,0.0,0.0,0.0,0.0,0.0,0.0,0.0,0.0,0.0,0.0,0.0,0.0,0.0,0.0,0.0,0.0,0.0,0.0,0.0,0.0,0.0,0.0,0.0,0.0,0.0,0.0,0.0,0.0,0.0,0.0,0.0,0.0,0.0,0.0,0.0,0.0,0.0,0.0,0.0,0.0,0.0,0.0,0.0,0.0,0.0,0.0,0.0,0.0,0.0,0.0,0.0,0.0,0.0,0.0,0.0,0.0,0.0,0.0,0.0,0.0,0.0,0.0,0.0,0.0,0.0,0.0,0.0,0.0,0.0,0.0,0.0,0.0,0.0,0.0,0.0,0.0,0.0,0.0,0.0,0.0,0.0,0.0,0.0,0.0,0.0,0.0,0.0,0.0,0.0,0.0,0.0,0.0,0.0,0.0,0.0,0.0,0.0,0.0,0.0,0.0,0.0,0.0,0.0,0.0,0.0,0.0,0.0,0.0,0.0,0.0,0.0,0.0,0.0,0.0,0.0,0.0,0.0,0.0,0.0,0.0,0.0,0.0,0.0,0.0,0.0,0.0,0.0,0.0,0.0,0.0,0.0,0.0,0.0,0.0,0.0,0.0,0.0,0.0,0.0,0.0,0.0,0.0,0.0,0.0,0.0,0.0,0.0,0.0,0.0,0.0,0.0,0.0,0.0,0.0,0.0,0.0,0.0,0.0,0.0,0.0,0.0,0.0,0.0,0.0,0.0,0.0,0.0,0.0,0.0,0.0,0.0,0.0,0.0,0.0,0.0,0.0,0.0,0.0,0.0,0.0,0.0,0.0,0.0,0.0,0.0,0.0,0.0,0.0,0.0,0.0,0.0,0.0,0.0,0.0,0.0,0.0,0.0,0.0,0.0,0.0,0.0,0.0,0.0,0.0,0.0,0.0,0.0,0.0,0.0,0.0,0.0,0.0,0.0,0.0,0.0,0.0,0.0,0.0,0.0,0.0,0.0,0.0,0.0,0.0,0.0,0.0,0.0,0.0,0.0,0.0,0.0,0.0,0.0,0.0,0.0,0.0,0.0,0.0,0.0,0.0,0.0,0.0,0.0,0.0,0.0,0.0,0.0,0.0,0.0,0.0,0.0,0.0,0.0,0.0,0.0,0.0,0.0,0.0,0.0,0.0,0.0,0.0,0.0,0.0,0.0,0.0,0.0,0.0,0.0,0.0,0.0,0.0,0.0,0.0,0.0,0.0,0.0,0.0,0.0,0.0,0.0,0.0,0.0,0.0,0.0,0.0,0.0,0.0,0.0,0.0,0.0,0.0,0.0,0.0,0.0,0.0,0.0,0.0,0.0,0.0,0.0,0.0,0.0,0.0,0.0,0.0,0.0,0.0,0.0,0.0,0.0,0.0,0.0,0.0,0.0,0.0,0.0,0.0,0.0,0.0,0.0,0.0,0.0,0.0,0.0,0.0,0.0,0.0,0.0,0.0,0.0,0.0,0.0,0.0,0.0,0.0,0.0,0.0,0.0,0.0,0.0,0.0,0.0,0.0,0.0,0.0,0.0,0.0,0.0,0.0,0.0,0.0,0.0,0.0,0.0,0.0,0.0,0.0,0.0,0.0,0.0,0.0,0.0,0.0,0.0,0.0,0.0,0.0,0.0,0.0,0.0,0.0,0.0,0.0,0.0,0.0,0.0,0.0,0.0,0.0,0.0,0.0,0.0,0.0,0.0,0.0,0.0,0.0,0.0,0.0,0.0,0.0,0.0,0.0,0.0,0.0,0.0,0.0,0.0,0.0,0.0,0.0,0.0,0.0,0.0,0.0,0.0,0.0,0.0,0.0,0.0,0.0,0.0,0.0,0.0,0.0,0.0,0.0,0.0,0.0,0.0,0.0,0.0,0.0,0.0,0.0,0.0,0.0,0.0,0.0,0.0,0.0,0.0,0.0,0.0,0.0,0.0,0.0,0.0,0.0,0.0,0.0,0.0,0.0,0.0,0.0,0.0,0.0,0.0,0.0,0.0,0.0,0.0,0.0,0.0,0.0,0.0,0.0,0.0,0.0,0.0,0.0,0.0,0.0,0.0,0.0,0.0,0.0,0.0,0.0,0.0,0.0,0.0,0.0,0.0,0.0,0.0,0.0,0.0,0.0,0.0,0.0,0.0,0.0,0.0,0.0,0.0,0.0,0.0,0.0,0.0,0.0,0.0,0.0,0.0,0.0,0.0,0.0,0.0,0.0,0.0,0.0,0.0,0.0,0.0,0.0,0.0,0.0,0.0,0.0,0.0,0.0,0.0,0.0,0.0,0.0,0.0,0.0,0.0,0.0,0.0,0.0,0.0,0.0,0.0,0.0,0.0,0.0,0.0,0.0,0.0,0.0,0.0,0.0,0.0,0.0,0.0,0.0,0.0,0.0,0.0,0.0,0.0,0.0,0.0,0.0,0.0,0.0,0.0,0.0,0.0,0.0,0.0,0.0,0.0,0.0,0.0,0.0,0.0,0.0,0.0,0.0,0.0,0.0,0.0,0.0,0.0,0.0,0.0,0.0,0.0,0.0,0.0,0.0,0.0,0.0,0.0,0.0,0.0,0.0,0.0,0.0,0.0,0.0,0.0,0.0,0.0,0.0,0.0,0.0,0.0,0.0,0.0,0.0,0.0,0.0,0.0,0.0,0.0,0.0,0.0,0.0,0.0,0.0,0.0,0.0,0.0,0.0,0.0,0.0,0.0,0.0,0.0,0.0,0.0,0.0,0.0,0.0,0.0,0.0,0.0,0.0,0.0,0.0,0.0,0.0,0.0,0.0,0.0,0.0,0.0,0.0,0.0,0.0,0.0,0.0,0.0,0.0,0.0,0.0,0.0,0.0,0.0,0.0,0.0,0.0,0.0,0.0,0.0,0.0,0.0,0.0,0.0,0.0,0.0,0.0,0.0,0.0,0.0,0.0,0.0,0.0,0.0,0.0,0.0,0.0,0.0,0.0,0.0,0.0,0.0,0.0,0.0,0.0,0.0,0.0,0.0,0.0,0.0,0.0,0.0,0.0,0.0,0.0,0.0,0.0,0.0,0.0,0.0,0.0,0.0,0.0,0.0,0.0,0.0,0.0,0.0,0.0,0.0,0.0,0.0,0.0,0.0,0.0,0.0,0.0,0.0,0.0,0.0,0.0,0.0,0.0,0.0,0.0,0.0,0.0,0.0,0.0,0.0,0.0,0.0,0.0,0.0,0.0,0.0,0.0,0.0,0.0,0.0,0.0,0.0,0.0,0.0,0.0,0.0,0.0,0.0,0.0,0.0,0.0,0.0,0.0,0.0,0.0,0.0,0.0,0.0,0.0,0.0,0.0,0.0,0.0,0.0,0.0,0.0,0.0,0.0,0.0,0.0,0.0,0.0,0.0,0.0,0.0,0.0,0.0,0.0,0.0,0.0,0.0,0.0,0.0,0.0,0.0,0.0,0.0,0.0,0.0,0.0,0.0,0.0,0.0,0.0,0.0,0.0,0.0,0.0,0.0,0.0,0.0,0.0,0.0,0.0,0.0,0.0,0.0,0.0,0.0,0.0,0.0,0.0,0.0,0.0,0.0,0.0,0.0,0.0,0.0,0.0,0.0,0.0,0.0,0.0,0.0,0.0,0.0,0.0,0.0,0.0,0.0,0.0,0.0,0.0,0.0,0.0,0.0,0.0,0.0,0.0,0.0,0.0,0.0,0.0,0.0,0.0,0.0,0.0,0.0,0.0,0.0,0.0,0.0,0.0,0.0,0.0,0.0,0.0,0.0,0.0,0.0,0.0,0.0,0.0,0.0,0.0,0.0,0.0,0.0,0.0,0.0,0.0,0.0,0.0,0.0,0.0,0.0,0.0,0.0,0.0,0.0,0.0,0.0,0.0,0.0,0.0,0.0,0.0,0.0,0.0,0.0,0.0,0.0,0.0,0.0,0.0,0.0,0.0,0.0,0.0,0.0,0.0,0.0,0.0,0.0,0.0,0.0,0.0,0.0,0.0,0.0,0.0,0.0,0.0,0.0,0.0,0.0,0.0,0.0,0.0,0.0,4.0144,3.9379,0.0,0.0,0.0,0.0,0.0,0.0,0.0,0.0,0.0,0.0,0.0,0.0,0.0,0.0,0.0,0.0,0.0,0.0,0.0,0.0,0.0,0.0,0.0,0.0,0.0,0.0,0.0,0.0,0.0,0.0,0.0,0.0,0.0,0.0,0.0,0.0,0.0,0.0,2.8367,2.8246,2.7845,2.7454,2.7238,2.7234,0.0,0.0,0.0,0.0,0.0,0.0,0.0,0.0,0.0,0.0,0.0,0.0,0.0,0.0,0.0,0.0,0.0,0.0,0.0,0.0,0.0,0.0,0.0,0.0,0.0,0.0,0.0,0.0,0.0,0.0,0.0,0.0,0.0,0.0,0.0,0.0,0.0,0.0,0.0,0.0,0.0,0.0,0.0,0.0,0.0,0.0,0.0,0.0,0.0,0.0,0.0,0.0,0.0,0.0,0.0,0.0,0.0,0.0,0.0,0.0,0.0,0.0,0.0,0.0,0.0,0.0,0.0,0.0,0.0,0.0,4.3019,4.1569,0.0,0.0,0.0,0.0,0.0,0.0,0.0,0.0,0.0,0.0,0.0,0.0,0.0,0.0,0.0,0.0,0.0,0.0,0.0,0.0,0.0,0.0,0.0,0.0,0.0,0.0,0.0,0.0,0.0,0.0,0.0,0.0,0.0,0.0,0.0,0.0,0.0,0.0,2.8608,2.8467,2.8112,2.7925,2.7722,2.7573,2.7576,0.0,0.0,0.0,0.0,0.0,0.0,0.0,0.0,0.0,0.0,0.0,0.0,0.0,0.0,0.0,0.0,0.0,0.0,0.0,0.0,0.0,0.0,0.0,0.0,0.0,0.0,0.0,0.0,0.0,0.0,0.0,0.0,0.0,0.0,0.0,0.0,0.0,0.0,0.0,0.0,0.0,0.0,0.0,0.0,0.0,0.0,0.0,0.0,0.0,0.0,0.0,0.0,0.0,0.0,0.0,0.0,0.0,0.0,0.0,0.0,0.0,0.0,0.0,4.7344,4.8054,4.9419,4.9542,4.9535,4.9263,4.6431,4.4707,4.3956,4.4303,0.0,0.0,0.0,0.0,0.0,0.0,0.0,0.0,0.0,0.0,0.0,0.0,0.0,0.0,0.0,0.0,0.0,0.0,0.0,0.0,0.0,0.0,2.8778,2.8869,2.8791,2.8699,0.0,0.0,0.0,0.0,0.0,0.0,0.0,2.9269,2.9428,2.9534,2.965,2.9426,2.8941,2.8516,2.8274,2.8148,2.7522,2.7509,2.7902,0.0,0.0,0.0,0.0,0.0,0.0,0.0,0.0,0.0,0.0,0.0,0.0,0.0,0.0,0.0,0.0,0.0,0.0,0.0,0.0,0.0,0.0,0.0,0.0,0.0,0.0,0.0,0.0,0.0,0.0,0.0,0.0,0.0,0.0,0.0,0.0,0.0,0.0,0.0,0.0,0.0,4.0633,4.2232,0.0,0.0,0.0,0.0,0.0,0.0,0.0,0.0,0.0,0.0,0.0,0.0,0.0,4.754,4.8873,4.8831,4.9317,5.0335,5.0335,5.0807,5.1778,5.1778,5.1417,5.0728,5.0424,0.0,4.7636,4.7215,0.0,0.0,0.0,0.0,0.0,0.0,0.0,0.0,0.0,0.0,0.0,0.0,0.0,0.0,0.0,0.0,0.0,0.0,0.0,0.0,0.0,2.8966,2.8921,2.919,2.9387,2.931,2.8824,0.0,0.0,0.0,0.0,0.0,0.0,3.0384,3.074,3.1086,3.0835,3.0637,3.0458,2.99,2.9491,2.9109,2.8237,2.7965,2.8094,2.7609,0.0,0.0,0.0,0.0,0.0,0.0,0.0,0.0,0.0,0.0,0.0,0.0,0.0,0.0,0.0,0.0,0.0,0.0,0.0,0.0,0.0,0.0,0.0,0.0,0.0,0.0,0.0,0.0,0.0,0.0,0.0,0.0,0.0,0.0,0.0,0.0,0.0,0.0,0.0,4.1161,4.3242,4.5367,4.4284,4.3359,0.0,0.0,0.0,0.0,0.0,0.0,0.0,0.0,0.0,4.8566,4.9413,5.027,5.1302,5.0869,5.1042,5.1827,5.1529,5.1836,5.2648,5.2799,5.2665,5.2389,5.252,5.1906,5.0784,4.934,4.8033,4.7015,0.0,0.0,0.0,0.0,4.6641,4.7322,0.0,0.0,0.0,0.0,0.0,0.0,0.0,0.0,0.0,0.0,0.0,0.0,2.9122,2.9058,2.9154,2.9639,2.9946,2.9917,2.9403,0.0,0.0,0.0,0.0,0.0,0.0,3.1755,3.205,3.2219,3.1784,3.1482,3.1196,3.0527,2.9941,2.9373,2.8512,2.8149,2.8247,2.7661,2.7298,2.7123,0.0,0.0,0.0,0.0,0.0,0.0,0.0,0.0,0.0,0.0,0.0,0.0,0.0,0.0,0.0,0.0,0.0,0.0,0.0,0.0,0.0,0.0,0.0,0.0,0.0,0.0,0.0,0.0,0.0,0.0,0.0,0.0,0.0,0.0,0.0,0.0,0.0,4.3848,4.5528,4.7818,4.6922,4.6191,0.0,0.0,0.0,0.0,0.0,0.0,4.709,4.8655,4.9943,5.0731,5.185,5.2814,5.3509,5.2739,5.2634,5.3177,5.252,5.2579,5.3291,5.3492,5.3548,5.3478,5.3513,5.3242,5.2641,5.112,4.9882,4.8954,4.9191,4.8956,4.8431,4.8475,4.8854,4.936,0.0,0.0,0.0,0.0,0.0,0.0,0.0,0.0,0.0,0.0,0.0,2.881,2.956,2.9144,2.918,3.0093,3.0087,3.0027,3.0031,3.0493,3.0834,3.1033,3.1828,0.0,0.0,0.0,3.311,3.221,3.2107,3.1518,3.0428,2.9633,2.8934,2.8355,2.7586,2.7746,2.8366,2.6776,2.6442,2.6946,0.0,0.0,0.0,0.0,0.0,0.0,0.0,0.0,0.0,0.0,0.0,0.0,0.0,0.0,0.0,0.0,0.0,0.0,0.0,0.0,0.0,0.0,0.0,0.0,0.0,0.0,0.0,0.0,0.0,0.0,0.0,0.0,0.0,0.0,0.0,0.0,0.0,0.0,0.0,4.922,4.8665,0.0,0.0,0.0,0.0,4.9702,5.028,5.1191,5.2623,5.2651,5.3315,5.4686,5.4811,5.5109,5.572,5.4959,5.4626,5.4737,5.3956,5.378,5.4148,5.4269,5.4008,5.3387,5.3532,5.3204,5.2608,5.2623,5.2444,5.2094,5.218,5.1801,5.1282,5.1395,5.1395,5.1431,0.0,0.0,0.0,0.0,0.0,0.0,0.0,0.0,0.0,2.9151,2.8814,2.8989,2.996,2.9621,2.9795,3.0937,3.0381,3.0074,3.0212,3.0551,3.081,3.0973,3.2199,0.0,0.0,0.0,3.3474,3.2861,3.259,3.1866,3.064,2.9778,2.8748,2.7642,2.7074,2.6765,2.6603,2.639,2.6353,2.6341,2.6213,2.6086,0.0,0.0,0.0,0.0,0.0,0.0,0.0,0.0,0.0,0.0,0.0,0.0,0.0,0.0,0.0,0.0,0.0,0.0,0.0,0.0,0.0,0.0,0.0,0.0,0.0,0.0,0.0,0.0,0.0,0.0,0.0,0.0,0.0,0.0,0.0,0.0,0.0,5.2708,5.2257,0.0,5.2046,5.1682,5.1718,5.2472,5.2735,5.323,5.4236,5.4643,5.5098,5.5623,5.6145,5.6255,5.5969,5.5161,5.4547,5.4044,5.3235,5.2954,5.3146,5.2752,5.2799,5.3099,5.2766,5.2828,5.3193,5.3329,5.312,5.2761,5.2806,5.2693,5.2523,5.2547,5.2547,5.2547,0.0,0.0,0.0,0.0,0.0,0.0,0.0,0.0,0.0,2.9297,2.9005,2.9174,3.004,2.9798,2.9983,3.0977,3.0439,3.0145,3.0283,3.0781,3.1105,3.125,3.2735,0.0,0.0,3.4265,3.3796,3.2968,3.2584,3.165,3.0178,2.9281,2.8217,2.7104,2.6497,2.5921,2.5474,2.59,2.5905,2.5648,2.5647,2.554,2.5423,0.0,0.0,0.0,0.0,0.0,0.0,0.0,0.0,0.0,0.0,0.0,0.0,0.0,0.0,0.0,0.0,0.0,0.0,0.0,0.0,0.0,0.0,0.0,0.0,0.0,0.0,0.0,0.0,0.0,0.0,0.0,0.0,0.0,0.0,5.1227,5.2752,5.4713,5.4459,5.4197,5.4355,5.421,5.4355,5.4839,5.5131,5.5486,5.592,5.643,5.6685,5.6685,5.6909,5.68,5.6273,5.5163,5.4345,5.3818,5.2744,5.2324,5.2393,5.1694,5.1747,5.233,5.1999,5.2229,5.2881,5.3312,5.3292,5.3093,5.3584,5.3828,5.3832,5.3832,5.3481,5.2964,0.0,0.0,0.0,0.0,0.0,0.0,0.0,0.0,2.9861,2.957,2.9341,2.937,2.9783,2.9642,2.9719,3.0202,3.0208,3.0226,3.0309,3.1219,3.1815,3.1957,0.0,0.0,3.518,3.5043,3.4141,3.2484,3.2004,3.0817,2.8987,2.8213,2.7445,2.6745,2.5849,2.5282,2.5114,2.5175,2.5064,2.4912,2.4834,2.4832,2.4966,0.0,0.0,0.0,0.0,0.0,0.0,0.0,0.0,0.0,0.0,0.0,0.0,0.0,0.0,0.0,0.0,0.0,0.0,0.0,0.0,0.0,0.0,0.0,0.0,0.0,0.0,0.0,0.0,0.0,0.0,0.0,0.0,0.0,5.1985,5.3193,5.4282,5.5,5.5109,5.5138,5.5295,5.6145,5.6713,5.6867,5.7583,5.8024,5.8006,5.8006,5.7987,5.7923,5.7171,5.6748,5.673,5.5115,5.4308,5.4252,5.2674,5.2004,5.2085,5.1316,5.1044,5.1139,5.1285,5.1465,5.17,5.2607,5.3028,5.3249,5.4724,5.5286,5.5286,5.5286,5.424,5.2655,0.0,0.0,0.0,0.0,0.0,0.0,0.0,2.9276,2.9355,2.9804,2.978,2.9906,3.0466,3.042,3.0649,3.1302,3.0751,3.0373,3.0423,3.0667,3.1562,3.3338,0.0,0.0,3.498,3.4415,3.3517,3.2288,3.144,3.0348,2.9053,2.8406,2.7463,2.6348,2.6062,2.5543,2.4971,2.5106,2.4955,2.4727,2.5508,2.6021,2.6258,0.0,0.0,0.0,0.0,0.0,0.0,0.0,0.0,0.0,0.0,0.0,0.0,0.0,0.0,0.0,0.0,0.0,0.0,0.0,0.0,0.0,0.0,0.0,0.0,0.0,0.0,0.0,0.0,0.0,0.0,0.0,5.1877,5.3813,5.4902,5.5831,5.6645,5.7457,5.7549,5.7549,5.7611,5.7901,5.8153,5.8196,5.84,5.8209,5.7579,5.7542,5.7302,5.6728,5.6487,5.608,5.5488,5.5025,5.4489,5.3915,5.2878,5.2417,5.2324,5.1083,5.0839,5.1377,5.1024,5.1232,5.1846,5.2316,5.2874,5.3527,5.433,5.4659,5.4659,5.4659,5.3949,5.2806,0.0,0.0,0.0,0.0,0.0,0.0,0.0,2.9418,2.9759,3.0132,3.0126,3.0226,3.0552,3.0559,3.0687,3.1047,3.058,3.0282,3.0302,3.0883,3.2002,3.3773,0.0,3.4452,3.4309,3.3533,3.2622,3.1612,3.0949,3.0072,2.9042,2.8553,2.7835,2.6891,2.6673,2.6184,2.5566,2.5748,2.5706,2.5511,2.6374,2.6652,2.6558,2.7132,2.8003,2.8885,2.9299,3.0133,3.1154,3.2255,0.0,0.0,0.0,0.0,0.0,0.0,0.0,0.0,0.0,0.0,0.0,0.0,0.0,0.0,0.0,0.0,0.0,0.0,0.0,0.0,0.0,0.0,0.0,0.0,5.4175,5.6086,5.7602,5.7917,5.8159,5.86,5.8656,5.8656,5.8656,5.8483,5.8319,5.8319,5.8042,5.7614,5.7111,5.7113,5.6928,5.648,5.6106,5.5658,5.523,5.482,5.4243,5.3478,5.2658,5.2097,5.1756,5.0486,5.0202,5.0698,5.0404,5.0541,5.1042,5.1622,5.2362,5.3205,0.0,0.0,0.0,0.0,5.3264,5.2554,0.0,0.0,0.0,0.0,0.0,0.0,0.0,2.9826,3.0358,3.0423,3.0354,3.0268,3.0202,3.0115,3.0046,2.9998,3.0004,3.0048,3.0185,3.1521,3.2667,3.3502,3.3521,3.3486,3.3412,3.2579,3.1712,3.0866,3.058,2.9971,2.9082,2.8782,2.8421,2.8038,2.7617,2.715,2.6727,2.6944,2.6933,2.6803,2.7394,2.7126,2.6549,2.8036,2.893,2.9535,3.0736,3.2109,3.3355,3.4122,0.0,0.0,0.0,0.0,0.0,0.0,0.0,0.0,0.0,0.0,0.0,0.0,0.0,0.0,0.0,0.0,0.0,0.0,0.0,0.0,0.0,0.0,0.0,0.0,5.6565,5.8141,5.9722,5.9344,5.8891,5.887,5.8831,5.8812,5.8719,5.8107,5.7697,5.7735,5.7099,5.6723,5.6629,5.6682,0.0,0.0,0.0,5.5411,5.5411,5.4572,5.3786,5.305,5.2259,5.148,5.079,4.9852,4.9495,4.9623,4.9663,4.9692,4.9778,5.0759,5.1676,5.2615,5.3584,5.441,5.4884,5.3128,5.2465,5.2163,0.0,0.0,0.0,0.0,0.0,0.0,0.0,2.8559,2.9138,3.0472,3.0029,2.9586,2.9581,2.8957,2.8779,2.9389,2.9442,2.9998,3.1287,3.1604,3.2148,3.3006,3.3044,3.2999,3.2929,3.2081,3.1489,3.12,3.0449,2.995,2.9645,2.947,2.9251,2.902,2.8759,2.8462,2.8105,2.8004,2.7814,2.7606,2.8237,2.8631,2.9022,2.9961,3.1114,3.2337,3.3355,3.4493,3.5632,3.622,3.7828,3.9571,4.0023,0.0,0.0,0.0,0.0,0.0,0.0,0.0,0.0,0.0,0.0,0.0,0.0,0.0,0.0,0.0,0.0,0.0,0.0,0.0,0.0,5.6964,5.8169,5.9128,6.0075,5.9471,5.8837,5.8578,5.8439,5.8104,5.75,5.7258,5.7164,5.7234,5.7118,5.6741,5.6082,5.6078,5.5777,5.515,5.4929,5.4853,5.4853,5.4716,5.4239,5.3371,5.2651,0.0,5.1008,5.0137,4.9721,4.9692,4.975,4.975,4.974,5.0115,5.1205,5.2806,5.4275,5.496,5.4903,5.321,5.2555,5.2327,0.0,0.0,0.0,0.0,0.0,0.0,0.0,2.8932,2.9793,3.0597,2.9937,2.9392,2.9393,2.8611,2.8449,2.9313,2.9776,3.0535,3.177,3.1786,3.2144,3.3014,3.2626,3.2385,3.2346,3.1493,3.103,3.0955,3.0028,2.9571,2.949,2.896,2.8875,2.9131,2.9007,2.9036,2.919,2.9027,2.8852,2.8711,2.8983,2.9761,3.0787,3.1116,3.2212,3.3727,3.4593,3.6078,3.7723,3.8231,4.0064,4.2162,4.2519,4.2828,4.3123,0.0,0.0,0.0,0.0,0.0,0.0,0.0,0.0,0.0,0.0,0.0,0.0,0.0,0.0,5.2746,0.0,0.0,5.6862,5.8534,5.9469,6.0138,6.0531,6.015,5.9519,5.8698,5.8089,5.7607,5.7177,5.6715,5.6455,5.6488,5.6177,5.5794,5.5423,5.5404,5.5246,5.486,5.4799,5.4767,5.4799,5.4829,5.4246,5.3063,5.2702,5.1882,5.0672,5.0195,4.9898,4.9843,4.9843,4.9816,4.9835,5.0871,5.1865,5.2927,5.4606,5.4981,5.444,5.3136,5.2405,5.1853,0.0,0.0,0.0,0.0,0.0,0.0,0.0,0.0,3.0386,3.0652,2.9784,2.9188,2.9367,2.8457,2.8281,2.9393,3.0257,3.1157,3.2196,3.1899,3.2152,3.3176,3.2225,3.1668,3.1646,3.098,3.0528,3.0349,2.9596,2.9235,2.9224,2.8469,2.8553,2.9338,2.9259,2.9525,3.0007,2.9898,2.9806,2.9749,2.9699,3.0655,3.2067,3.1971,3.3069,3.4763,3.5527,3.7283,3.9313,3.9892,4.1794,4.3977,4.451,4.471,4.4685,4.4257,4.3578,0.0,0.0,0.0,0.0,0.0,0.0,0.0,0.0,0.0,5.3293,5.3298,5.4825,5.644,5.7351,5.8182,5.8992,5.9824,6.0539,6.0983,6.0963,6.0747,6.0161,5.9035,5.8003,5.7256,5.6891,5.6192,5.575,5.5763,5.5189,5.4871,5.4931,5.4931,5.4941,5.5,5.4901,5.4871,5.4931,5.4819,5.4049,5.2679,5.2583,5.1778,5.0352,5.0231,5.0133,5.0038,4.9952,4.9898,5.0003,5.1692,5.2457,5.2738,5.4317,5.4432,5.3604,5.2971,5.224,5.1395,0.0,0.0,0.0,0.0,0.0,0.0,0.0,0.0,0.0,3.0492,2.9213,2.8456,2.9237,2.7906,2.7634,2.935,3.0293,3.1461,3.3051,3.1749,3.1637,3.3222,3.1718,3.0816,3.0753,3.0718,3.0271,2.9451,2.9394,2.9374,2.9374,2.9274,2.9682,3.0518,3.0435,3.0426,3.0427,3.0345,3.0321,3.0314,3.0296,3.1301,3.2773,3.2709,3.4169,3.6332,3.7016,3.8345,3.9932,4.078,4.2313,4.4175,4.5751,4.5797,4.545,4.6134,0.0,4.4082,4.4036,4.5218,4.6949,4.8777,5.0123,5.1237,0.0,0.0,5.5376,5.5439,5.6965,5.8557,5.9491,5.9799,6.0203,6.1064,6.1278,6.1294,6.1164,6.0547,5.9955,5.9629,5.85,5.7172,5.5753,5.5366,5.5199,5.5282,5.5151,5.5066,5.5066,5.5028,5.5,5.5,5.4971,5.5,5.5066,5.4492,5.3776,5.2947,5.2291,5.1489,5.0547,5.0502,5.0371,5.0255,5.0005,4.9978,5.0158,5.1186,5.1697,5.1935,5.296,5.2869,5.2199,5.2743,5.2407,5.1538,0.0,0.0,0.0,0.0,0.0,0.0,0.0,0.0,0.0,0.0,2.9418,2.8753,2.908,2.8567,2.8533,2.9377,3.0677,3.1942,3.3163,3.2592,3.2505,3.3204,3.2016,3.1095,3.0555,3.0573,3.0378,2.9932,2.9547,2.9332,2.9332,2.8817,2.9058,2.9881,2.9826,3.0046,3.0504,3.0476,3.0754,3.1207,3.1211,3.2279,3.3821,3.3799,3.5029,3.6834,3.7336,3.8813,0.0,0.0,4.2562,4.4505,4.5274,4.5951,4.6412,4.6289,4.5716,0.0,4.5218,4.624,0.0,0.0,5.1509,5.3245,5.4219,5.6344,5.7969,5.7521,5.8521,5.9607,6.004,6.0165,6.0507,0.0,6.1489,6.1437,6.1369,6.1056,6.0608,5.9985,5.9379,5.8289,5.6441,5.6127,5.583,5.5294,5.5203,5.5149,5.5094,5.5057,5.5,5.5,5.5,5.5038,5.5176,5.4498,5.3817,5.3121,5.2377,5.1549,5.072,5.0606,5.044,5.0212,5.0063,5.0057,5.0184,5.1152,5.1641,5.191,5.2857,5.2743,5.2104,5.2278,5.1811,5.0998,0.0,0.0,0.0,0.0,0.0,0.0,0.0,0.0,0.0,0.0,0.0,0.0,0.0,2.9319,2.9592,2.9695,3.0814,3.1988,3.3076,3.2914,3.2982,3.341,3.2541,3.1739,3.1077,3.0858,3.0597,3.0293,2.9786,2.9532,2.9504,2.9143,2.9414,3.0208,3.0169,3.0479,3.1078,3.1083,3.1464,3.2069,3.2084,3.3039,3.4468,3.4489,3.5559,3.7079,3.7507,3.8906,0.0,0.0,4.2402,4.3958,4.4448,4.5238,4.5905,4.5489,4.5344,4.5451,4.6196,0.0,0.0,5.0115,5.2305,5.4203,5.5229,5.7387,5.9033,5.843,5.9114,5.9815,5.9888,5.9944,6.0255,6.114,6.1237,6.1264,6.1459,6.146,6.1194,6.0536,6.0379,5.9661,5.795,5.742,5.6783,5.5878,5.5702,5.5504,5.5222,5.5066,5.5028,5.5028,5.5028,5.5094,5.5229,5.4364,5.3697,5.3244,5.2277,5.1479,5.0844,5.0682,5.0485,5.0255,5.0182,5.0158,5.0245,5.1006,5.1429,5.1664,5.2392,5.2362,5.1889,5.1736,5.1241,5.0644,0.0,0.0,0.0,0.0,0.0,0.0,0.0,0.0,0.0,0.0,0.0,0.0,0.0,0.0,3.0378,3.0453,3.0509,3.1243,3.29,3.2202,3.2405,3.3915,3.3144,3.2598,3.2438,3.1741,3.092,3.0018,3.0117,3.0138,3.0112,3.0969,3.1793,3.2507,3.2507,3.2507,3.2546,3.2546,3.2637,3.2763,3.2779,3.3441,3.4404,3.4477,3.5584,3.7187,3.7845,0.0,0.0,0.0,4.1724,4.2047,4.3633,4.356,0.0,4.3843,4.4012,4.4508,4.704,0.0,4.8507,5.1105,5.255,5.3582,5.4594,5.6296,5.7663,5.7633,5.8379,5.9045,5.9128,5.9149,5.9428,6.0281,6.0428,6.0676,6.1402,6.151,6.1456,6.1375,6.1347,6.1002,0.0,5.901,5.7987,5.7116,5.6844,5.6362,5.5446,5.5203,5.5094,5.5094,5.5094,5.5149,5.5281,5.3925,5.3302,5.3391,5.1861,5.1073,5.0971,5.0718,5.0506,5.039,5.0325,5.0325,5.0416,5.0566,5.0701,5.0841,5.1014,5.1097,5.1125,5.1125,5.0979,5.0793,0.0,0.0,0.0,0.0,0.0,0.0,0.0,0.0,0.0,0.0,0.0,0.0,0.0,0.0,0.0,0.0,0.0,0.0,3.2672,3.2957,3.3276,3.3722,3.3368,3.2844,3.2185,3.1921,3.1675,3.1393,3.1482,3.1517,3.1517,3.1765,3.2013,3.2204,3.2109,3.209,3.2128,3.2185,3.2958,3.4125,3.4222,3.5215,3.6671,3.6779,3.7275,3.8018,0.0,0.0,0.0,0.0,0.0,0.0,4.1696,4.2383,4.3131,4.3867,4.4499,4.5419,4.7453,0.0,4.8791,5.1406,5.2798,5.3892,5.545,5.6764,5.7516,5.6978,5.7129,5.7196,5.6678,5.7051,5.7734,5.8592,5.9192,5.9812,6.059,6.0672,6.0834,6.1336,6.14,0.0,0.0,0.0,0.0,5.8105,5.7928,5.7415,5.6381,5.625,5.5925,5.5248,5.5333,5.5408,5.5504,5.4052,5.3393,5.3445,5.1803,5.099,5.0932,5.07,5.0566,5.0478,5.0438,5.0462,5.0546,5.0681,5.0819,5.0947,5.1023,5.1102,5.1166,5.1121,5.1034,5.0909,0.0,0.0,0.0,0.0,0.0,0.0,0.0,0.0,0.0,0.0,0.0,0.0,0.0,0.0,0.0,0.0,0.0,0.0,3.1974,3.2743,3.3204,3.3349,3.3508,3.3306,3.2646,3.2329,3.218,3.224,3.231,3.2481,3.2735,3.2993,3.3204,3.3382,3.3309,3.329,3.3364,3.3496,3.4297,3.5472,3.5642,3.6483,3.7687,3.7858,3.8047,0.0,0.0,0.0,0.0,0.0,0.0,0.0,4.0787,4.1654,4.2876,4.3932,4.4662,4.5563,4.7667,4.8307,4.8938,5.1275,5.2525,5.351,5.4704,5.5693,5.6205,5.5712,5.5366,5.5078,5.4879,5.505,5.5695,5.7186,5.787,5.8694,6.0106,6.0263,6.0533,6.1317,6.14,6.14,0.0,0.0,0.0,5.9105,5.8935,5.8335,5.7011,5.6867,5.6414,5.5456,5.5489,5.5558,5.5643,5.4168,5.3185,5.2666,5.1562,5.099,5.0897,5.072,5.0606,5.0544,5.0565,5.0606,5.0662,5.051,5.0502,5.0552,5.0287,5.0409,5.07,5.0623,5.0729,5.0909,0.0,0.0,0.0,0.0,0.0,0.0,0.0,0.0,0.0,0.0,0.0,0.0,0.0,0.0,0.0,0.0,0.0,0.0,3.094,3.1559,3.2213,3.2858,3.3536,3.3858,3.378,3.2947,3.2525,3.2525,3.2603,3.2999,3.3735,3.4513,3.5214,3.5854,3.5854,3.5897,3.5981,3.6182,3.6454,3.6782,3.6962,3.7235,3.7565,3.7881,0.0,0.0,0.0,0.0,0.0,0.0,0.0,0.0,0.0,4.1482,4.2361,4.4018,4.453,4.5124,4.7792,4.8541,4.8996,5.0753,5.1833,5.2472,5.2571,5.323,5.3842,5.3864,5.3202,5.2861,0.0,0.0,5.3474,5.6046,5.6503,5.7396,5.9892,6.0231,6.0525,0.0,0.0,0.0,0.0,0.0,0.0,6.0146,0.0,5.9106,5.737,5.7099,5.6573,5.5647,5.5628,5.563,5.5653,5.4177,5.269,5.1202,5.114,5.102,5.0906,5.0773,5.0682,5.0625,5.0625,5.0696,5.0703,5.0012,4.975,4.9659,4.8883,4.9091,4.9802,4.9722,5.014,5.0793,0.0,0.0,0.0,0.0,0.0,0.0,0.0,0.0,0.0,0.0,0.0,0.0,0.0,0.0,0.0,0.0,0.0,0.0,3.0653,3.0767,3.1348,3.2548,3.2647,3.2837,3.3273,3.3063,3.2954,3.2936,3.2995,3.3459,3.4226,3.4285,3.4663,3.5303,3.5254,3.5337,3.558,3.5836,3.6512,3.747,0.0,3.8343,3.9199,0.0,0.0,0.0,0.0,0.0,0.0,0.0,0.0,0.0,0.0,4.3284,4.4008,4.4492,4.5556,4.6865,4.8282,4.9118,4.989,5.0996,5.1434,5.1776,5.2444,5.2817,5.2829,5.2186,5.1887,5.1606,0.0,0.0,0.0,5.4335,5.5214,0.0,5.8987,5.9326,0.0,6.124,0.0,6.1476,6.1476,6.1479,0.0,0.0,6.0992,6.0137,5.8329,5.8178,5.7465,5.596,5.5958,5.5666,5.5045,5.3475,5.2182,5.1202,5.1127,5.1062,5.0971,5.089,5.0844,5.0791,5.0165,4.9958,4.9993,4.9175,4.8863,4.8879,4.8638,4.9013,4.9708,4.9531,4.9931,5.0567,0.0,0.0,0.0,0.0,0.0,0.0,0.0,0.0,0.0,0.0,0.0,0.0,0.0,0.0,0.0,0.0,0.0,0.0,0.0,3.0088,3.0497,3.1202,3.1325,3.1691,3.2295,3.2268,3.2414,0.0,0.0,0.0,3.4008,3.3859,3.4198,3.4925,3.4907,3.503,3.5321,3.563,0.0,0.0,0.0,0.0,0.0,0.0,0.0,0.0,0.0,0.0,0.0,0.0,0.0,4.2391,4.4064,4.4898,4.5412,4.6222,0.0,4.8126,4.906,4.9666,5.0254,5.1123,5.1063,5.09,5.1381,5.1249,5.0858,5.0402,5.0002,0.0,5.0055,5.0507,5.1531,0.0,0.0,0.0,5.8741,5.935,6.0058,0.0,6.1529,0.0,6.1539,6.1537,6.1545,0.0,6.1448,6.0605,5.8869,5.8745,5.7779,5.5675,5.563,5.5061,5.3799,5.2899,5.2037,5.1206,5.1139,5.1069,5.1015,5.0971,5.0747,5.0349,4.9892,4.9523,4.9168,4.832,4.8196,4.8514,4.8096,4.8595,4.955,4.9412,4.9585,4.9882,0.0,0.0,0.0,0.0,0.0,0.0,0.0,0.0,0.0,0.0,0.0,0.0,0.0,0.0,0.0,0.0,0.0,0.0,0.0,0.0,0.0,0.0,2.9993,3.0495,3.1082,0.0,0.0,0.0,0.0,0.0,0.0,0.0,0.0,0.0,0.0,0.0,0.0,0.0,0.0,0.0,0.0,0.0,0.0,0.0,0.0,0.0,0.0,0.0,0.0,0.0,4.4582,4.423,4.5788,4.6352,4.6719,4.8139,4.862,4.8866,4.9571,4.984,5.0103,5.0873,5.0486,4.9922,4.9938,4.935,4.8777,4.873,0.0,4.8037,4.9501,4.9863,5.0789,5.3392,0.0,5.6925,5.8831,5.9703,6.0503,6.1483,6.1619,6.1615,6.1615,6.1615,6.1615,6.1615,6.1451,6.0668,5.9083,5.8831,5.7634,5.5171,5.4879,5.4032,5.2533,5.2387,5.1947,5.1189,5.1132,5.1082,5.1004,5.1015,5.0555,4.9722,4.9666,4.9149,4.8281,4.7451,4.7602,4.8257,4.7486,4.8083,4.9393,4.9297,4.9171,4.9033,0.0,0.0,0.0,0.0,0.0,0.0,0.0,0.0,0.0,0.0,2.8925,2.8479,0.0,0.0,0.0,0.0,0.0,0.0,0.0,0.0,0.0,0.0,2.9331,2.9532,0.0,0.0,0.0,0.0,0.0,0.0,0.0,0.0,0.0,0.0,0.0,0.0,0.0,0.0,0.0,0.0,0.0,0.0,0.0,0.0,0.0,0.0,0.0,0.0,0.0,0.0,4.5913,4.5922,4.6943,4.7716,4.8172,4.7803,4.8226,4.8666,4.8105,4.8475,4.9057,4.9211,4.9148,4.9026,4.9032,4.8915,0.0,0.0,4.7658,4.7686,4.7988,4.8621,4.9957,5.2519,5.3787,5.5534,5.8656,5.9217,5.9876,0.0,6.1651,6.1684,6.1672,6.1676,0.0,0.0,6.0994,6.0122,5.9053,5.8304,5.7049,5.5158,5.3759,5.2887,5.2598,5.1814,5.1346,5.1189,5.1194,5.1159,5.1082,5.1146,5.0661,4.975,4.9089,0.0,4.7447,4.6585,4.6693,4.739,4.7133,4.7964,4.9279,4.907,4.8948,4.8909,0.0,0.0,0.0,0.0,0.0,0.0,0.0,3.0651,3.0432,2.9986,2.9803,2.9339,2.8434,2.8512,2.8777,0.0,0.0,0.0,0.0,0.0,0.0,0.0,0.0,0.0,0.0,0.0,0.0,0.0,0.0,0.0,0.0,0.0,0.0,0.0,0.0,0.0,0.0,0.0,0.0,0.0,0.0,0.0,0.0,0.0,0.0,0.0,0.0,0.0,0.0,0.0,4.6523,4.6951,4.7369,4.7762,4.8082,4.8164,4.8454,4.8662,4.8239,4.8435,4.8733,4.8708,4.8385,4.8067,4.8067,0.0,0.0,0.0,4.6845,4.7006,4.7463,4.8255,0.0,5.1687,5.3493,5.5508,5.8064,5.9196,0.0,6.1498,6.1677,6.1699,0.0,6.1285,6.101,6.101,5.9795,5.9041,5.9051,5.6978,5.5397,5.4557,5.2862,5.1986,5.1971,5.1491,5.1248,5.1249,5.1228,5.1175,5.1139,5.119,5.0452,4.914,4.8763,4.785,4.6593,4.6131,4.6383,4.704,4.6923,4.7549,4.8505,4.8372,4.801,4.7571,0.0,0.0,0.0,0.0,0.0,0.0,0.0,3.0647,3.071,3.0634,3.0558,3.019,2.939,2.9112,2.92,0.0,0.0,0.0,0.0,0.0,0.0,0.0,0.0,0.0,0.0,0.0,0.0,0.0,0.0,0.0,0.0,0.0,0.0,0.0,0.0,0.0,0.0,0.0,0.0,0.0,0.0,0.0,0.0,0.0,0.0,0.0,0.0,0.0,0.0,0.0,4.6635,4.719,4.7171,4.743,4.7857,4.8337,4.8435,4.8359,4.8151,4.8109,4.8085,4.8029,4.7562,4.7075,4.7092,4.661,0.0,0.0,4.6195,4.639,4.7092,4.7928,4.903,0.0,5.2819,5.5043,5.6983,5.8589,6.0035,0.0,6.1422,0.0,6.1411,6.0799,0.0,6.0132,5.8495,5.7723,5.8235,5.5542,5.3902,5.3726,5.2207,5.14,5.1394,5.1357,5.131,5.1304,5.123,5.1197,5.1163,5.0977,5.0045,4.8557,4.8382,4.742,4.5937,4.5906,4.6263,4.6872,4.6799,4.7202,4.7799,4.7799,4.7217,4.6397,0.0,0.0,0.0,0.0,0.0,0.0,0.0,3.0282,3.0778,3.0697,3.0574,3.0433,3.0294,3.0084,2.9946,0.0,0.0,0.0,0.0,0.0,0.0,0.0,0.0,0.0,0.0,0.0,0.0,0.0,0.0,0.0,0.0,0.0,0.0,0.0,0.0,0.0,0.0,0.0,0.0,0.0,0.0,0.0,0.0,0.0,0.0,0.0,0.0,0.0,0.0,0.0,0.0,4.6215,4.6171,4.7276,4.8431,4.7648,0.0,0.0,4.6391,4.6154,4.6154,4.6143,4.6084,4.6057,4.6111,0.0,0.0,4.6102,4.6162,4.6215,4.624,4.6989,4.7911,0.0,0.0,5.2565,0.0,0.0,0.0,0.0,0.0,0.0,6.0514,6.0447,6.0065,5.9285,5.7544,5.6237,5.5595,5.4571,5.3637,5.2836,5.1891,5.1406,5.1404,5.1385,5.1352,5.1303,5.1219,5.118,5.1086,5.0285,4.9414,4.8464,4.7682,4.6752,0.0,4.581,4.6188,4.6801,4.6743,4.716,4.7799,4.7799,4.7239,4.6466,0.0,0.0,0.0,0.0,0.0,0.0,2.872,2.9007,2.938,2.9795,2.9784,2.9871,3.0285,3.0272,3.0142,2.9975,0.0,0.0,0.0,0.0,0.0,0.0,0.0,0.0,0.0,0.0,0.0,0.0,0.0,0.0,0.0,0.0,0.0,0.0,0.0,0.0,0.0,0.0,0.0,0.0,0.0,0.0,0.0,0.0,0.0,0.0,0.0,0.0,0.0,0.0,0.0,0.0,4.5893,4.637,0.0,0.0,4.6421,4.6326,4.5944,4.5833,4.5833,4.5786,4.5786,4.58,4.5854,0.0,4.591,4.5975,4.5997,4.6017,4.5977,4.6329,4.6872,0.0,0.0,0.0,5.342,0.0,0.0,5.8697,5.9322,0.0,0.0,0.0,5.8239,5.68,5.5548,5.4468,5.3615,5.3299,5.2991,5.265,5.1838,5.14,5.1405,5.1403,5.1385,5.1352,5.1284,5.1228,5.1141,5.0254,4.9384,4.8509,4.7604,4.6668,0.0,4.5668,4.5705,4.5839,4.5816,4.5984,4.6249,4.6334,4.6143,4.5793,0.0,0.0,0.0,0.0,0.0,2.7865,2.7811,2.7994,2.8405,2.9171,2.9207,2.9473,3.0234,3.0355,3.04,3.0521,3.0145,0.0,0.0,0.0,0.0,0.0,0.0,0.0,0.0,0.0,0.0,2.9799,2.9898,0.0,0.0,0.0,0.0,0.0,0.0,0.0,0.0,0.0,0.0,0.0,0.0,0.0,0.0,0.0,0.0,0.0,0.0,0.0,0.0,0.0,0.0,0.0,0.0,0.0,0.0,0.0,4.5776,4.5727,4.5684,4.5668,4.5668,4.5616,4.5426,4.525,0.0,0.0,4.5287,4.5346,4.5568,4.5761,4.5775,4.5867,4.6154,0.0,0.0,5.0166,5.1713,5.4131,0.0,0.0,0.0,5.8719,0.0,5.768,5.6394,5.484,5.3906,5.3157,5.2534,5.2072,5.1954,5.2233,5.1703,5.1408,5.1396,5.1405,5.1404,5.1408,5.1357,5.1167,5.0801,4.9926,4.9038,4.8133,4.7191,4.6394,0.0,4.5549,4.5381,4.5239,4.5235,4.5235,4.5258,4.54,4.5458,4.5458,0.0,0.0,0.0,0.0,0.0,0.0,2.6899,2.7523,2.8299,2.9091,2.9138,2.9434,3.0294,3.0451,3.0838,3.1712,3.0752,0.0,0.0,0.0,0.0,0.0,0.0,0.0,0.0,0.0,2.973,2.9794,2.9799,2.9805,0.0,0.0,0.0,0.0,0.0,0.0,0.0,0.0,0.0,0.0,0.0,0.0,0.0,0.0,0.0,0.0,0.0,0.0,0.0,0.0,0.0,0.0,0.0,0.0,0.0,0.0,4.5603,4.5568,4.5438,4.54,4.54,4.54,4.4748,4.4135,0.0,4.4116,4.4039,4.4096,4.4804,4.5417,4.549,4.5658,4.5854,4.5986,4.7531,0.0,4.9996,5.2373,0.0,0.0,0.0,5.7807,5.7815,5.6241,5.4826,5.3876,5.3011,0.0,5.2495,5.0925,5.0439,5.1375,5.1401,5.1398,5.1408,5.1396,5.1404,5.1404,5.1408,5.0918,4.9976,4.9031,4.8094,4.7165,4.6228,4.5723,0.0,4.5475,4.5361,4.5297,4.5297,4.53,4.5322,4.5513,4.5586,4.5586,0.0,0.0,0.0,0.0,0.0,0.0,0.0,2.6105,2.6715,2.8074,2.8217,2.8767,3.0235,3.0449,3.1093,3.2567,3.178,0.0,0.0,0.0,0.0,0.0,0.0,0.0,0.0,0.0,2.9393,2.9327,2.9233,2.9229,2.9324,2.9399,2.9544,0.0,0.0,0.0,0.0,0.0,0.0,0.0,0.0,0.0,0.0,0.0,0.0,0.0,0.0,0.0,0.0,0.0,0.0,0.0,0.0,0.0,0.0,0.0,0.0,0.0,4.5419,4.54,4.54,4.54,4.4648,4.3916,4.3978,4.3855,4.3751,4.3859,4.4548,4.5184,4.5381,4.5558,4.5916,4.6745,4.791,0.0,0.0,0.0,0.0,5.5501,5.5918,5.6087,0.0,0.0,5.3072,5.2094,5.1269,5.05,4.9858,4.9378,4.9549,5.0477,5.0503,5.0516,5.05,5.1101,5.1402,5.1406,5.1398,5.0937,5.003,4.9103,4.8156,4.7209,4.6228,4.5727,4.5584,4.5419,4.5298,4.5213,4.5213,4.5279,4.54,4.5547,4.5635,4.5668,0.0,0.0,0.0,0.0,0.0,0.0,0.0,2.5401,2.5957,2.7585,2.7811,2.8462,3.023,3.0794,3.1591,3.3007,3.2851,0.0,0.0,0.0,0.0,0.0,0.0,0.0,0.0,2.9181,2.8933,2.8716,2.8604,2.8644,2.881,2.8964,2.9219,2.9608,3.0769,0.0,0.0,0.0,0.0,0.0,0.0,0.0,3.7831,0.0,0.0,0.0,0.0,0.0,0.0,0.0,0.0,0.0,0.0,0.0,0.0,0.0,4.4251,4.4724,0.0,4.5111,4.482,4.4819,4.3795,0.0,0.0,4.2905,4.3018,4.3179,4.4136,4.5049,4.5302,4.5505,4.6002,4.7116,4.8106,4.9341,0.0,0.0,0.0,5.5128,0.0,0.0,0.0,5.3045,5.1791,5.0813,4.9982,4.9255,4.8672,4.8394,4.8522,4.9098,4.9434,4.9618,4.9602,5.0476,5.0913,5.0917,5.0913,5.0445,4.9586,4.8638,4.7699,4.6768,4.6087,4.5522,0.0,4.4881,4.4588,4.4257,4.426,4.4364,4.4555,4.5002,4.5218,4.5287,0.0,0.0,0.0,0.0,0.0,0.0,0.0,2.534,2.5887,2.7505,2.7776,2.8481,3.0224,3.1315,3.2264,3.3111,0.0,0.0,0.0,0.0,0.0,0.0,0.0,0.0,0.0,2.8723,2.8399,2.8075,2.801,2.8075,2.8324,2.8652,2.9067,2.957,3.0845,3.1615,3.2116,3.3856,3.5155,3.6073,3.6871,3.7653,0.0,0.0,0.0,0.0,0.0,0.0,0.0,0.0,0.0,0.0,0.0,0.0,0.0,0.0,0.0,0.0,0.0,4.4534,0.0,0.0,0.0,0.0,4.1089,4.1531,0.0,4.2184,4.3591,4.4919,4.5263,4.5594,4.6157,4.7237,4.8235,4.9527,0.0,5.3021,0.0,0.0,5.5134,0.0,5.2758,5.1757,5.0829,4.9894,4.9013,4.8502,4.8424,4.7664,4.7228,4.7221,4.8072,4.859,4.8714,4.9561,5.0016,5.0019,5.0014,4.955,4.866,4.7795,4.69,4.5991,4.5796,4.5125,4.4173,4.398,4.3403,4.2675,4.2677,4.2795,4.3111,4.4052,4.4399,4.4506,0.0,0.0,0.0,0.0,0.0,0.0,0.0,0.0,0.0,0.0,2.7505,2.8378,2.9522,3.1054,3.231,0.0,0.0,0.0,0.0,0.0,0.0,0.0,0.0,0.0,0.0,2.835,2.8055,2.7701,2.78,2.801,2.8324,2.8748,2.9196,2.9735,3.1565,3.3286,3.4827,3.472,3.5195,3.6012,3.6211,3.6424,0.0,0.0,0.0,0.0,3.9607,3.9785,0.0,0.0,0.0,0.0,0.0,0.0,0.0,0.0,4.1738,4.2382,4.3299,0.0,4.2959,4.2917,4.1961,4.1043,0.0,4.1122,4.1393,4.2191,0.0,0.0,4.5336,4.6253,4.7184,4.8201,4.9175,5.0619,5.2975,0.0,0.0,5.5271,5.3532,5.2153,5.1743,5.0308,4.9048,4.8152,4.7279,4.6505,4.5831,4.4974,4.4538,4.4585,4.5442,4.6521,4.7867,4.8691,4.912,4.9112,4.9111,4.861,4.7723,4.7498,4.6853,4.5879,4.5137,4.4537,4.4059,4.3269,4.2783,4.255,4.255,4.2698,4.2963,4.3244,4.3416,4.3535,0.0,0.0,0.0,0.0,0.0,0.0,0.0,0.0,0.0,0.0,0.0,0.0,0.0,0.0,0.0,0.0,0.0,0.0,0.0,0.0,0.0,0.0,0.0,3.0171,2.8583,2.8326,2.8055,2.7829,2.7992,2.8254,2.8585,2.9037,2.9494,3.0032,3.2066,3.4035,3.5815,3.5448,3.5781,3.6504,3.6085,0.0,0.0,0.0,0.0,0.0,3.8521,3.8587,0.0,3.7636,3.7359,3.7419,0.0,0.0,0.0,0.0,4.0527,4.0971,4.174,4.204,4.2123,4.2082,4.1266,4.0503,4.0571,0.0,0.0,0.0,0.0,0.0,0.0,0.0,4.7613,4.8597,4.9511,0.0,0.0,0.0,5.4373,5.3593,5.2255,5.1089,0.0,4.8986,4.7833,4.6975,4.6099,4.5235,4.4395,4.3903,4.3654,4.3706,4.4121,4.5017,4.6386,4.759,4.8203,4.8209,4.8176,4.7892,4.7396,4.6986,4.625,4.526,4.4736,4.3885,4.2852,4.2295,4.1772,4.1366,4.1388,4.1532,4.1759,4.2232,4.2499,4.2657,0.0,0.0,0.0,0.0,0.0,0.0,0.0,0.0,0.0,0.0,0.0,0.0,0.0,0.0,0.0,0.0,0.0,0.0,0.0,0.0,0.0,0.0,0.0,3.0662,2.8737,2.8504,2.8366,2.8244,2.8456,2.8695,2.9015,2.9418,2.9994,3.0751,3.2658,3.44,3.5918,3.6092,3.6557,3.7118,3.6426,0.0,0.0,0.0,0.0,0.0,0.0,0.0,0.0,3.627,3.5995,3.6129,3.686,0.0,0.0,0.0,0.0,0.0,4.0343,4.0939,4.136,4.1266,4.0614,3.9979,4.0059,0.0,0.0,0.0,0.0,0.0,0.0,4.695,0.0,0.0,0.0,0.0,5.2692,5.3418,5.3202,5.1587,5.1167,0.0,4.8762,4.7683,4.6794,4.6069,4.4958,4.4026,4.3338,4.3056,4.291,4.291,4.3091,4.359,4.4379,4.6054,4.6894,4.6897,4.6826,4.6797,4.6772,4.6035,4.522,4.4383,4.4186,0.0,4.1476,4.1284,4.0727,3.9996,3.9905,3.9986,4.0191,4.0871,4.1274,4.1629,0.0,0.0,0.0,0.0,0.0,0.0,0.0,0.0,0.0,0.0,0.0,0.0,0.0,0.0,0.0,0.0,0.0,0.0,0.0,0.0,0.0,0.0,3.1987,3.0902,2.9056,2.9049,2.9018,2.895,2.9154,2.9359,2.9593,2.9864,3.1023,3.2861,3.3984,3.5005,3.5948,3.6635,3.6961,3.7063,3.7544,0.0,0.0,0.0,0.0,0.0,0.0,0.0,0.0,3.6254,3.6007,3.6015,3.6168,0.0,0.0,0.0,0.0,0.0,3.9742,4.0273,4.0775,4.0673,4.0444,4.0262,4.0312,0.0,0.0,0.0,0.0,0.0,0.0,4.7946,4.9121,0.0,0.0,5.3494,0.0,0.0,5.2536,5.1528,0.0,4.8806,4.7806,4.624,4.5234,4.5109,4.2988,4.1636,4.1509,4.0096,3.9293,3.9295,4.0667,4.1479,4.1604,4.3325,4.4169,4.4114,4.41,4.4093,4.4093,4.3948,4.374,4.3453,0.0,4.2008,4.1437,4.0634,4.015,3.9857,3.9258,3.9071,3.9139,3.8649,3.8992,3.9817,0.0,0.0,0.0,0.0,0.0,0.0,0.0,0.0,0.0,0.0,0.0,0.0,0.0,0.0,0.0,0.0,0.0,0.0,0.0,0.0,0.0,3.347,3.276,3.1488,2.9514,2.9544,2.9588,2.9596,2.9737,2.992,3.0095,3.0828,3.1946,3.3337,3.4241,3.5314,3.6469,3.6755,3.7389,3.8181,0.0,0.0,0.0,0.0,0.0,0.0,0.0,0.0,0.0,0.0,3.5979,3.5995,3.5996,0.0,0.0,0.0,0.0,0.0,3.9404,3.9896,4.0267,4.0674,4.0648,4.066,4.1145,0.0,0.0,0.0,0.0,0.0,0.0,0.0,4.9528,5.1743,0.0,5.331,5.33,5.2145,5.0962,0.0,0.0,4.7571,4.6226,4.537,4.4331,4.2954,4.1757,4.0704,3.9804,3.8959,3.8509,3.8506,3.9214,3.9602,3.9595,4.0859,4.2174,4.3508,4.35,4.3501,4.351,4.351,4.3197,4.262,0.0,4.1517,4.0879,4.0405,3.9891,3.9376,3.9051,3.8684,3.8434,3.8642,3.8975,3.9418,0.0,0.0,0.0,0.0,0.0,0.0,0.0,0.0,0.0,0.0,0.0,0.0,0.0,0.0,0.0,0.0,0.0,0.0,0.0,0.0,3.5018,3.4302,3.3413,3.2085,3.027,3.0105,3.0053,3.0134,3.023,3.0464,3.0813,3.19,3.2831,3.3649,3.4503,3.5513,3.6596,3.6822,3.7674,3.881,0.0,0.0,0.0,0.0,0.0,0.0,0.0,0.0,0.0,0.0,0.0,0.0,0.0,0.0,0.0,3.6746,3.705,3.7525,3.9012,3.9565,3.9929,4.0805,0.0,4.1246,4.1926,0.0,0.0,0.0,0.0,0.0,0.0,4.8998,0.0,5.237,5.2707,5.2694,5.2693,5.1193,4.9786,4.8899,4.7858,4.6593,4.5052,4.4533,4.3409,4.1261,4.0717,3.9759,3.8064,3.792,3.7805,3.759,3.7921,3.8097,3.8097,3.8954,4.0373,4.2315,4.251,4.249,4.2277,4.2306,4.1897,4.1199,4.1081,4.0602,3.9858,3.9797,3.9363,3.875,3.8558,3.8024,3.7497,3.8637,3.9042,3.9129,0.0,0.0,0.0,0.0,0.0,0.0,0.0,0.0,0.0,0.0,0.0,0.0,0.0,0.0,0.0,0.0,0.0,0.0,0.0,0.0,3.454,3.4471,3.3585,3.2589,3.1482,3.0736,3.0431,3.0565,3.056,3.1055,3.199,3.2891,3.3745,3.4544,3.5343,3.5671,3.5695,3.7051,3.7666,3.7831,3.9279,0.0,0.0,0.0,0.0,0.0,0.0,0.0,0.0,0.0,0.0,0.0,0.0,0.0,3.6003,3.6072,3.6614,3.7391,3.8322,3.917,3.9998,4.0872,4.1646,0.0,4.2261,4.4153,0.0,4.6073,0.0,0.0,0.0,5.1281,5.2485,5.2668,5.2695,5.2692,5.2702,0.0,4.9772,4.8898,4.7326,4.593,4.4994,4.3442,4.2103,4.1163,3.9605,3.7926,3.6198,3.6091,3.5713,3.4911,3.6378,3.7178,3.7178,3.8052,3.8576,3.878,3.9587,3.9519,3.8685,3.8742,3.8704,3.8577,3.8496,3.838,3.8247,3.8188,3.8127,3.7998,3.7236,3.6479,3.5956,3.7533,3.8103,3.8306,0.0,0.0,0.0,0.0,0.0,0.0,0.0,0.0,0.0,0.0,0.0,0.0,0.0,0.0,0.0,0.0,0.0,0.0,0.0,0.0,3.4808,3.536,3.3996,3.3027,3.2598,3.1191,3.0524,3.0652,3.0708,3.1194,3.2114,3.2988,3.382,3.4632,3.5399,3.5902,3.6215,3.6599,3.73,3.8203,3.8826,3.8967,0.0,0.0,0.0,0.0,0.0,0.0,0.0,0.0,3.5139,3.5196,3.5188,3.5566,3.5994,3.5991,3.6218,3.6758,3.8185,3.8807,3.937,4.0762,4.2131,0.0,0.0,4.4744,4.6346,4.6895,4.7962,0.0,0.0,0.0,5.2694,5.2694,5.2707,5.2501,5.196,5.0396,4.8775,4.7345,4.6118,4.4845,4.3473,4.2259,4.1003,3.9641,3.7938,3.6426,3.5213,3.4597,3.4125,3.3796,3.4408,3.473,3.473,3.5557,3.5696,3.5202,3.7657,3.8617,3.8248,3.8257,3.8266,3.8233,3.8222,3.8199,3.8156,3.8131,3.7822,3.7293,3.6435,3.5905,3.5797,3.7443,3.804,3.8243,0.0,0.0,0.0,0.0,0.0,0.0,0.0,0.0,0.0,0.0,0.0,0.0,0.0,0.0,0.0,0.0,0.0,0.0,3.2401,3.3321,3.4209,3.5074,3.371,3.289,3.2829,3.1319,3.058,3.0645,3.0735,3.1211,3.2092,3.2987,3.3682,3.4215,3.4967,3.5314,3.5398,3.5644,3.6324,3.7288,3.7838,3.8159,0.0,0.0,0.0,0.0,0.0,0.0,0.0,0.0,3.4842,3.4755,3.5025,3.5524,3.5996,3.5995,3.5993,3.6381,3.8139,3.8607,3.9076,0.0,0.0,0.0,4.4042,4.5624,4.7193,4.7786,4.8591,0.0,0.0,0.0,0.0,0.0,5.146,5.1224,5.0628,4.9269,4.7805,4.6344,4.5168,4.3812,4.211,4.1181,3.9877,3.7929,3.6674,3.5371,3.3955,3.3512,3.3173,3.2907,3.3165,3.3293,3.3266,3.3805,3.3779,3.32,3.5523,3.6596,3.6566,3.6574,3.6563,3.6563,3.6593,3.6605,3.6616,3.6616,3.6463,3.6173,3.5863,3.5688,3.577,3.7199,3.7668,3.7824,0.0,0.0,0.0,0.0,0.0,0.0,0.0,0.0,0.0,0.0,0.0,0.0,0.0,0.0,0.0,0.0,0.0,0.0,3.0726,3.162,3.2485,3.3357,3.2556,3.207,3.1995,3.1073,3.0576,3.0501,3.0634,3.1158,3.2016,3.2944,3.3351,3.3329,3.4062,3.3759,3.2794,3.4206,3.4668,3.4667,3.6381,3.7241,3.7414,0.0,0.0,0.0,0.0,0.0,0.0,0.0,3.5304,3.4846,3.5725,3.5993,3.5996,3.5995,3.5993,3.6381,3.8139,3.8607,0.0,0.0,0.0,0.0,4.4804,4.6967,4.8786,4.8806,0.0,4.9827,4.8965,0.0,0.0,4.8806,4.874,4.8681,4.8681,4.7923,4.7048,4.6173,4.4578,4.2891,4.1142,4.0241,3.8717,3.6186,3.5971,3.4823,3.2248,3.2835,3.2863,3.2011,3.2807,3.3227,3.3164,3.3167,3.3141,3.307,3.3006,3.2976,3.301,3.301,3.301,3.301,3.3082,3.3151,3.3197,3.3195,3.3708,3.4561,3.5435,3.5699,3.5684,3.6559,3.6794,3.6949,0.0,0.0,0.0,0.0,0.0,0.0,0.0,0.0,0.0,0.0,0.0,0.0,0.0,0.0,0.0,0.0,0.0,0.0,3.0503,3.095,3.1773,3.3266,3.2456,3.1953,3.1931,3.1064,3.0584,3.0571,3.0704,3.1213,3.2072,3.2363,3.2778,3.3301,3.3433,3.3183,3.2718,3.2933,3.3597,3.4551,3.5127,3.5784,3.6462,0.0,0.0,0.0,0.0,0.0,0.0,0.0,0.0,0.0,3.4995,3.5519,3.5994,3.5996,3.5996,3.6386,3.8125,3.8592,0.0,4.1754,0.0,0.0,0.0,4.6503,0.0,0.0,4.9002,4.91,4.8782,0.0,0.0,4.8594,4.8573,4.8133,4.6888,4.6507,4.5576,4.352,4.2345,4.1032,3.933,3.7897,3.6514,3.5179,3.3943,3.2925,3.214,3.1154,3.0489,3.0171,2.9834,2.9897,3.0447,3.0403,3.0665,3.1191,3.0506,3.1155,3.2923,3.2878,3.2897,3.2923,3.2995,3.3081,3.3151,3.3242,3.3421,3.3674,3.3891,3.3916,3.4011,3.5465,3.5901,3.6041,0.0,0.0,0.0,0.0,0.0,0.0,0.0,0.0,0.0,0.0,0.0,0.0,0.0,0.0,0.0,0.0,0.0,0.0,0.0,2.9613,3.0529,3.1587,3.1403,3.1265,3.1269,3.0726,3.0468,3.0528,3.068,3.1035,3.1587,3.1911,3.1936,3.1724,3.1928,3.1688,3.1131,3.1265,3.1996,3.3112,3.3518,3.4262,3.5154,0.0,0.0,0.0,0.0,0.0,0.0,0.0,0.0,0.0,3.509,0.0,3.5991,3.5995,3.5996,3.6387,3.8125,0.0,0.0,4.1754,4.306,4.3935,4.4796,0.0,0.0,0.0,0.0,4.7116,4.6668,4.6589,0.0,4.6445,4.6416,4.6022,4.4937,4.4802,4.397,4.178,4.1094,3.9917,3.758,3.6443,3.511,3.3289,3.2187,3.1289,3.0594,2.9527,2.8903,2.8842,2.8337,2.8276,2.875,2.8705,2.8916,2.936,2.8763,2.9315,3.0829,3.0797,3.081,3.0899,3.1345,3.1574,3.168,3.2466,3.2761,3.2773,3.3075,3.3151,3.3227,3.4229,3.4501,3.4573,0.0,0.0,0.0,0.0,0.0,0.0,0.0,0.0,0.0,0.0,0.0,0.0,0.0,0.0,0.0,0.0,0.0,0.0,0.0,0.0,2.8936,2.9042,2.9796,3.0221,3.021,3.0132,3.0148,3.0263,3.0543,3.0696,3.0781,3.1496,3.0925,2.9285,2.994,2.9621,2.8612,2.929,3.0019,3.0847,3.1732,3.2726,3.371,3.4076,0.0,0.0,0.0,0.0,0.0,0.0,0.0,0.0,3.5835,3.6057,3.6026,3.6092,3.6053,3.6386,3.8125,0.0,0.0,4.175,4.3052,0.0,4.4598,4.5358,4.5714,4.4938,0.0,4.4364,4.3442,4.3188,4.3106,4.3047,4.2965,4.2888,4.2761,4.2726,4.2125,4.0439,4.0243,3.9004,3.586,3.5431,3.4042,3.0913,3.0597,2.985,2.8271,2.8055,2.7949,2.7884,2.7807,2.7782,2.7769,2.7769,2.7775,2.78,2.7649,2.7586,2.7587,2.7663,2.7739,2.7862,2.8782,2.9212,2.9389,3.0979,3.1647,3.1728,3.2438,3.2735,3.2742,3.2742,3.2659,3.2689,0.0,0.0,0.0,0.0,0.0,0.0,0.0,0.0,0.0,0.0,0.0,0.0,0.0,0.0,0.0,0.0,0.0,0.0,0.0,0.0,2.7672,2.8517,2.9266,2.9618,2.9516,2.939,2.9327,2.9303,3.0028,3.0429,3.0487,3.0559,3.0007,2.8984,2.9053,2.8522,2.7623,2.7714,2.8572,2.9908,3.0278,3.1362,3.288,3.3832,3.4392,0.0,0.0,0.0,0.0,0.0,0.0,0.0,3.6741,3.655,3.6122,3.6813,3.6541,3.6386,3.8125,3.859,0.0,0.0,4.3029,4.349,4.2994,4.2974,4.3221,4.3702,4.321,4.2597,4.2286,4.1627,4.1114,4.1027,4.1014,4.0768,4.006,4.0015,3.9431,3.7728,3.7038,3.5916,3.3949,3.2575,3.1204,2.9803,2.9071,2.852,2.8133,2.7464,2.7052,2.6985,2.632,2.6226,2.6802,2.6809,2.7121,2.7707,2.7012,2.6713,2.6783,2.7402,2.7781,2.7892,2.8154,2.8313,2.8419,2.8771,2.9295,2.9804,2.9303,2.9495,3.0045,3.0045,3.034,3.0885,0.0,0.0,0.0,0.0,0.0,0.0,0.0,0.0,0.0,0.0,0.0,0.0,0.0,0.0,0.0,0.0,0.0,0.0,0.0,0.0,2.6314,2.7809,2.8521,2.8802,2.8629,2.8338,2.8164,2.8091,2.8482,2.9068,2.9817,2.9723,2.9222,2.8343,2.7869,2.7395,2.6951,2.6577,2.7435,2.9044,2.9202,3.0354,3.2054,3.2731,3.333,3.3858,3.4432,0.0,0.0,0.0,0.0,0.0,0.0,0.0,3.6094,3.6532,3.636,3.6286,3.7617,0.0,0.0,4.1718,0.0,4.2331,4.2276,4.1585,4.1063,4.1421,4.1067,4.0546,4.0034,3.9208,3.8569,3.8542,3.8213,3.7808,3.7348,3.7306,3.6891,3.5655,3.5155,3.4156,3.2193,3.1203,3.0012,2.8325,2.7745,2.7272,2.6831,2.6381,2.6108,2.6034,2.5582,2.5514,2.5874,2.5891,2.6098,2.6496,2.6032,2.5865,2.594,2.6384,2.664,2.6737,2.7213,2.7454,2.7503,2.7918,2.8337,2.8636,2.8186,2.8212,2.8536,2.8525,2.8975,2.9639,0.0,0.0,0.0,0.0,0.0,0.0,0.0,0.0,0.0,0.0,0.0,0.0,0.0,0.0,0.0,0.0,0.0,0.0,0.0,0.0,0.0,2.7024,2.7548,2.7762,2.7685,2.7208,2.6922,2.6814,2.6678,0.0,0.0,0.0,2.8299,2.7453,2.6771,2.6414,2.635,2.5849,2.6635,2.826,2.8438,2.9529,3.1112,3.1488,3.2104,3.2859,3.3278,3.39,3.4574,3.4803,0.0,0.0,0.0,0.0,3.6013,3.6163,3.6113,3.6183,0.0,0.0,3.9306,4.1348,4.1292,0.0,4.1576,4.05,3.9259,3.8921,3.8796,3.845,3.7491,3.6602,3.5976,3.5842,3.528,3.4852,3.4879,3.4894,3.4553,3.366,3.3558,3.2706,3.0489,3.0125,2.918,2.7069,2.6698,2.6234,2.5434,2.5388,2.5341,2.5282,2.5282,2.525,2.5206,2.5206,2.5195,2.5191,2.5191,2.5236,2.5292,2.538,2.5406,2.5456,2.6246,2.6592,2.6651,2.7362,2.7702,2.776,2.7602,2.7557,2.7558,2.742,2.7917,2.8689,0.0,0.0,0.0,0.0,0.0,0.0,0.0,0.0,0.0,0.0,0.0,0.0,0.0,0.0,0.0,0.0,0.0,0.0,2.03,0.0,0.0,2.6185,2.6236,2.6371,2.6771,2.6302,2.5936,2.5635,0.0,0.0,0.0,0.0,0.0,2.6249,0.0,2.5977,2.5572,2.5709,2.6495,2.764,2.7951,2.8764,2.9869,3.088,3.1389,3.1763,3.3404,3.4119,3.439,3.5266,3.5671,0.0,0.0,0.0,3.606,3.6817,3.6554,3.6196,0.0,0.0,3.9705,0.0,3.9913,3.9791,0.0,0.0,3.8061,0.0,3.7002,3.6623,3.5566,3.4659,3.3862,3.3225,3.3029,3.3032,3.3201,3.3211,3.2678,3.1174,3.105,3.0419,2.8708,2.7847,2.7274,2.693,2.6139,2.5596,2.5415,2.5341,2.5274,2.5222,2.5209,2.5206,2.5191,2.5191,2.5191,2.5191,2.5195,2.5239,2.5292,2.537,2.544,2.5495,2.5673,2.5758,2.5751,2.5822,2.6246,2.6799,2.6051,2.613,2.6584,2.5822,2.6534,2.7854,0.0,0.0,0.0,0.0,0.0,0.0,0.0,0.0,0.0,0.0,0.0,0.0,0.0,0.0,0.0,1.4418,1.5757,1.7419,1.9562,2.174,2.3424,2.4495,2.538,2.5914,2.6087,2.5598,2.5182,2.4902,0.0,0.0,0.0,2.4805,2.5272,0.0,0.0,0.0,0.0,2.5056,2.5729,2.691,2.7307,2.8054,2.9074,0.0,3.002,3.0256,3.1184,3.2158,3.3119,3.3708,3.4591,3.5563,3.6075,0.0,0.0,0.0,3.6192,0.0,3.7048,3.7812,3.8435,0.0,3.8869,3.8789,3.8735,0.0,3.7217,3.6688,3.5818,3.499,3.4428,3.3219,3.2214,3.193,3.1153,3.0642,3.0802,3.0409,2.9854,2.922,2.9207,2.8798,2.7647,2.7187,2.6745,2.6205,2.5788,2.5517,2.5412,2.536,2.5332,2.5252,2.5231,2.5209,2.5198,2.5198,2.5198,2.5198,2.5209,2.5241,2.5293,2.536,2.544,2.5503,2.5564,2.5602,2.5589,2.5525,2.5703,2.5986,2.555,2.5582,2.577,2.5354,2.5953,2.6975,0.0,0.0,0.0,0.0,0.0,0.0,0.0,0.0,0.0,0.0,0.0,0.0,0.0,0.0,0.0,0.0,1.3828,1.5834,1.8705,2.0729,2.2181,2.2968,2.4459,2.5345,2.5572,2.5137,2.4799,0.0,0.0,0.0,2.3538,2.3334,2.3719,0.0,2.4246,0.0,0.0,0.0,0.0,0.0,0.0,0.0,0.0,0.0,0.0,0.0,0.0,0.0,0.0,0.0,0.0,0.0,0.0,3.5488,0.0,0.0,0.0,0.0,0.0,0.0,3.73,3.7819,3.7889,3.7762,0.0,0.0,3.6012,0.0,3.4389,3.333,3.3242,3.2131,3.1181,3.1043,2.9874,2.9039,2.9186,2.8463,2.7887,2.7815,2.7848,2.7542,2.6743,2.668,2.6376,2.5678,2.561,2.557,2.5468,2.544,2.5388,2.5322,2.5264,2.5224,2.5233,2.5233,2.5233,2.5233,2.5222,2.5243,2.5303,2.5379,2.5432,2.5495,2.5576,2.5596,2.5596,2.5525,2.549,2.5484,2.5432,2.536,2.5322,2.5264,2.5759,2.645,0.0,0.0,0.0,0.0,0.0,0.0,0.0,0.0,0.0,0.0,0.0,0.0,0.7646,0.8305,0.9313,1.0563,1.2223,1.4451,1.7302,1.8939,2.047,2.2094,2.321,0.0,2.5214,2.502,2.4879,0.0,0.0,0.0,2.3595,2.3009,2.2754,2.2754,2.3447,2.3952,2.4387,0.0,0.0,0.0,0.0,0.0,0.0,0.0,0.0,0.0,0.0,0.0,0.0,0.0,0.0,0.0,0.0,3.5215,3.5449,0.0,0.0,0.0,0.0,3.6523,0.0,3.6978,0.0,0.0,0.0,0.0,3.4007,3.3168,3.2278,3.1637,3.1623,3.1435,3.1077,3.036,2.9558,2.9056,2.9178,2.8509,2.7741,2.7048,2.6965,2.6646,2.5849,2.5762,2.5756,2.5707,2.5632,2.5605,2.5595,2.5524,2.5464,2.5406,2.5321,2.5293,2.5284,2.5284,2.5284,2.5284,2.5302,2.5302,2.5303,2.5361,2.5434,2.5492,2.5576,2.5596,2.5596,2.5525,2.549,2.5484,2.5429,2.5404,2.5387,2.5387,2.5909,2.6591,0.0,0.0,0.0,0.0,0.0,0.0,0.0,0.0,0.0,0.0,0.0,0.0,0.0,0.7385,0.8199,0.9421,1.19,1.434,1.6722,1.8428,2.0076,2.1774,2.3203,2.4358,2.5176,2.5346,0.0,0.0,0.0,2.4338,2.3894,2.3319,2.283,2.2526,2.2694,2.2935,2.3318,2.3819,0.0,0.0,0.0,0.0,0.0,0.0,0.0,0.0,0.0,0.0,0.0,0.0,0.0,0.0,3.3757,3.4375,3.5225,3.5629,0.0,0.0,0.0,0.0,0.0,3.5407,3.5191,3.4899,3.3953,3.3503,3.3168,3.2852,3.2133,3.1552,3.1563,3.103,3.0519,3.0305,2.9123,2.8272,2.8415,2.7252,2.6313,2.6081,2.6108,2.6019,2.5726,2.57,2.5703,2.5699,2.5681,2.5648,2.5605,2.5582,2.5538,2.5476,2.5437,2.5425,2.5425,2.5437,2.5422,2.5426,2.5374,2.5395,2.5423,2.5448,2.5488,2.5564,2.5587,2.5607,2.5596,2.557,2.5538,2.549,2.5464,2.5468,2.5464,2.5464,2.5625,2.5822,0.0,0.0,0.0,0.0,0.0,0.0,0.0,0.0,0.0,0.0,0.0,0.0,0.0,0.0,0.7443,0.9319,1.1809,1.4125,1.6136,1.7947,1.9647,2.1278,2.2962,2.4266,2.5098,2.5551,2.5775,0.0,0.0,0.0,0.0,2.3806,2.326,2.2785,2.2434,2.2402,0.0,0.0,0.0,2.3975,0.0,0.0,2.5652,0.0,0.0,0.0,0.0,0.0,0.0,0.0,0.0,0.0,0.0,3.4129,3.5225,3.5643,0.0,0.0,3.5877,0.0,0.0,0.0,0.0,3.3791,3.2603,0.0,3.223,3.1981,3.1506,3.1143,3.1168,3.0676,3.0196,2.9934,2.8741,2.7766,2.7585,2.637,2.5525,2.5581,2.5656,2.5701,2.5703,2.5696,2.5702,2.5703,2.5694,2.5671,2.5636,2.563,2.5604,2.5543,2.5535,2.5521,2.5532,2.5526,2.5393,2.5104,2.5053,2.5059,2.5098,2.5092,2.5278,2.559,2.5595,2.5605,2.5593,2.5607,2.557,2.5531,2.5506,2.5511,2.5536,2.5536,2.5495,2.5429,0.0,0.0,0.0,0.0,0.0,0.0,0.0,0.0,0.0,0.9884,0.0,0.0,0.0,0.0,0.0,1.0136,1.1878,1.3626,1.5483,1.7319,1.9054,2.0644,2.2424,2.3903,2.495,2.5589,2.6063,0.0,0.0,0.0,0.0,0.0,2.3864,2.3406,2.2785,2.2434,2.2217,0.0,2.2737,2.3319,0.0,2.4395,2.5053,0.0,0.0,0.0,2.9307,3.0149,0.0,3.1794,0.0,0.0,0.0,3.445,3.5333,3.5554,0.0,0.0,0.0,0.0,0.0,0.0,0.0,0.0,3.1726,0.0,3.107,3.0343,3.0213,3.0215,3.0292,3.0328,3.0083,2.9198,2.8412,2.7614,2.6803,2.6018,2.5518,2.5581,2.5656,2.5701,2.5698,2.5694,2.5702,2.5703,2.5697,2.5698,2.5694,2.5707,2.566,2.5605,2.5605,2.5605,2.5605,2.5605,2.5169,2.4296,2.4302,2.4297,2.4297,2.4297,2.4782,2.5605,2.5593,2.5605,2.5609,2.5595,2.559,2.5582,2.5525,2.5538,2.5596,2.5596,2.557,2.5492,0.0,0.0,0.0,0.0,0.0,0.0,1.7591,1.5654,1.3479,0.0,0.0,0.0,0.6326,0.6706,0.7767,0.9522,1.1184,1.3003,1.5046,1.6613,1.8343,2.0319,2.1945,2.3389,2.4601,2.5503,2.6154,0.0,0.0,0.0,0.0,0.0,0.0,0.0,2.3508,2.3113,2.2859,2.2646,0.0,0.0,2.3508,2.4268,0.0,0.0,0.0,0.0,0.0,3.0202,3.098,0.0,3.1915,3.1972,0.0,0.0,0.0,0.0,0.0,0.0,3.3935,0.0,0.0,0.0,0.0,0.0,0.0,0.0,3.0319,3.0166,3.0171,3.0213,3.0215,2.9819,2.9164,2.8299,2.8016,2.7614,2.6804,2.6014,2.5511,2.5587,2.5619,2.5655,2.5698,2.5694,2.5702,0.0,2.5696,2.5701,2.5707,2.5707,2.5698,2.5672,2.5675,2.5676,2.5679,2.5675,2.5238,2.4371,2.4381,2.4375,2.4375,2.4378,2.4859,2.5672,2.5673,2.5672,2.5668,2.5613,2.5604,2.5605,2.5568,2.5589,2.5596,2.5596,2.557,2.5492,0.0,0.0,0.0,0.0,0.0,1.9812,1.8442,1.6581,1.4499,0.0,0.0,0.0,0.6671,0.7085,0.8017,0.9321,1.0876,1.2555,1.444,1.5891,1.7573,1.9519,2.1137,2.2685,2.4066,2.515,2.5905,0.0,0.0,0.0,2.5828,2.5378,0.0,0.0,0.0,0.0,0.0,0.0,0.0,0.0,2.3216,0.0,0.0,2.5998,2.7354,0.0,0.0,0.0,3.0622,3.1116,3.1282,0.0,0.0,0.0,0.0,0.0,0.0,0.0,0.0,0.0,0.0,0.0,0.0,0.0,3.0097,2.9943,2.9991,0.0,3.0128,3.0056,2.9767,2.934,2.8648,2.7439,2.7322,2.7074,2.6274,2.5774,2.5524,2.5582,2.56,2.5623,2.5689,2.57,2.5703,2.5697,2.5707,2.5698,2.5693,2.5705,2.5696,2.5702,2.5703,2.5703,2.5703,2.5703,2.5253,2.4393,2.4037,2.4056,2.4389,2.4019,2.4529,2.5703,2.5702,2.5702,2.5699,2.5651,2.5625,2.5609,2.5599,2.5589,2.5564,2.557,2.5524,2.5498,0.0,0.0,2.1506,2.1506,2.1006,2.0245,1.9125,1.7335,1.5399,0.0,1.1002,0.889,0.0,0.719,0.7962,0.9302,1.0759,1.2189,1.3588,1.5148,1.6714,1.83,2.0065,2.1774,2.3387,2.4489,2.5411,0.0,0.0,0.0,0.0,0.0,0.0,0.0,0.0,0.0,0.0,0.0,0.0,2.2886,2.3053,2.3822,0.0,0.0,2.7292,2.8624,2.9665,2.9952,2.9829,3.0244,3.0654,0.0,0.0,0.0,0.0,0.0,3.2907,0.0,0.0,0.0,0.0,0.0,0.0,0.0,2.9978,2.9876,2.9962,0.0,3.0022,2.9761,2.9104,2.8849,2.8241,2.6745,2.6483,2.6207,2.5493,2.5464,2.5511,2.5599,2.5613,2.5634,2.5681,2.5703,2.5697,2.5698,2.569,2.5693,2.5701,2.5696,2.5702,2.5703,2.5702,2.57,2.57,2.5702,2.5253,2.4393,2.3613,2.3593,2.4237,2.3456,2.4003,2.5566,2.5566,2.5566,2.5561,2.5564,2.5522,2.5461,2.5443,2.5344,2.5214,2.5209,2.526,2.5352,0.0,0.0,2.0809,2.0957,2.0759,2.0295,1.9411,1.7981,1.6208,1.4164,1.094,0.0,0.0,0.0,0.0,0.8613,0.9888,1.108,1.2312,1.3862,1.5476,1.6971,1.8927,2.0647,2.2295,2.3573,2.4545,2.5259,0.0,0.0,0.0,0.0,0.0,0.0,0.0,0.0,0.0,0.0,0.0,2.3393,2.3422,0.0,2.488,2.5484,2.6498,2.774,2.8371,2.8749,2.8928,2.904,2.9461,2.9981,0.0,0.0,0.0,3.1037,0.0,0.0,0.0,0.0,0.0,0.0,0.0,0.0,2.9978,3.0007,3.0087,0.0,2.9575,2.9027,2.893,2.781,2.6821,2.6527,2.597,2.5514,2.5418,2.5453,2.5518,2.5595,2.5658,2.5693,2.5703,2.5696,2.5679,2.5613,2.5675,2.5707,2.5705,2.5698,2.5703,2.5703,2.5701,2.57,2.57,2.5702,2.5253,2.4394,2.4238,2.3867,2.3358,2.3183,2.3671,2.4648,2.4648,2.4646,2.4656,2.4654,2.4612,2.4557,2.4494,2.4044,2.3415,2.3412,2.381,2.4389,0.0,1.9206,1.9914,2.0346,2.0346,2.0093,1.9475,1.8209,1.6634,0.0,0.0,0.0,0.0,0.0,0.0,0.0,0.0,1.0465,1.1344,1.2801,1.4269,1.5686,1.7639,1.947,2.1145,2.2536,2.3603,2.4455,0.0,0.0,0.0,0.0,0.0,0.0,0.0,0.0,0.0,0.0,2.3154,2.3538,2.3494,0.0,2.5028,2.5388,2.632,2.7541,2.8027,2.8298,2.8352,2.8088,2.8435,0.0,0.0,2.9328,2.9517,0.0,2.957,2.9269,0.0,0.0,0.0,2.978,0.0,0.0,0.0,3.009,3.0166,3.0226,2.9497,2.8744,2.8364,2.7255,2.6281,2.591,2.5508,2.5283,2.5379,2.5468,2.5523,2.5598,2.5664,2.5683,2.5652,2.5651,2.5648,2.5609,2.564,2.5658,2.5703,2.5697,2.5702,2.5703,2.5703,2.5702,2.5702,2.5703,2.5488,2.5039,2.4609,2.418,2.373,2.3301,2.334,2.375,2.3746,2.3758,2.3745,2.3727,2.3422,2.3047,2.3405,2.3267,2.2852,2.281,2.3312,2.4015,1.6609,0.0,1.8732,1.9515,1.9734,1.9683,1.9319,1.8178,1.68,0.0,0.0,0.0,0.0,0.0,0.0,0.0,0.0,0.0,0.0,0.0,1.3314,1.4607,1.6446,1.8317,2.0016,2.137,2.2534,2.3462,2.3822,0.0,0.0,0.0,0.0,0.0,0.0,0.0,0.0,0.0,0.0,2.3566,0.0,2.4187,2.5106,2.5288,2.6103,2.7171,2.7531,2.7623,2.7571,2.7178,2.7555,2.8183,2.8654,2.8706,0.0,0.0,0.0,0.0,0.0,0.0,0.0,0.0,0.0,2.9907,0.0,0.0,0.0,3.033,2.9455,2.8485,0.0,0.0,0.0,2.5287,0.0,0.0,0.0,2.5473,0.0,2.583,2.5896,2.591,2.5866,2.5702,2.5668,2.5839,2.5687,2.5636,2.5698,2.5693,2.5699,2.5701,2.5702,2.5702,2.5702,2.5681,2.5681,2.5682,2.4977,2.4469,2.414,2.3415,2.3003,2.2846,2.2855,2.284,2.2842,2.2775,2.2233,2.152,2.232,2.2481,2.2284,2.2211,2.2699,2.3426,1.4636,1.6239,0.0,1.819,1.875,1.904,1.8721,1.7929,1.6644,0.0,0.0,0.0,0.0,0.0,0.0,0.0,0.0,0.0,1.084,0.0,0.0,1.4193,1.576,1.7359,1.8864,2.0195,2.1239,2.1932,2.2575,2.2831,0.0,0.0,0.0,0.0,2.2684,0.0,0.0,0.0,2.3201,0.0,2.3812,2.4197,0.0,2.482,2.525,2.5805,2.5673,2.5748,2.5941,0.0,2.6958,2.784,0.0,2.7939,2.8211,2.795,0.0,0.0,0.0,0.0,0.0,0.0,2.9197,0.0,0.0,0.0,3.0472,3.0481,0.0,0.0,0.0,0.0,0.0,0.0,0.0,0.0,2.5386,2.5508,2.5888,2.6652,2.6754,2.6757,2.6744,2.604,2.5912,2.6693,2.6048,2.5636,2.5698,2.5705,2.5709,2.5709,2.5707,2.5703,2.5696,2.5648,2.5648,2.5696,2.5531,2.4693,2.3237,2.3159,2.2686,2.1959,2.1951,2.1951,2.1943,2.1881,2.1294,2.055,2.1344,2.118,2.0488,2.0356,2.0861,2.172,1.3365,1.4915,0.0,0.0,1.8137,1.8588,1.8817,1.7739,0.0,0.0,0.0,0.0,0.0,0.0,0.0,0.0,0.0,1.0245,0.0,0.0,0.0,1.3751,1.5441,1.7002,1.8357,1.9877,2.0845,2.1257,2.1969,2.1965,0.0,0.0,0.0,0.0,2.1862,0.0,2.2449,0.0,2.3127,0.0,0.0,0.0,0.0,2.4484,2.4489,2.4638,2.4647,2.4758,2.4949,0.0,2.5656,0.0,0.0,0.0,0.0,0.0,0.0,0.0,0.0,0.0,0.0,0.0,0.0,0.0,3.0408,0.0,2.9848,0.0,0.0,0.0,0.0,0.0,0.0,0.0,2.5293,0.0,0.0,0.0,2.648,2.6854,0.0,0.0,2.7505,2.7239,2.6993,2.6844,2.6549,2.6155,2.5723,2.5693,2.5673,2.5645,2.5632,2.5617,2.5576,2.5561,2.5537,2.5537,2.5537,2.4667,2.3041,2.3034,2.2318,2.1052,2.1041,2.1044,2.1041,2.0975,2.0701,2.0335,2.0634,2.0469,2.0089,2.0019,2.0541,2.1409,1.2452,0.0,0.0,0.0,1.7599,1.8084,1.8539,1.7512,0.0,0.0,0.0,0.0,1.2498,1.1337,0.0,0.0,1.0654,1.0666,0.0,0.0,1.2851,0.0,0.0,0.0,0.0,1.9383,2.0249,2.0428,2.1172,2.1088,0.0,0.0,0.0,0.0,0.0,2.1841,2.2217,0.0,2.3038,2.3553,2.3952,2.4178,2.4334,2.4276,2.3964,2.3572,2.3782,2.394,2.4082,2.4201,2.4518,0.0,2.5086,0.0,0.0,0.0,0.0,0.0,2.5696,0.0,0.0,0.0,0.0,0.0,0.0,0.0,0.0,0.0,0.0,0.0,0.0,0.0,0.0,0.0,0.0,2.5425,0.0,2.613,0.0,0.0,0.0,0.0,0.0,2.8326,2.7826,2.7194,2.7001,2.6552,2.5745,2.5697,2.5671,2.5609,2.5581,2.5549,2.546,2.5432,2.5282,2.5031,2.5069,2.4219,2.261,2.2613,2.1838,2.0467,2.0463,2.0473,2.0473,2.0429,2.036,2.0296,2.026,2.0153,2.006,2.0009,2.0416,2.1086,1.1797,1.3314,0.0,0.0,0.0,0.0,0.0,0.0,0.0,0.0,0.0,0.0,0.0,0.0,0.0,0.0,0.0,1.1243,1.2158,0.0,1.3302,0.0,0.0,1.6372,0.0,0.0,1.9122,1.9244,2.0007,0.0,0.0,0.0,0.0,0.0,0.0,2.1949,2.2231,2.2709,2.3127,2.3553,2.3952,2.3725,2.3259,0.0,2.3847,2.2686,2.2861,0.0,0.0,2.3325,2.39,0.0,0.0,0.0,0.0,0.0,0.0,0.0,0.0,0.0,0.0,2.6231,0.0,0.0,0.0,0.0,2.8231,0.0,0.0,0.0,0.0,0.0,0.0,0.0,0.0,0.0,0.0,0.0,0.0,0.0,0.0,0.0,0.0,2.8991,2.8016,0.0,2.7342,2.6549,2.5738,2.5699,2.5663,2.5604,2.5544,2.5464,2.5395,2.5265,2.4822,2.4032,2.4062,2.3195,2.1647,2.1636,2.1184,2.0399,2.0395,2.039,2.0394,2.0396,2.0366,2.0304,2.0304,2.0242,2.0192,2.006,2.005,2.026,0.0,0.0,0.0,0.0,0.0,0.0,0.0,1.827,0.0,0.0,0.0,0.0,0.0,1.2755,1.2016,0.0,0.0,1.1458,1.2336,1.287,0.0,0.0,0.0,1.6738,0.0,0.0,0.0,0.0,0.0,0.0,0.0,0.0,0.0,0.0,0.0,2.1978,0.0,0.0,0.0,0.0,0.0,2.4264,2.3339,0.0,2.3062,2.1964,2.2101,2.2252,0.0,2.2429,2.2639,2.2878,2.2841,2.2986,2.3188,2.3206,2.3386,2.3666,0.0,0.0,2.4588,2.5716,0.0,0.0,0.0,0.0,0.0,0.0,0.0,0.0,0.0,0.0,0.0,0.0,0.0,0.0,0.0,0.0,0.0,0.0,0.0,0.0,0.0,0.0,0.0,2.8145,2.736,2.6534,2.5687,2.5632,2.5615,2.5607,2.5531,2.5448,2.5332,2.5233,2.4758,2.3872,2.3911,2.3063,2.1472,2.1504,2.1074,2.0275,2.0302,2.034,2.0334,2.0321,2.0354,2.0353,2.0327,2.0314,2.0314,2.0188,2.0156,2.0348,1.3031,0.0,0.0,0.0,0.0,0.0,0.0,0.0,0.0,0.0,1.656,0.0,1.4172,0.0,1.2587,0.0,1.1822,1.1857,1.2658,1.3207,0.0,1.4841,1.5896,0.0,0.0,0.0,0.0,0.0,0.0,2.0021,0.0,0.0,0.0,0.0,0.0,2.2453,2.2426,0.0,2.4395,0.0,0.0,2.4463,0.0,0.0,2.2508,2.1634,0.0,2.1869,2.194,2.1998,2.2027,2.2089,2.2248,2.2388,2.2517,2.2747,2.2915,2.31,2.332,2.3527,0.0,2.4781,2.5233,0.0,2.6512,0.0,2.6184,0.0,0.0,0.0,0.0,0.0,0.0,0.0,0.0,0.0,0.0,2.6367,0.0,0.0,0.0,0.0,0.0,0.0,2.8592,2.7744,2.7185,2.6525,2.5658,2.5595,2.5595,2.5576,2.5503,2.5406,2.5292,2.5187,2.4534,2.3339,2.3358,2.2505,2.0909,2.0976,2.0706,2.0167,2.0204,2.0227,2.0241,2.0248,2.0294,2.0327,2.0314,2.0334,2.0392,2.0269,2.0227,2.043,0.0,0.0,0.0,0.0,1.8455,0.0,0.0,0.0,1.8661,0.0,1.6856,1.5809,1.4547,1.3597,1.2977,1.2773,1.2445,1.2473,1.3012,1.353,0.0,0.0,1.58,1.6688,1.7639,0.0,0.0,0.0,0.0,0.0,0.0,0.0,0.0,0.0,2.2761,0.0,2.3319,2.4469,2.5137,2.5395,2.4863,2.4307,2.3737,2.2996,2.232,2.1754,2.1797,2.1899,2.2027,2.2027,2.2089,2.2214,2.2282,2.231,2.2338,2.2525,2.2579,2.2605,2.2686,2.2873,2.3112,2.3418,2.3759,0.0,0.0,0.0,2.5024,0.0,0.0,0.0,0.0,0.0,0.0,0.0,0.0,0.0,0.0,0.0,0.0,0.0,0.0,0.0,0.0,0.0,2.7738,2.7018,2.6926,2.6562,0.0,2.5687,2.5626,2.5577,2.5468,2.5378,2.5292,2.5111,2.4176,2.2505,2.2431,2.1559,1.9998,2.0059,2.0089,2.0079,2.0088,2.0077,2.0103,2.0148,2.0184,2.0188,2.0253,2.0327,2.0373,2.0354,2.0311,2.0478,1.4478,1.6412,1.7854,0.0,1.8873,1.9316,0.0,0.0,0.0,0.0,1.7259,1.6213,1.493,1.4286,1.366,1.2994,1.2773,0.0,0.0,0.0,0.0,1.5352,1.5871,1.6514,1.7224,1.7754,0.0,1.8306,0.0,0.0,1.9991,0.0,0.0,0.0,0.0,0.0,2.3929,2.5024,2.5701,2.5944,2.5359,2.473,2.4046,0.0,2.279,2.2123,2.1986,2.2044,2.2147,2.2192,2.2254,2.2282,2.2349,2.2377,2.2377,2.2432,2.2422,2.2286,2.1814,2.1747,2.1915,2.2247,2.255,2.3006,0.0,0.0,0.0,0.0,0.0,0.0,0.0,0.0,0.0,0.0,0.0,0.0,0.0,0.0,0.0,2.5948,0.0,0.0,0.0,2.7589,2.7362,2.7757,2.7245,2.7082,2.7515,2.6926,2.6545,2.6476,2.5812,2.5415,2.5303,2.5209,2.4278,2.2559,2.2505,2.1578,1.9922,1.9936,1.9896,1.9797,1.9862,1.9855,1.9805,1.988,1.9924,1.9984,2.004,2.0058,2.0114,2.0853,2.1079,2.1233,1.5152,0.0,0.0,1.9022,0.0,0.0,1.9174,1.8938,0.0,1.7569,1.6872,0.0,1.4985,1.4613,1.4162,1.3588,1.3563,0.0,1.3987,0.0,0.0,1.5836,1.6214,1.6689,1.7378,1.7709,0.0,1.8474,0.0,0.0,2.0446,0.0,0.0,0.0,0.0,2.4507,2.4463,2.5609,2.6007,2.5848,2.5179,2.4505,0.0,2.3177,2.2665,2.231,2.2231,2.226,2.2332,2.2487,2.2515,2.2542,2.2596,2.2579,2.2473,2.2105,2.1902,2.1623,2.0889,2.0721,2.079,2.1036,2.1546,2.2131,2.2808,2.3386,2.3842,0.0,2.4255,2.4454,0.0,0.0,0.0,0.0,0.0,0.0,0.0,0.0,0.0,0.0,2.5386,0.0,0.0,2.6808,2.7018,2.7491,2.744,2.7595,2.808,2.7278,2.6805,2.6764,2.5917,2.5406,2.5303,2.5231,2.4522,2.3164,2.2718,2.1787,2.0441,2.004,1.9769,1.9656,1.9675,1.9612,1.9535,1.9574,1.9601,1.9649,1.9745,1.9738,1.9847,2.1103,2.1372,2.1353,0.0,0.0,0.0,0.0,0.0,0.0,0.0,1.8508,0.0,1.6851,0.0,1.5414,1.4943,1.4726,1.4478,1.4309,0.0,1.4706,1.4824,1.5333,1.5747,1.6178,1.6536,1.7012,1.7557,1.7821,1.8254,0.0,0.0,0.0,0.0,0.0,0.0,0.0,0.0,0.0,0.0,2.6115,2.6152,2.5379,2.4765,2.4036,2.3279,2.2552,2.2265,2.2265,2.2388,2.2487,2.2525,2.2738,2.2816,2.2825,2.2772,2.266,2.2392,2.1541,2.113,2.074,1.9941,1.9723,1.9765,1.9915,2.0565,2.1253,2.1596,2.2264,2.2894,2.3159,2.3351,2.3546,2.379,0.0,0.0,0.0,0.0,0.0,0.0,0.0,0.0,0.0,0.0,0.0,0.0,2.5821,2.658,2.6865,2.7533,2.8027,2.8259,0.0,2.6831,2.6831,2.5869,2.5322,2.5264,2.5209,2.4752,2.3893,2.2958,2.2045,2.1164,2.0231,1.9713,1.9582,1.9499,1.9394,1.925,1.925,1.9261,1.9269,1.9291,1.9314,1.9538,2.1037,2.1331,2.1237,0.0,0.0,0.0,0.0,0.0,1.8948,1.8126,1.7447,1.6924,1.6718,1.5844,1.5113,1.4925,1.4916,1.4911,1.4852,1.5069,0.0,0.0,0.0,0.0,1.6053,1.6248,1.6341,1.6317,1.685,1.7393,0.0,0.0,0.0,0.0,0.0,0.0,0.0,0.0,0.0,2.5737,2.612,0.0,2.5196,2.4656,2.39,2.3066,2.2399,2.2113,2.2056,2.2141,2.2354,2.2605,2.2816,2.2893,2.2772,2.2178,2.1863,2.1524,2.0552,2.0153,1.9846,1.8985,1.8826,1.8943,1.9065,1.9229,1.9651,2.0788,2.117,2.1453,2.2044,2.222,2.2331,2.2429,0.0,0.0,0.0,0.0,0.0,0.0,0.0,0.0,0.0,0.0,2.4228,0.0,0.0,2.5822,2.728,2.7515,2.821,2.9653,0.0,2.7511,0.0,2.594,2.5152,0.0,0.0,2.465,2.3893,2.2958,2.2038,2.118,2.0238,1.9707,1.9518,1.9394,1.923,1.9051,1.9051,1.9051,1.8995,1.8419,1.8549,1.9193,2.0187,2.0949,2.1732,0.0,0.0,0.0,0.0,0.0,0.0,0.0,1.6958,1.6029,1.5758,1.526,1.4887,1.4799,1.4965,1.5205,1.542,1.5826,1.6058,1.6137,1.6513,1.6634,1.6362,1.6506,1.6599,1.6562,1.6841,1.7451,1.8295,0.0,0.0,0.0,0.0,0.0,0.0,0.0,2.5208,0.0,0.0,0.0,2.4448,2.4264,2.3448,2.2338,2.2003,2.1794,2.1705,2.1748,2.1895,2.2141,2.2624,2.259,2.2275,2.1875,2.1288,2.0567,1.9521,1.905,1.872,1.7979,1.7823,1.7914,1.8076,1.8391,1.8776,1.931,1.9646,1.989,2.0065,2.0267,2.0521,2.0701,2.1053,0.0,0.0,0.0,0.0,0.0,0.0,0.0,0.0,0.0,0.0,0.0,0.0,0.0,0.0,0.0,0.0,0.0,0.0,2.7852,0.0,0.0,0.0,2.5006,0.0,2.4841,2.4517,2.3605,2.2707,2.184,2.0896,2.0151,1.9596,1.9423,1.9261,1.9067,1.8499,1.8252,1.8199,1.7821,1.8196,1.9004,1.9903,2.0826,2.179,0.0,1.9269,0.0,0.0,1.8943,0.0,1.7929,1.6631,1.5495,1.4885,1.4689,1.4611,1.4501,1.4754,1.5156,1.5592,1.6098,1.6383,1.6414,1.6823,1.6979,1.672,1.6783,1.6834,1.6872,1.6979,1.7545,0.0,0.0,0.0,0.0,0.0,0.0,0.0,0.0,0.0,0.0,0.0,2.4863,2.3753,2.372,2.2895,2.1617,2.1634,2.1495,2.1324,2.137,2.1318,2.1351,2.1955,2.1919,2.1554,2.1184,2.0421,1.9487,1.8377,1.7847,1.7524,1.7071,1.6986,1.7126,1.7337,1.779,1.8202,1.8134,1.8359,1.8562,1.8299,1.8446,1.8672,1.9006,1.9269,0.0,0.0,0.0,0.0,0.0,0.0,0.0,0.0,0.0,0.0,2.1815,0.0,0.0,0.0,0.0,0.0,2.9167,0.0,0.0,0.0,0.0,2.5631,2.5083,0.0,2.4953,2.5038,2.4182,2.3339,2.2483,2.1543,2.0602,1.9707,1.9509,1.9243,1.8893,1.7979,1.7576,1.7507,1.7524,1.8057,1.8896,1.9669,2.068,2.1752,0.0,0.0,0.0,0.0,0.0,0.0,1.7154,1.6443,1.5692,1.4999,1.4455,1.4072,1.3763,1.3988,1.4356,1.4773,1.53,1.5851,1.6379,1.6719,1.6881,1.6795,1.669,1.6462,1.6102,1.6575,1.7178,0.0,0.0,1.9866,0.0,0.0,0.0,0.0,0.0,0.0,0.0,2.4719,2.4191,2.3568,2.3031,2.2246,2.1417,2.1371,2.1246,2.1119,2.1007,2.0607,2.0169,2.0378,2.0716,2.0812,1.9419,1.8685,1.813,1.694,1.6499,1.6363,1.6355,1.6644,1.6986,1.7248,1.7441,1.7657,1.8013,1.7903,1.7718,1.7773,1.7496,1.735,1.7557,1.7705,1.799,0.0,0.0,0.0,0.0,0.0,2.1269,2.118,0.0,0.0,2.0409,2.1811,2.3022,2.3621,2.508,0.0,0.0,0.0,0.0,2.7754,2.6376,2.5614,2.563,2.4965,2.4731,2.4915,2.41,2.3334,2.2566,2.1627,2.0675,1.9786,1.963,1.9017,1.8091,1.7812,1.7644,1.7593,1.7593,1.8109,1.8931,1.914,2.0292,2.1818,0.0,0.0,0.0,0.0,0.0,0.0,0.0,1.6352,1.5679,1.5026,1.4542,1.4218,1.416,1.4344,1.4599,1.4987,1.5433,1.5813,1.6127,1.649,1.6678,1.6608,1.6584,1.6485,1.6306,1.6516,1.6945,0.0,0.0,0.0,0.0,0.0,0.0,0.0,0.0,2.3647,2.4347,2.3975,2.3479,2.2916,2.272,2.2132,2.1386,2.1355,2.1246,2.1039,2.0543,2.0146,1.9765,1.9052,1.9039,1.9204,1.8532,1.7782,1.6924,1.5863,1.5373,1.5134,1.4923,1.5096,1.5415,1.5831,1.6011,1.6254,1.6791,1.6616,1.6374,1.6472,1.5994,1.5559,1.5644,1.5615,1.5696,1.6073,0.0,0.0,0.0,0.0,0.0,1.9756,0.0,1.9489,0.0,2.0246,2.1358,2.2639,0.0,0.0,0.0,0.0,0.0,2.7629,0.0,2.5981,2.5634,2.4957,2.4704,2.4893,2.4612,2.3833,2.2579,2.2197,2.1214,1.9793,1.9695,1.909,1.8162,1.8009,1.7902,1.7826,1.7794,1.8296,1.9084,1.918,2.0365,2.193,1.8628,0.0,1.8275,0.0,1.7619,1.6877,1.6729,1.6361,1.5867,1.5266,1.4941,1.4664,1.4389,1.443,1.4634,1.4898,1.5289,1.5579,1.58,1.6148,1.6402,1.6448,1.6392,0.0,1.6392,1.6349,1.6578,1.7227,1.7485,0.0,0.0,0.0,0.0,0.0,2.2349,2.2738,2.3575,2.3256,2.2898,2.2508,2.2392,2.1967,2.1464,2.1464,2.1371,2.1118,2.0392,1.9915,1.9489,1.8402,1.7931,1.7815,1.7641,1.6871,1.5829,1.5061,1.451,1.4097,1.3844,1.3885,1.4077,1.453,1.4805,1.5077,1.5479,1.5619,1.5669,1.5727,1.518,1.4624,1.4559,1.4423,1.4332,1.4438,0.0,0.0,0.0,1.7082,0.0,0.0,1.8252,1.8327,1.8447,1.9156,2.0356,2.2139,0.0,0.0,0.0,0.0,0.0,0.0,0.0,0.0,2.5522,2.4871,2.466,2.4875,2.4712,2.3909,2.2611,2.2111,2.1138,1.9835,1.9769,1.922,1.8371,1.849,1.837,1.8137,1.8294,1.8767,1.9326,1.9394,2.0548,2.2096,1.7744,1.779,1.7859,1.8001,1.7561,1.7026,1.655,1.6513,1.6276,1.5662,1.5603,1.5198,1.4125,1.3984,1.4078,1.4197,1.4523,1.4857,1.5278,1.5626,1.5969,0.0,0.0,1.6088,1.62,1.5925,1.6134,1.6791,0.0,0.0,1.8427,0.0,2.0358,2.0961,2.1753,2.2384,2.2885,2.2618,2.2524,2.2556,2.1944,2.168,2.1589,2.1589,2.1556,2.1395,2.0734,1.9968,1.9203,1.8536,1.7713,1.6942,1.6559,1.5772,1.4943,1.4523,1.389,1.3342,1.3472,1.3359,1.3299,1.3709,1.4109,1.4389,1.4345,1.5183,1.598,1.5912,1.5405,1.4933,1.4739,1.458,1.4396,1.4141,0.0,0.0,0.0,1.5434,0.0,1.6466,1.6637,1.6995,1.7666,1.9021,0.0,0.0,0.0,0.0,0.0,0.0,0.0,2.7212,2.6662,0.0,2.5326,2.469,2.4545,2.4787,2.4058,2.3353,2.264,2.0967,2.0098,1.9907,1.9904,1.9364,1.8552,1.927,1.9113,1.8485,1.9197,1.9532,1.9596,1.9675,2.0802,2.2311,1.7594,1.7678,1.77,1.7756,1.7465,1.7149,1.7015,1.6977,1.6827,1.6479,1.6367,1.6107,1.5457,1.4812,1.4455,0.0,1.4419,1.4697,0.0,1.5345,1.5659,1.6132,1.5957,1.5913,1.6044,1.6001,1.6041,1.6244,0.0,0.0,0.0,1.8283,1.9098,2.0103,2.0172,2.0684,2.1559,2.1529,2.1553,2.1569,2.1469,2.1433,2.1464,2.1634,2.1721,2.1716,2.0629,2.0094,1.9739,1.8504,1.7838,1.7412,1.7052,1.6085,1.4836,1.36,1.2975,1.2628,1.2282,1.1946,1.1927,1.2835,1.2929,1.3092,1.4078,1.4978,1.5468,1.4977,1.48,1.4585,1.4037,1.3758,1.3471,1.3093,1.3167,0.0,1.3938,0.0,1.4777,1.5876,1.6177,1.6638,1.7612,1.8537,0.0,0.0,0.0,0.0,0.0,0.0,0.0,0.0,2.6795,0.0,2.5444,2.4782,2.4251,2.3848,2.37,2.2993,2.177,2.0642,2.0089,2.0029,1.9988,1.9774,1.9473,1.9703,1.9647,1.9439,1.9642,1.9748,1.9813,1.9877,2.1001,2.2486,1.7397,1.758,1.7695,1.7853,1.7701,1.757,1.757,1.757,1.7475,1.7214,1.7131,1.6921,1.6367,1.5744,0.0,1.464,1.4569,1.4662,1.4926,1.5074,1.5334,1.5736,1.5603,1.5603,1.5812,1.5724,0.0,1.5812,1.5869,1.607,1.6438,1.6885,1.7635,1.8575,1.8793,1.939,2.0242,2.0652,2.0795,2.0763,2.091,2.0975,2.1007,2.1276,2.1404,2.1339,2.0484,2.0095,1.9847,1.8694,1.8177,1.7941,1.7354,1.6466,1.536,1.3758,1.2839,1.2238,1.1822,1.1434,1.128,1.2002,1.2101,1.2456,1.4126,1.4748,1.4949,1.4826,1.4727,1.4483,1.3868,1.3535,1.3195,1.2791,1.2733,1.2818,1.307,0.0,1.389,0.0,0.0,0.0,0.0,1.8419,1.9857,0.0,0.0,0.0,0.0,0.0,2.7936,2.7146,2.6783,2.6103,2.5097,2.4706,2.4139,2.3386,2.2908,2.2076,2.0881,2.0365,2.0135,2.0136,2.0079,2.0041,1.9992,2.0012,2.0003,2.0012,1.9984,2.0002,2.0087,2.0448,2.1492,2.2709,1.7271,1.7612,1.7922,0.0,1.8228,1.8228,1.8228,1.8228,1.8149,1.7882,1.7828,1.7585,1.6964,1.668,1.612,1.5085,0.0,0.0,1.4708,1.4823,1.5006,1.5267,1.5153,1.5244,1.5513,1.5244,1.5244,1.5468,1.5322,1.5209,1.5141,1.5555,1.5983,1.6536,1.7599,1.8426,1.9016,1.9854,2.0162,2.0112,2.0249,2.0249,2.0265,2.0665,2.0651,2.0433,2.0288,2.0013,1.9573,1.9002,1.8716,1.8442,1.7497,1.6949,1.6324,1.4754,1.3352,1.2252,1.1991,1.1611,1.1293,1.1346,1.1651,1.2415,1.4302,1.4472,1.4483,1.5195,1.5061,1.4637,1.4098,1.3802,1.3514,1.3176,1.2955,1.2768,1.2544,1.2627,1.3144,0.0,0.0,0.0,1.7558,1.8688,1.9984,0.0,0.0,0.0,0.0,0.0,2.7774,2.6554,2.6636,2.5983,2.4425,2.4462,2.4102,2.3311,2.1809,2.0752,2.0108,2.0162,2.0197,2.0205,2.0211,2.0172,2.0137,2.0192,2.0222,2.0229,2.0283,2.0341,2.0502,2.1314,2.2158,2.3006,0.0,0.0,1.8411,1.8606,1.8644,1.8644,1.8644,1.8644,1.8606,1.8503,1.8386,1.8135,1.7625,1.7269,1.6723,1.5957,1.5334,1.4949,1.4776,1.4822,1.4891,1.5006,1.496,1.5142,1.5468,1.5345,1.5255,1.5345,1.5096,1.4858,1.4593,1.4846,1.5062,1.5365,1.6494,1.7274,1.7839,1.8617,1.9037,1.92,1.9295,1.9339,1.9432,1.9838,1.9935,1.9876,1.9801,1.9681,1.945,1.8908,1.8698,1.8624,1.8276,1.7609,1.6607,1.464,1.373,1.3172,1.235,1.169,1.1346,1.1858,1.2136,1.2411,1.2867,1.3512,1.3981,1.3906,1.4341,1.4574,1.4098,1.3927,1.3708,1.3391,1.3207,1.3022,1.2756,1.2768,1.324,0.0,1.4967,1.5905,1.7759,1.8703,1.9963,0.0,0.0,2.4185,2.5764,2.6312,2.6594,2.6641,2.674,2.6042,2.4478,2.4495,2.3819,2.2472,2.0891,2.0085,2.0021,2.0155,2.0225,2.0289,2.0287,2.0302,2.0334,2.0357,2.0346,2.0352,2.0381,2.0806,2.1465,2.1623,2.2619,2.3889,1.7908,1.8319,1.8697,1.8851,1.895,1.9026,1.9026,1.9064,1.9064,1.9003,1.8979,1.876,1.8369,1.8028,1.7544,1.6879,1.5888,1.5198,1.4891,1.4846,1.4834,1.4903,1.4903,1.5051,1.539,1.53,1.5165,1.5108,1.488,1.4558,1.4197,1.4269,1.4398,1.4628,1.5564,1.6293,1.6844,1.7626,1.8039,1.8185,1.8302,1.826,1.8218,1.8589,1.8502,1.8186,1.8591,1.8541,1.829,1.827,1.8286,1.8321,1.8273,1.7869,1.7058,1.5541,1.4521,1.3731,1.3036,1.224,1.1666,1.1911,1.2003,1.2192,1.278,1.3226,1.3604,1.3898,1.4212,1.4337,1.4013,1.3908,1.3775,1.3527,1.3344,1.3104,1.2838,1.2768,1.3168,1.4352,1.4942,1.5956,1.7759,1.8779,1.9893,2.1189,2.2467,0.0,2.4716,2.545,2.5899,2.605,2.613,2.5634,2.4561,2.3849,2.2869,2.1644,2.0383,1.987,2.001,2.0117,2.0214,2.0294,2.034,2.0385,2.0443,2.0449,2.0445,2.0455,2.0483,2.1035,2.1834,2.2208,2.3149,2.4282,1.7935,1.8436,1.8836,1.8993,1.9168,1.9302,1.9302,1.9376,1.945,1.945,1.9487,1.9398,1.9058,1.8831,1.8447,1.7747,1.6629,1.5712,1.5085,1.504,1.4994,1.496,1.496,1.5062,1.53,1.521,1.5051,1.4903,1.4708,1.4441,1.4067,1.3915,1.3952,1.4176,1.4789,1.541,1.5983,1.6756,1.7092,1.7146,1.7284,1.7146,1.6941,1.7205,1.6752,1.609,1.6978,1.6957,1.6612,1.7169,1.7501,1.7674,1.7742,1.767,1.74,1.6642,1.538,1.4112,1.3664,1.2722,1.1824,1.1564,1.1518,1.1806,1.2918,1.3099,1.3291,1.4142,1.4114,1.3934,1.3828,1.3775,1.3674,1.356,1.3357,1.3082,1.2838,0.0,1.3071,1.4087,1.479,1.5839,1.7544,1.8697,1.9672,2.0501,2.2079,2.3185,2.3628,2.4629,2.5135,2.4983,2.5254,2.506,2.4404,2.2872,2.1736,2.0996,2.0201,1.9889,1.9998,2.0069,2.018,2.0302,2.0381,2.0449,2.0516,2.0523,2.0527,2.0523,2.0572,2.1154,2.2076,2.2825,2.3688,2.4572,1.8013,1.8528,1.8836,1.8993,1.9168,1.9339,1.9376,1.9545,1.9675,1.9732,1.9889,1.9889,1.9603,1.9464,1.9103,1.8496,1.7961,1.7063,1.5744,1.5534,1.5412,1.5255,1.5255,1.53,1.5468,1.5345,1.5165,1.4903,1.48,1.4627,1.4337,1.4057,1.3915,1.3858,1.4326,1.4823,1.5277,1.5832,1.6225,1.6441,1.6484,1.6299,1.5983,1.5879,1.5262,1.4525,1.5118,1.5136,1.4979,1.5616,1.6161,1.655,1.6683,1.6781,1.6822,1.6625,1.5719,1.4554,1.3482,1.2043,1.08,1.0634,1.0853,1.1189,1.1548,1.2215,1.2817,1.297,1.3187,1.3319,1.3297,1.3353,1.3365,1.3254,1.3242,1.3104,1.2768,0.0,1.2974,1.3729,1.4235,1.526,1.7126,1.8086,1.912,2.0418,2.1405,2.2141,2.2613,2.3067,2.3425,2.3613,2.4711,2.4727,2.35,2.1962,2.1135,2.0997,2.0238,1.993,1.9998,2.0135,2.0231,2.0307,2.0433,2.0522,2.059,2.0578,2.058,2.0579,2.0536,2.1485,2.292,2.2987,2.3996,2.5318,1.784,1.8425,1.8812,1.8993,1.9242,1.9487,1.9603,1.9869,2.0065,2.0208,2.0361,2.0478,2.0413,2.0277,2.0019,1.9564,1.9111,1.8377,1.7272,1.6514,1.5944,1.5691,1.557,1.5435,1.5289,1.5153,1.5006,1.4903,1.4474,1.436,1.4466,1.3893,1.3683,1.3821,1.3999,1.4233,1.4536,1.5028,1.5344,1.5567,1.5611,1.5344,1.4835,1.4239,1.3422,1.2609,1.2805,1.2866,1.2997,1.3785,1.4504,1.5096,1.5386,1.563,1.5788,1.5831,1.5126,1.4016,1.256,1.1374,1.0435,1.018,1.0238,1.0486,1.1046,1.1487,1.1901,1.2246,1.2375,1.2449,1.2531,1.2649,1.2731,1.2861,1.2849,1.2743,1.2556,1.252,1.2782,1.3409,1.3974,1.4912,1.6487,1.7403,1.844,1.9872,2.0663,2.1437,2.2254,2.2255,2.2373,2.2652,2.3565,2.3381,2.1977,2.1357,2.0835,2.0401,2.0108,1.9993,2.0058,2.0152,2.026,2.0369,2.0449,2.0536,2.0597,2.0602,2.0602,2.0599,2.0531,2.1547,2.3042,2.3004,2.4044,2.5444,1.7773,1.84,1.8788,1.8979,1.9354,1.9669,1.9839,2.0135,2.0426,2.0663,2.0844,2.0974,2.1071,2.1023,2.0828,2.0532,2.0093,1.9477,1.8712,1.7585,1.671,1.6207,1.5836,1.548,1.5108,1.4846,1.4688,1.4643,1.3972,1.385,1.4283,1.3541,1.3339,1.3588,1.3542,1.3531,1.3613,1.4002,1.4283,1.4395,1.4609,1.4279,1.3579,1.2761,1.1769,1.0735,1.0578,1.0617,1.0899,1.1779,1.266,1.3487,1.3955,1.4345,1.4654,1.4788,1.4137,1.3078,1.1731,1.0712,0.996,0.9626,0.9588,0.9799,1.0571,1.0756,1.0941,1.1472,1.1391,1.1281,1.1498,1.1656,1.185,1.2187,0.0,1.2282,1.2258,1.2294,1.2543,1.3055,1.363,1.4527,1.585,1.6742,1.7797,1.9186,1.9962,2.0794,2.1722,2.1581,2.1534,2.1683,2.2153,2.1902,2.0825,2.0821,2.0519,1.9915,1.9996,2.0058,2.0136,2.0192,2.0283,2.04,2.0471,2.0545,2.0601,2.0603,2.0602,2.0597,2.0521,2.1519,2.2994,2.2984,2.3997,2.5374,1.7889,1.8489,1.8874,1.9064,1.9376,1.972,2.003,2.0323,2.0628,2.1023,2.123,2.1355,2.1386,2.1432,2.137,2.115,2.0714,2.0193,1.9543,1.8712,1.7787,1.671,1.5901,1.5379,1.5108,1.4428,1.4004,1.3861,1.3397,1.324,1.341,1.3103,1.2923,1.2882,1.2744,1.2573,1.2444,1.2595,1.268,1.2818,1.3302,1.3059,1.2312,1.1859,1.0685,0.9197,0.8829,0.868,0.8774,0.956,1.0681,1.1809,1.2389,1.2992,1.3557,1.3683,1.2979,1.2013,1.1375,1.0122,0.893,0.8596,0.8772,0.9169,0.9515,0.9883,1.0186,1.0321,1.0079,0.9915,1.0128,1.0321,1.0578,1.1041,0.0,0.0,1.1811,1.2066,1.2294,1.252,1.3037,1.3895,1.5244,1.6146,1.7228,1.8588,1.9344,1.9974,2.0421,2.0714,2.0738,2.0445,2.0601,2.0739,2.0886,2.0289,2.0001,1.9991,2.006,2.0125,2.0184,2.0255,2.033,2.0406,2.0472,2.0534,2.0601,2.0601,2.0599,2.0591,2.0522,2.1511,2.2996,2.2939,2.3931,2.5293,1.7875,1.8528,1.8936,1.9273,1.9639,2.0045,2.0407,2.0628,2.0844,2.1135,2.1246,2.1402,2.1556,2.1617,2.1601,2.157,2.123,2.0763,2.0193,1.9419,1.8221,1.6527,1.5888,1.5367,1.496,1.425,1.3861,1.3806,1.2949,1.277,1.3162,1.2677,1.2524,1.2648,1.2425,1.2083,1.1727,1.175,1.1664,1.1538,1.2037,1.1779,1.1096,1.0449,0.9435,0.8278,0.7478,0.7271,0.7445,0.8068,0.9138,1.0328,1.101,1.1805,1.2519,1.2824,1.2354,1.1611,1.0955,0.9945,0.9009,0.8668,0.8626,0.8767,0.9119,0.9204,0.9222,0.9156,0.8787,0.8504,0.8601,0.8753,0.9112,0.9876,0.0,1.1073,1.1616,1.1982,1.2354,1.272,1.3195,1.3847,1.4786,1.5635,1.6647,1.7994,1.8795,1.9544,2.0377,2.048,2.0264,1.9769,1.9896,2.0024,2.0097,2.0017,2.0009,2.0069,2.0122,2.0196,2.0262,2.0338,2.04,2.0451,2.0494,2.0508,2.0534,2.0547,2.054,2.0531,2.0469,2.1119,2.2178,2.2716,2.3606,2.462,1.8099,1.8721,1.9124,1.9566,1.996,2.0308,2.0695,2.0637,2.0607,2.0782,2.062,2.0649,2.0982,2.1105,2.1166,2.1196,2.1,2.0591,1.9937,1.8986,1.7869,1.6514,1.5932,1.5445,1.5051,1.4104,1.3553,1.3553,1.2451,1.2117,1.2473,1.2055,1.1879,1.1984,1.1737,1.1311,1.0847,1.0709,1.0453,1.01,1.0516,1.0291,0.9705,0.9144,0.8324,0.7404,0.643,0.6152,0.6313,0.68,0.7814,0.9032,0.9808,1.0761,1.1653,1.2018,1.1763,1.1234,1.0647,0.9894,0.9168,0.8756,0.8561,0.8529,0.8781,0.8643,0.8423,0.8211,0.7668,0.7252,0.7176,0.7252,0.7616,0.8601,0.9397,1.0272,1.1249,1.1898,1.2425,1.2931,1.3433,1.4,1.4627,1.5404,1.6342,1.746,1.8227,1.903,2.0008,2.001,1.9829,1.9471,1.9643,1.9726,1.9738,1.9928,2.0069,2.0152,2.0238,2.0283,2.0332,2.0391,2.0453,2.05,2.0509,2.0494,2.0494,2.0477,2.0467,2.046,2.0425,2.0892,2.1733,2.2551,2.3377,2.4178,1.8617,1.9139,1.9523,1.9935,2.022,2.0512,2.0845,2.0289,1.9829,1.9874,1.9254,1.899,1.9531,1.9765,1.9874,1.9875,1.9876,1.9498,1.8561,1.7361,1.6725,1.6815,1.6126,1.5623,1.53,1.3876,1.309,1.3006,1.1776,1.118,1.118,1.1057,1.0905,1.0677,1.0611,1.0215,0.9579,0.9399,0.8999,0.8504,0.8715,0.8553,0.8158,0.7895,0.7313,0.6588,0.5646,0.5281,0.5346,0.5679,0.6687,0.7949,0.8731,0.9884,1.0954,1.1196,1.1094,1.0802,1.0495,0.9952,0.9359,0.8675,0.8447,0.8414,0.8414,0.8193,0.7897,0.7496,0.681,0.6198,0.5851,0.5802,0.6095,0.7127,0.8206,0.94,1.0805,1.1825,1.2615,1.3148,1.3689,1.4246,1.4845,1.5579,1.6278,1.6952,1.7635,1.8307,1.9053,1.923,1.938,1.9582,1.9726,1.9866,2.0001,2.0079,2.0159,2.0304,2.0379,2.0408,2.04,2.0465,2.051,2.05,2.05,2.0494,2.048,2.0433,2.04,2.0415,2.0408,2.0946,2.1811,2.2535,2.3321,2.412,1.903,1.953,1.9919,2.0289,2.0597,2.0719,2.0382,2.008,1.9624,1.8935,1.8424,1.8051,1.7994,1.7932,1.7887,1.8015,1.8125,1.8189,1.8099,1.7507,1.6992,1.6535,1.5871,1.5332,1.4971,1.425,1.3622,1.3151,1.2109,1.1393,1.0992,1.0725,1.0534,1.039,1.006,0.9667,0.9288,0.8846,0.8316,0.7795,0.7729,0.7455,0.7083,0.6919,0.6578,0.6054,0.5462,0.515,0.5106,0.5221,0.6021,0.728,0.8561,0.9372,0.9875,1.0379,1.0456,1.0427,1.0408,1.0118,0.9695,0.9136,0.8814,0.8651,0.8602,0.8308,0.7807,0.7133,0.6155,0.5298,0.4831,0.4478,0.4682,0.5913,0.7079,0.851,1.0452,1.1634,1.2638,1.3527,1.4065,1.455,1.5061,1.5781,1.6459,1.7027,1.7859,1.8567,1.9066,1.928,1.946,1.9673,1.98,1.9928,2.0069,2.0178,2.0258,2.0308,2.0421,2.0459,2.0395,2.0472,2.0476,2.0424,2.0386,2.0341,2.0288,2.0314,2.0682,2.123,2.1249,2.1778,2.263,2.3485,2.389,2.4184,1.9626,2.0104,2.0478,2.0811,2.083,2.071,2.0348,1.9621,1.8845,1.8064,1.7288,1.6718,1.6479,1.6107,1.5853,1.5873,1.6041,1.6369,1.6785,1.6673,1.6401,1.59,1.5535,1.5255,1.5102,1.4505,1.3964,1.3597,1.2457,1.1585,1.0952,1.043,1.0079,0.9883,0.9597,0.9288,0.9065,0.8529,0.7938,0.7321,0.6774,0.6357,0.6063,0.5789,0.5621,0.5515,0.4974,0.4812,0.4845,0.4748,0.5513,0.6693,0.7941,0.8431,0.8706,0.9217,0.9543,0.9758,0.9942,0.9922,0.9862,0.9585,0.9297,0.9056,0.8926,0.8521,0.7931,0.7001,0.5888,0.486,0.3997,0.3473,0.3554,0.4803,0.6109,0.7797,1.0059,1.1564,1.2824,1.3914,1.4515,1.4984,1.5404,1.6022,1.6644,1.732,1.8048,1.8605,1.8966,1.92,1.9387,1.9546,1.972,1.9866,1.9982,2.0478,2.0597,2.0308,2.0402,2.0424,2.036,2.038,2.0338,2.0289,2.025,2.0207,2.018,2.0592,2.1059,2.159,2.1929,2.2402,2.3004,2.3852,2.413,2.4204,2.0366,2.0781,2.1166,2.1432,2.1075,2.0702,2.0565,1.9181,1.7919,1.7327,1.6127,1.5262,1.5113,1.4411,1.3854,1.3616,1.3927,1.4398,1.5092,1.533,1.5344,1.5165,1.5157,1.5305,1.5517,1.4639,1.4164,1.4173,1.2718,1.1711,1.1155,1.025,0.9616,0.9319,0.9217,0.9065,0.8871,0.8398,0.7807,0.7098,0.6027,0.5432,0.513,0.4565,0.4613,0.4879,0.4264,0.4264,0.4487,0.4403,0.513,0.6198,0.691,0.7238,0.7397,0.7796,0.8383,0.8901,0.911,0.9448,0.9744,0.9902,0.9774,0.9518,0.9337,0.8926,0.8259,0.712,0.5925,0.4721,0.3416,0.2763,0.2765,0.3807,0.5286,0.7132,0.9639,1.1383,1.2905,1.4169,1.4852,1.5375,1.5782,1.6258,1.6876,1.7681,1.8121,1.8465,1.8733,1.9001,1.9182,1.9274,1.9532,1.9713,1.9877,2.0858,2.1032,2.0411,2.0457,2.045,2.0378,2.0241,2.0146,2.0063,2.0077,2.0117,2.0241,2.1062,2.1512,2.1788,2.2598,2.2987,2.3192,2.394,2.4204,2.4293,2.1144,2.1552,2.1777,2.1994,2.1933,2.1446,2.0233,1.9555,1.8583,1.6945,1.605,1.5271,1.4575,1.345,1.2603,1.2196,1.2842,1.367,1.4687,1.5316,1.5594,1.5507,1.5219,1.5007,1.4974,1.4727,1.4432,1.411,1.2833,1.203,1.161,1.0399,0.9695,0.9439,0.9105,0.8952,0.8871,0.8275,0.7641,0.6972,0.5942,0.513,0.4443,0.3957,0.3825,0.3873,0.3656,0.37,0.3961,0.4522,0.4874,0.5226,0.5771,0.5979,0.6107,0.6554,0.7099,0.7687,0.8146,0.865,0.911,0.9518,0.9913,1.0147,0.9961,0.9628,0.9004,0.7837,0.6307,0.4724,0.3175,0.2224,0.2008,0.3052,0.4361,0.6142,0.8718,1.0318,1.1796,1.3506,1.4227,1.4947,1.5866,1.6421,1.6917,1.7288,1.7698,1.8073,1.8397,1.8661,1.886,1.8995,1.9206,1.9667,2.0429,2.0808,2.1058,2.1165,2.1182,2.1118,2.0986,2.0346,1.9983,1.9861,1.9909,2.0297,2.0899,2.1208,2.2121,2.3388,2.3659,2.4167,2.481,2.4985,2.5005,2.4952,2.1423,2.2014,2.2476,2.2643,2.2063,2.1295,2.0422,1.9495,1.8447,1.7288,1.6562,1.5851,1.5067,1.3911,1.2808,1.1868,1.2365,1.3112,1.4065,1.4927,1.5433,1.5448,1.5134,1.478,1.4371,1.4149,1.4185,1.454,1.314,1.2349,1.2067,1.0576,0.9734,0.9399,0.9145,0.9024,0.8911,0.8357,0.7641,0.6797,0.5685,0.4696,0.3825,0.3208,0.2987,0.2943,0.2812,0.2993,0.3435,0.4045,0.4312,0.4447,0.4831,0.4961,0.5043,0.5331,0.5882,0.6476,0.6932,0.7604,0.8277,0.8772,0.9491,1.0176,1.037,1.035,0.9924,0.8616,0.6922,0.507,0.3249,0.2045,0.1652,0.2612,0.3871,0.5659,0.8282,0.9882,1.1504,1.3377,1.4127,1.4896,1.5907,1.6313,1.6591,1.6767,1.7174,1.7702,1.8314,1.8672,1.9076,1.9591,1.9882,2.03,2.093,2.1549,2.1965,2.2205,2.1533,2.1164,2.1034,2.0221,2.0024,2.0333,2.0395,2.091,2.1702,2.223,2.3008,2.3896,2.4347,2.4811,2.5264,2.5222,2.5138,2.5038,2.135,2.2235,2.2912,2.2909,2.1953,2.1061,2.0668,1.9436,1.8377,1.7933,1.74,1.6816,1.6139,1.4975,1.3655,1.2185,1.234,1.2817,1.3426,1.4414,1.5058,1.5178,1.4921,1.4511,1.3866,1.3458,1.3791,1.4827,1.3351,1.2589,1.2394,1.0874,0.9918,0.9478,0.9368,0.9257,0.9088,0.8504,0.7668,0.6615,0.5384,0.4212,0.3073,0.2364,0.201,0.1921,0.1741,0.2101,0.2773,0.3347,0.3612,0.3792,0.4052,0.4096,0.4092,0.4128,0.4648,0.525,0.5583,0.6428,0.7273,0.7769,0.8747,0.9797,1.0484,1.0902,1.0795,0.9616,0.7815,0.5866,0.3745,0.2387,0.1828,0.2524,0.3791,0.5543,0.805,0.9644,1.1277,1.3212,1.417,1.5,1.5766,1.6044,1.6202,1.6296,1.6828,1.7533,1.8353,1.8817,1.9437,2.0278,2.0635,2.1028,2.145,2.2429,2.3032,2.3285,2.2009,2.1365,2.1274,2.0474,2.0474,2.112,2.1215,2.1738,2.262,2.3411,2.3847,2.4117,2.4824,2.5145,2.5176,2.5122,2.5025,2.4898,2.0965,2.192,2.2386,2.1839,2.2094,2.1894,2.0481,2.0029,1.9542,1.8681,1.8355,1.7988,1.7489,1.5903,1.4271,1.2796,1.2909,1.306,1.2989,1.392,1.4533,1.4596,1.4501,1.4233,1.3752,1.3336,1.3445,1.4144,1.302,1.2469,1.2478,1.1294,1.0545,1.0157,1.004,0.9873,0.9628,0.8876,0.7721,0.6265,0.4971,0.3544,0.2142,0.1515,0.0937,0.0492,0.0447,0.1027,0.1875,0.2593,0.2948,0.3167,0.3303,0.3255,0.3167,0.3208,0.3517,0.3953,0.4335,0.511,0.5925,0.659,0.7732,0.8984,0.9742,1.0897,1.1583,1.0951,0.9351,0.7419,0.5204,0.3709,0.2882,0.3221,0.4256,0.5707,0.7613,0.8938,1.0338,1.2115,1.3908,1.5064,1.512,1.5748,1.6162,1.6287,1.7212,1.8006,1.8471,1.8977,1.9435,1.9858,2.0261,2.0985,2.2064,2.2623,2.329,2.4045,2.3393,2.3023,2.2861,2.2118,2.1878,2.2018,2.2167,2.2748,2.3607,2.3812,2.4316,2.5027,2.5153,2.5191,2.5191,2.512,2.5025,2.4902,2.0474,2.1348,2.1934,2.1715,2.1634,2.1369,2.0702,2.0181,1.9734,1.9317,1.915,1.8947,1.867,1.7301,1.5884,1.4638,1.4086,1.3686,1.3362,1.3624,1.3795,1.3815,1.3916,1.3661,1.2983,1.2534,1.233,1.2314,1.2004,1.1845,1.1791,1.0948,1.0634,1.074,1.1153,1.1105,1.0676,0.9844,0.8273,0.6217,0.4561,0.2786,0.1069,0.0222,-0.0489,-0.0979,-0.0668,-0.0089,0.0668,0.1606,0.2053,0.2275,0.2499,0.2455,0.2319,0.2324,0.2499,0.2807,0.3243,0.4029,0.4866,0.5423,0.6793,0.8174,0.8776,1.0243,1.1487,1.1465,1.0039,0.819,0.6212,0.4588,0.3618,0.3821,0.4866,0.6323,0.8163,0.9431,1.0834,1.2614,1.3979,1.4893,1.5193,1.5506,1.5867,1.6225,1.6882,1.7589,1.8281,1.8952,1.972,2.0591,2.1257,2.2017,2.2923,2.3395,2.3896,2.442,2.4253,2.3859,2.3225,2.2534,2.2512,2.3044,2.3175,2.3751,2.4602,2.4654,2.4894,2.5201,2.5201,2.5168,2.5153,2.5153,2.508,2.503]}]]